<?xml version="1.0" encoding="UTF-8" standalone="no" ?>
<gpx xmlns="http://www.topografix.com/GPX/1/1" xmlns:xsi="http://www.w3.org/2001/XMLSchema-instance" xsi:schemaLocation="http://www.topografix.com/GPX/1/1 http://www.topografix.com/GPX/1/1/gpx.xsd" version="1.1" creator="VisuGPX - https://www.visugpx.com">
  <metadata>
    <name>Pointe du Demi</name>
    <desc><![CDATA[Monetier les bains, les Conchiers - Pointe du Demi]]></desc>
  </metadata>
  <trk>
    <name><![CDATA[Traccia corrente: 18 APR 2018 07:12]]></name>
    <trkseg>
      <trkpt lat="44.98095" lon="6.50595">
        <ele>1561.32</ele>
        <time>2018-04-18T05:12:36Z</time>
      </trkpt>
      <trkpt lat="44.98095" lon="6.50596">
        <ele>1560.36</ele>
        <time>2018-04-18T05:12:53Z</time>
      </trkpt>
      <trkpt lat="44.98096" lon="6.50597">
        <ele>1559.4</ele>
        <time>2018-04-18T05:13:17Z</time>
      </trkpt>
      <trkpt lat="44.98095" lon="6.50599">
        <ele>1559.4</ele>
        <time>2018-04-18T05:13:42Z</time>
      </trkpt>
      <trkpt lat="44.98095" lon="6.50599">
        <ele>1559.4</ele>
        <time>2018-04-18T05:14:21Z</time>
      </trkpt>
      <trkpt lat="44.98094" lon="6.50598">
        <ele>1559.4</ele>
        <time>2018-04-18T05:15:01Z</time>
      </trkpt>
      <trkpt lat="44.98094" lon="6.50598">
        <ele>1558.92</ele>
        <time>2018-04-18T05:15:35Z</time>
      </trkpt>
      <trkpt lat="44.98093" lon="6.50599">
        <ele>1558.92</ele>
        <time>2018-04-18T05:16:10Z</time>
      </trkpt>
      <trkpt lat="44.9809" lon="6.50597">
        <ele>1558.92</ele>
        <time>2018-04-18T05:16:44Z</time>
      </trkpt>
      <trkpt lat="44.98094" lon="6.50594">
        <ele>1559.88</ele>
        <time>2018-04-18T05:17:15Z</time>
      </trkpt>
      <trkpt lat="44.98095" lon="6.50596">
        <ele>1559.88</ele>
        <time>2018-04-18T05:17:33Z</time>
      </trkpt>
      <trkpt lat="44.98089" lon="6.50586">
        <ele>1559.4</ele>
        <time>2018-04-18T05:17:46Z</time>
      </trkpt>
      <trkpt lat="44.98088" lon="6.50578">
        <ele>1559.88</ele>
        <time>2018-04-18T05:17:58Z</time>
      </trkpt>
      <trkpt lat="44.98089" lon="6.50572">
        <ele>1559.88</ele>
        <time>2018-04-18T05:18:16Z</time>
      </trkpt>
      <trkpt lat="44.98096" lon="6.50566">
        <ele>1561.8</ele>
        <time>2018-04-18T05:18:30Z</time>
      </trkpt>
      <trkpt lat="44.98107" lon="6.50564">
        <ele>1564.2</ele>
        <time>2018-04-18T05:18:45Z</time>
      </trkpt>
      <trkpt lat="44.9812" lon="6.50565">
        <ele>1566.61</ele>
        <time>2018-04-18T05:19:01Z</time>
      </trkpt>
      <trkpt lat="44.98131" lon="6.5056">
        <ele>1569.01</ele>
        <time>2018-04-18T05:19:15Z</time>
      </trkpt>
      <trkpt lat="44.9814" lon="6.50556">
        <ele>1570.93</ele>
        <time>2018-04-18T05:19:29Z</time>
      </trkpt>
      <trkpt lat="44.98149" lon="6.50558">
        <ele>1572.85</ele>
        <time>2018-04-18T05:19:44Z</time>
      </trkpt>
      <trkpt lat="44.98157" lon="6.50561">
        <ele>1574.78</ele>
        <time>2018-04-18T05:19:57Z</time>
      </trkpt>
      <trkpt lat="44.98167" lon="6.50559">
        <ele>1575.74</ele>
        <time>2018-04-18T05:20:14Z</time>
      </trkpt>
      <trkpt lat="44.98163" lon="6.5056">
        <ele>1575.26</ele>
        <time>2018-04-18T05:20:41Z</time>
      </trkpt>
      <trkpt lat="44.98164" lon="6.50559">
        <ele>1575.74</ele>
        <time>2018-04-18T05:20:52Z</time>
      </trkpt>
      <trkpt lat="44.98164" lon="6.50561">
        <ele>1575.74</ele>
        <time>2018-04-18T05:21:06Z</time>
      </trkpt>
      <trkpt lat="44.98167" lon="6.50558">
        <ele>1576.22</ele>
        <time>2018-04-18T05:21:19Z</time>
      </trkpt>
      <trkpt lat="44.98177" lon="6.50557">
        <ele>1579.1</ele>
        <time>2018-04-18T05:21:38Z</time>
      </trkpt>
      <trkpt lat="44.98188" lon="6.50551">
        <ele>1581.03</ele>
        <time>2018-04-18T05:21:53Z</time>
      </trkpt>
      <trkpt lat="44.98193" lon="6.50547">
        <ele>1582.47</ele>
        <time>2018-04-18T05:22:06Z</time>
      </trkpt>
      <trkpt lat="44.98204" lon="6.50545">
        <ele>1583.91</ele>
        <time>2018-04-18T05:22:21Z</time>
      </trkpt>
      <trkpt lat="44.98207" lon="6.5055">
        <ele>1585.83</ele>
        <time>2018-04-18T05:22:36Z</time>
      </trkpt>
      <trkpt lat="44.98217" lon="6.50551">
        <ele>1588.24</ele>
        <time>2018-04-18T05:22:51Z</time>
      </trkpt>
      <trkpt lat="44.98225" lon="6.50557">
        <ele>1590.16</ele>
        <time>2018-04-18T05:23:09Z</time>
      </trkpt>
      <trkpt lat="44.98241" lon="6.5055">
        <ele>1593.04</ele>
        <time>2018-04-18T05:23:27Z</time>
      </trkpt>
      <trkpt lat="44.98241" lon="6.50547">
        <ele>1593.04</ele>
        <time>2018-04-18T05:23:31Z</time>
      </trkpt>
      <trkpt lat="44.9825" lon="6.50536">
        <ele>1595.45</ele>
        <time>2018-04-18T05:23:46Z</time>
      </trkpt>
      <trkpt lat="44.98259" lon="6.50529">
        <ele>1596.89</ele>
        <time>2018-04-18T05:24:01Z</time>
      </trkpt>
      <trkpt lat="44.98269" lon="6.50525">
        <ele>1598.81</ele>
        <time>2018-04-18T05:24:17Z</time>
      </trkpt>
      <trkpt lat="44.98276" lon="6.50526">
        <ele>1600.73</ele>
        <time>2018-04-18T05:24:31Z</time>
      </trkpt>
      <trkpt lat="44.98281" lon="6.50527">
        <ele>1602.17</ele>
        <time>2018-04-18T05:24:44Z</time>
      </trkpt>
      <trkpt lat="44.9829" lon="6.50522">
        <ele>1603.14</ele>
        <time>2018-04-18T05:24:55Z</time>
      </trkpt>
      <trkpt lat="44.98294" lon="6.50516">
        <ele>1602.66</ele>
        <time>2018-04-18T05:25:08Z</time>
      </trkpt>
      <trkpt lat="44.98295" lon="6.50515">
        <ele>1603.14</ele>
        <time>2018-04-18T05:25:09Z</time>
      </trkpt>
      <trkpt lat="44.98305" lon="6.5051">
        <ele>1604.58</ele>
        <time>2018-04-18T05:25:23Z</time>
      </trkpt>
      <trkpt lat="44.98315" lon="6.50504">
        <ele>1606.5</ele>
        <time>2018-04-18T05:25:39Z</time>
      </trkpt>
      <trkpt lat="44.98322" lon="6.505">
        <ele>1607.94</ele>
        <time>2018-04-18T05:25:51Z</time>
      </trkpt>
      <trkpt lat="44.9833" lon="6.50497">
        <ele>1609.38</ele>
        <time>2018-04-18T05:26:06Z</time>
      </trkpt>
      <trkpt lat="44.9834" lon="6.50497">
        <ele>1611.79</ele>
        <time>2018-04-18T05:26:23Z</time>
      </trkpt>
      <trkpt lat="44.98344" lon="6.50505">
        <ele>1614.19</ele>
        <time>2018-04-18T05:26:38Z</time>
      </trkpt>
      <trkpt lat="44.98354" lon="6.50512">
        <ele>1616.59</ele>
        <time>2018-04-18T05:26:54Z</time>
      </trkpt>
      <trkpt lat="44.98357" lon="6.50513">
        <ele>1617.07</ele>
        <time>2018-04-18T05:27:09Z</time>
      </trkpt>
      <trkpt lat="44.98356" lon="6.50508">
        <ele>1617.07</ele>
        <time>2018-04-18T05:27:23Z</time>
      </trkpt>
      <trkpt lat="44.98357" lon="6.50509">
        <ele>1617.07</ele>
        <time>2018-04-18T05:27:43Z</time>
      </trkpt>
      <trkpt lat="44.98362" lon="6.50505">
        <ele>1617.07</ele>
        <time>2018-04-18T05:27:58Z</time>
      </trkpt>
      <trkpt lat="44.98363" lon="6.50502">
        <ele>1617.56</ele>
        <time>2018-04-18T05:28:15Z</time>
      </trkpt>
      <trkpt lat="44.98366" lon="6.50501">
        <ele>1617.56</ele>
        <time>2018-04-18T05:28:37Z</time>
      </trkpt>
      <trkpt lat="44.98371" lon="6.50499">
        <ele>1618.04</ele>
        <time>2018-04-18T05:28:50Z</time>
      </trkpt>
      <trkpt lat="44.98385" lon="6.50497">
        <ele>1618.52</ele>
        <time>2018-04-18T05:29:06Z</time>
      </trkpt>
      <trkpt lat="44.98395" lon="6.50495">
        <ele>1619.48</ele>
        <time>2018-04-18T05:29:19Z</time>
      </trkpt>
      <trkpt lat="44.98406" lon="6.50491">
        <ele>1619.96</ele>
        <time>2018-04-18T05:29:34Z</time>
      </trkpt>
      <trkpt lat="44.98417" lon="6.5049">
        <ele>1620.44</ele>
        <time>2018-04-18T05:29:47Z</time>
      </trkpt>
      <trkpt lat="44.98422" lon="6.50491">
        <ele>1620.92</ele>
        <time>2018-04-18T05:29:53Z</time>
      </trkpt>
      <trkpt lat="44.98428" lon="6.50501">
        <ele>1621.4</ele>
        <time>2018-04-18T05:30:08Z</time>
      </trkpt>
      <trkpt lat="44.98432" lon="6.50506">
        <ele>1621.4</ele>
        <time>2018-04-18T05:30:26Z</time>
      </trkpt>
      <trkpt lat="44.98433" lon="6.50511">
        <ele>1621.4</ele>
        <time>2018-04-18T05:30:48Z</time>
      </trkpt>
      <trkpt lat="44.98444" lon="6.50513">
        <ele>1621.4</ele>
        <time>2018-04-18T05:31:03Z</time>
      </trkpt>
      <trkpt lat="44.98449" lon="6.50519">
        <ele>1622.84</ele>
        <time>2018-04-18T05:31:16Z</time>
      </trkpt>
      <trkpt lat="44.98453" lon="6.50531">
        <ele>1624.77</ele>
        <time>2018-04-18T05:31:31Z</time>
      </trkpt>
      <trkpt lat="44.98456" lon="6.50543">
        <ele>1626.69</ele>
        <time>2018-04-18T05:31:47Z</time>
      </trkpt>
      <trkpt lat="44.98463" lon="6.50551">
        <ele>1628.61</ele>
        <time>2018-04-18T05:32:02Z</time>
      </trkpt>
      <trkpt lat="44.98472" lon="6.50539">
        <ele>1630.53</ele>
        <time>2018-04-18T05:32:16Z</time>
      </trkpt>
      <trkpt lat="44.98472" lon="6.50532">
        <ele>1631.49</ele>
        <time>2018-04-18T05:32:29Z</time>
      </trkpt>
      <trkpt lat="44.98476" lon="6.50516">
        <ele>1633.42</ele>
        <time>2018-04-18T05:32:45Z</time>
      </trkpt>
      <trkpt lat="44.98475" lon="6.5051">
        <ele>1634.38</ele>
        <time>2018-04-18T05:32:51Z</time>
      </trkpt>
      <trkpt lat="44.98475" lon="6.50496">
        <ele>1635.82</ele>
        <time>2018-04-18T05:33:07Z</time>
      </trkpt>
      <trkpt lat="44.98476" lon="6.50484">
        <ele>1637.74</ele>
        <time>2018-04-18T05:33:23Z</time>
      </trkpt>
      <trkpt lat="44.9848" lon="6.50481">
        <ele>1639.67</ele>
        <time>2018-04-18T05:33:39Z</time>
      </trkpt>
      <trkpt lat="44.98483" lon="6.50485">
        <ele>1642.07</ele>
        <time>2018-04-18T05:33:52Z</time>
      </trkpt>
      <trkpt lat="44.98487" lon="6.50494">
        <ele>1643.99</ele>
        <time>2018-04-18T05:34:05Z</time>
      </trkpt>
      <trkpt lat="44.98494" lon="6.50497">
        <ele>1645.91</ele>
        <time>2018-04-18T05:34:20Z</time>
      </trkpt>
      <trkpt lat="44.98498" lon="6.50483">
        <ele>1648.32</ele>
        <time>2018-04-18T05:34:34Z</time>
      </trkpt>
      <trkpt lat="44.98499" lon="6.50472">
        <ele>1650.24</ele>
        <time>2018-04-18T05:34:49Z</time>
      </trkpt>
      <trkpt lat="44.98496" lon="6.50462">
        <ele>1652.16</ele>
        <time>2018-04-18T05:35:04Z</time>
      </trkpt>
      <trkpt lat="44.98495" lon="6.50452">
        <ele>1654.09</ele>
        <time>2018-04-18T05:35:21Z</time>
      </trkpt>
      <trkpt lat="44.98493" lon="6.50445">
        <ele>1656.01</ele>
        <time>2018-04-18T05:35:36Z</time>
      </trkpt>
      <trkpt lat="44.98488" lon="6.50435">
        <ele>1657.93</ele>
        <time>2018-04-18T05:35:54Z</time>
      </trkpt>
      <trkpt lat="44.98482" lon="6.50432">
        <ele>1660.33</ele>
        <time>2018-04-18T05:36:08Z</time>
      </trkpt>
      <trkpt lat="44.98473" lon="6.50425">
        <ele>1662.74</ele>
        <time>2018-04-18T05:36:24Z</time>
      </trkpt>
      <trkpt lat="44.98473" lon="6.50415">
        <ele>1664.66</ele>
        <time>2018-04-18T05:36:38Z</time>
      </trkpt>
      <trkpt lat="44.98473" lon="6.50405">
        <ele>1666.58</ele>
        <time>2018-04-18T05:36:53Z</time>
      </trkpt>
      <trkpt lat="44.98471" lon="6.50395">
        <ele>1669.47</ele>
        <time>2018-04-18T05:37:09Z</time>
      </trkpt>
      <trkpt lat="44.98469" lon="6.50385">
        <ele>1671.87</ele>
        <time>2018-04-18T05:37:24Z</time>
      </trkpt>
      <trkpt lat="44.98475" lon="6.50372">
        <ele>1673.31</ele>
        <time>2018-04-18T05:37:40Z</time>
      </trkpt>
      <trkpt lat="44.98481" lon="6.50365">
        <ele>1675.23</ele>
        <time>2018-04-18T05:37:52Z</time>
      </trkpt>
      <trkpt lat="44.98486" lon="6.50357">
        <ele>1677.16</ele>
        <time>2018-04-18T05:38:06Z</time>
      </trkpt>
      <trkpt lat="44.9849" lon="6.50344">
        <ele>1679.56</ele>
        <time>2018-04-18T05:38:21Z</time>
      </trkpt>
      <trkpt lat="44.98493" lon="6.5033">
        <ele>1680.04</ele>
        <time>2018-04-18T05:38:36Z</time>
      </trkpt>
      <trkpt lat="44.98494" lon="6.50325">
        <ele>1679.56</ele>
        <time>2018-04-18T05:38:41Z</time>
      </trkpt>
      <trkpt lat="44.98485" lon="6.50313">
        <ele>1680.04</ele>
        <time>2018-04-18T05:38:54Z</time>
      </trkpt>
      <trkpt lat="44.98481" lon="6.50302">
        <ele>1681.48</ele>
        <time>2018-04-18T05:39:06Z</time>
      </trkpt>
      <trkpt lat="44.98479" lon="6.50286">
        <ele>1682.93</ele>
        <time>2018-04-18T05:39:21Z</time>
      </trkpt>
      <trkpt lat="44.98482" lon="6.50272">
        <ele>1685.81</ele>
        <time>2018-04-18T05:39:36Z</time>
      </trkpt>
      <trkpt lat="44.98485" lon="6.50257">
        <ele>1688.21</ele>
        <time>2018-04-18T05:39:51Z</time>
      </trkpt>
      <trkpt lat="44.98486" lon="6.50242">
        <ele>1690.14</ele>
        <time>2018-04-18T05:40:07Z</time>
      </trkpt>
      <trkpt lat="44.98485" lon="6.50226">
        <ele>1691.58</ele>
        <time>2018-04-18T05:40:24Z</time>
      </trkpt>
      <trkpt lat="44.98483" lon="6.50214">
        <ele>1692.54</ele>
        <time>2018-04-18T05:40:37Z</time>
      </trkpt>
      <trkpt lat="44.98485" lon="6.50201">
        <ele>1694.46</ele>
        <time>2018-04-18T05:40:51Z</time>
      </trkpt>
      <trkpt lat="44.98487" lon="6.50185">
        <ele>1695.9</ele>
        <time>2018-04-18T05:41:06Z</time>
      </trkpt>
      <trkpt lat="44.98492" lon="6.5017">
        <ele>1697.34</ele>
        <time>2018-04-18T05:41:23Z</time>
      </trkpt>
      <trkpt lat="44.98497" lon="6.5016">
        <ele>1699.75</ele>
        <time>2018-04-18T05:41:40Z</time>
      </trkpt>
      <trkpt lat="44.98499" lon="6.50149">
        <ele>1700.71</ele>
        <time>2018-04-18T05:41:52Z</time>
      </trkpt>
      <trkpt lat="44.98506" lon="6.50141">
        <ele>1702.15</ele>
        <time>2018-04-18T05:42:07Z</time>
      </trkpt>
      <trkpt lat="44.98511" lon="6.50135">
        <ele>1704.07</ele>
        <time>2018-04-18T05:42:21Z</time>
      </trkpt>
      <trkpt lat="44.98508" lon="6.50125">
        <ele>1704.55</ele>
        <time>2018-04-18T05:42:35Z</time>
      </trkpt>
      <trkpt lat="44.98505" lon="6.50126">
        <ele>1704.55</ele>
        <time>2018-04-18T05:42:55Z</time>
      </trkpt>
      <trkpt lat="44.98499" lon="6.5012">
        <ele>1704.55</ele>
        <time>2018-04-18T05:43:12Z</time>
      </trkpt>
      <trkpt lat="44.98491" lon="6.50118">
        <ele>1706</ele>
        <time>2018-04-18T05:43:28Z</time>
      </trkpt>
      <trkpt lat="44.98486" lon="6.50115">
        <ele>1707.44</ele>
        <time>2018-04-18T05:43:39Z</time>
      </trkpt>
      <trkpt lat="44.98489" lon="6.50106">
        <ele>1709.84</ele>
        <time>2018-04-18T05:43:55Z</time>
      </trkpt>
      <trkpt lat="44.98494" lon="6.50097">
        <ele>1711.28</ele>
        <time>2018-04-18T05:44:09Z</time>
      </trkpt>
      <trkpt lat="44.98498" lon="6.50086">
        <ele>1713.21</ele>
        <time>2018-04-18T05:44:24Z</time>
      </trkpt>
      <trkpt lat="44.98504" lon="6.50077">
        <ele>1715.13</ele>
        <time>2018-04-18T05:44:39Z</time>
      </trkpt>
      <trkpt lat="44.98508" lon="6.50062">
        <ele>1717.05</ele>
        <time>2018-04-18T05:44:55Z</time>
      </trkpt>
      <trkpt lat="44.9851" lon="6.50048">
        <ele>1718.97</ele>
        <time>2018-04-18T05:45:10Z</time>
      </trkpt>
      <trkpt lat="44.98514" lon="6.50036">
        <ele>1721.38</ele>
        <time>2018-04-18T05:45:27Z</time>
      </trkpt>
      <trkpt lat="44.98519" lon="6.50029">
        <ele>1722.82</ele>
        <time>2018-04-18T05:45:40Z</time>
      </trkpt>
      <trkpt lat="44.98523" lon="6.50023">
        <ele>1725.22</ele>
        <time>2018-04-18T05:45:54Z</time>
      </trkpt>
      <trkpt lat="44.98529" lon="6.50013">
        <ele>1727.15</ele>
        <time>2018-04-18T05:46:09Z</time>
      </trkpt>
      <trkpt lat="44.98535" lon="6.50003">
        <ele>1729.07</ele>
        <time>2018-04-18T05:46:25Z</time>
      </trkpt>
      <trkpt lat="44.9854" lon="6.49995">
        <ele>1730.51</ele>
        <time>2018-04-18T05:46:37Z</time>
      </trkpt>
      <trkpt lat="44.98545" lon="6.49984">
        <ele>1732.43</ele>
        <time>2018-04-18T05:46:52Z</time>
      </trkpt>
      <trkpt lat="44.98553" lon="6.49974">
        <ele>1734.36</ele>
        <time>2018-04-18T05:47:08Z</time>
      </trkpt>
      <trkpt lat="44.98558" lon="6.4998">
        <ele>1735.8</ele>
        <time>2018-04-18T05:47:19Z</time>
      </trkpt>
      <trkpt lat="44.98561" lon="6.49987">
        <ele>1736.76</ele>
        <time>2018-04-18T05:47:32Z</time>
      </trkpt>
      <trkpt lat="44.98569" lon="6.49982">
        <ele>1737.72</ele>
        <time>2018-04-18T05:47:46Z</time>
      </trkpt>
      <trkpt lat="44.98571" lon="6.49985">
        <ele>1737.24</ele>
        <time>2018-04-18T05:48:04Z</time>
      </trkpt>
      <trkpt lat="44.9857" lon="6.49982">
        <ele>1737.24</ele>
        <time>2018-04-18T05:48:36Z</time>
      </trkpt>
      <trkpt lat="44.98569" lon="6.49982">
        <ele>1737.24</ele>
        <time>2018-04-18T05:48:39Z</time>
      </trkpt>
      <trkpt lat="44.98568" lon="6.49982">
        <ele>1737.72</ele>
        <time>2018-04-18T05:48:53Z</time>
      </trkpt>
      <trkpt lat="44.98568" lon="6.49983">
        <ele>1738.2</ele>
        <time>2018-04-18T05:49:23Z</time>
      </trkpt>
      <trkpt lat="44.9857" lon="6.49986">
        <ele>1737.72</ele>
        <time>2018-04-18T05:49:44Z</time>
      </trkpt>
      <trkpt lat="44.9857" lon="6.49985">
        <ele>1738.2</ele>
        <time>2018-04-18T05:49:59Z</time>
      </trkpt>
      <trkpt lat="44.9857" lon="6.49984">
        <ele>1738.2</ele>
        <time>2018-04-18T05:50:26Z</time>
      </trkpt>
      <trkpt lat="44.98571" lon="6.49981">
        <ele>1738.2</ele>
        <time>2018-04-18T05:50:50Z</time>
      </trkpt>
      <trkpt lat="44.98571" lon="6.49985">
        <ele>1738.2</ele>
        <time>2018-04-18T05:51:12Z</time>
      </trkpt>
      <trkpt lat="44.9857" lon="6.49984">
        <ele>1738.2</ele>
        <time>2018-04-18T05:51:42Z</time>
      </trkpt>
      <trkpt lat="44.98572" lon="6.49983">
        <ele>1738.2</ele>
        <time>2018-04-18T05:52:08Z</time>
      </trkpt>
      <trkpt lat="44.98574" lon="6.49977">
        <ele>1738.68</ele>
        <time>2018-04-18T05:52:24Z</time>
      </trkpt>
      <trkpt lat="44.98574" lon="6.49965">
        <ele>1740.12</ele>
        <time>2018-04-18T05:52:37Z</time>
      </trkpt>
      <trkpt lat="44.98573" lon="6.49959">
        <ele>1740.6</ele>
        <time>2018-04-18T05:52:51Z</time>
      </trkpt>
      <trkpt lat="44.98576" lon="6.49965">
        <ele>1741.08</ele>
        <time>2018-04-18T05:53:10Z</time>
      </trkpt>
      <trkpt lat="44.98581" lon="6.49969">
        <ele>1741.57</ele>
        <time>2018-04-18T05:53:26Z</time>
      </trkpt>
      <trkpt lat="44.98585" lon="6.49974">
        <ele>1741.57</ele>
        <time>2018-04-18T05:53:39Z</time>
      </trkpt>
      <trkpt lat="44.98593" lon="6.49971">
        <ele>1743.01</ele>
        <time>2018-04-18T05:53:53Z</time>
      </trkpt>
      <trkpt lat="44.98591" lon="6.49973">
        <ele>1743.01</ele>
        <time>2018-04-18T05:54:23Z</time>
      </trkpt>
      <trkpt lat="44.98594" lon="6.49975">
        <ele>1743.01</ele>
        <time>2018-04-18T05:54:43Z</time>
      </trkpt>
      <trkpt lat="44.98601" lon="6.4998">
        <ele>1743.97</ele>
        <time>2018-04-18T05:54:56Z</time>
      </trkpt>
      <trkpt lat="44.98609" lon="6.49978">
        <ele>1745.89</ele>
        <time>2018-04-18T05:55:14Z</time>
      </trkpt>
      <trkpt lat="44.98615" lon="6.49978">
        <ele>1746.85</ele>
        <time>2018-04-18T05:55:29Z</time>
      </trkpt>
      <trkpt lat="44.98622" lon="6.49974">
        <ele>1748.78</ele>
        <time>2018-04-18T05:55:43Z</time>
      </trkpt>
      <trkpt lat="44.98629" lon="6.49974">
        <ele>1750.7</ele>
        <time>2018-04-18T05:55:58Z</time>
      </trkpt>
      <trkpt lat="44.9864" lon="6.49974">
        <ele>1753.1</ele>
        <time>2018-04-18T05:56:16Z</time>
      </trkpt>
      <trkpt lat="44.98651" lon="6.49973">
        <ele>1755.02</ele>
        <time>2018-04-18T05:56:35Z</time>
      </trkpt>
      <trkpt lat="44.98656" lon="6.49971">
        <ele>1756.47</ele>
        <time>2018-04-18T05:56:51Z</time>
      </trkpt>
      <trkpt lat="44.98663" lon="6.49973">
        <ele>1758.87</ele>
        <time>2018-04-18T05:57:10Z</time>
      </trkpt>
      <trkpt lat="44.98671" lon="6.49973">
        <ele>1760.79</ele>
        <time>2018-04-18T05:57:25Z</time>
      </trkpt>
      <trkpt lat="44.9868" lon="6.49972">
        <ele>1763.2</ele>
        <time>2018-04-18T05:57:44Z</time>
      </trkpt>
      <trkpt lat="44.98686" lon="6.49974">
        <ele>1765.6</ele>
        <time>2018-04-18T05:57:59Z</time>
      </trkpt>
      <trkpt lat="44.98693" lon="6.49972">
        <ele>1768.48</ele>
        <time>2018-04-18T05:58:18Z</time>
      </trkpt>
      <trkpt lat="44.98699" lon="6.4997">
        <ele>1770.41</ele>
        <time>2018-04-18T05:58:32Z</time>
      </trkpt>
      <trkpt lat="44.98707" lon="6.49969">
        <ele>1773.29</ele>
        <time>2018-04-18T05:58:50Z</time>
      </trkpt>
      <trkpt lat="44.98714" lon="6.49968">
        <ele>1775.21</ele>
        <time>2018-04-18T05:59:06Z</time>
      </trkpt>
      <trkpt lat="44.98722" lon="6.49968">
        <ele>1777.61</ele>
        <time>2018-04-18T05:59:26Z</time>
      </trkpt>
      <trkpt lat="44.98729" lon="6.49964">
        <ele>1780.5</ele>
        <time>2018-04-18T05:59:42Z</time>
      </trkpt>
      <trkpt lat="44.98736" lon="6.49963">
        <ele>1782.42</ele>
        <time>2018-04-18T05:59:59Z</time>
      </trkpt>
      <trkpt lat="44.98745" lon="6.49959">
        <ele>1784.34</ele>
        <time>2018-04-18T06:00:16Z</time>
      </trkpt>
      <trkpt lat="44.98752" lon="6.49954">
        <ele>1786.27</ele>
        <time>2018-04-18T06:00:30Z</time>
      </trkpt>
      <trkpt lat="44.98754" lon="6.49952">
        <ele>1787.23</ele>
        <time>2018-04-18T06:00:44Z</time>
      </trkpt>
      <trkpt lat="44.98755" lon="6.49956">
        <ele>1788.19</ele>
        <time>2018-04-18T06:01:02Z</time>
      </trkpt>
      <trkpt lat="44.98758" lon="6.49954">
        <ele>1789.15</ele>
        <time>2018-04-18T06:01:24Z</time>
      </trkpt>
      <trkpt lat="44.98762" lon="6.49949">
        <ele>1789.63</ele>
        <time>2018-04-18T06:01:37Z</time>
      </trkpt>
      <trkpt lat="44.98766" lon="6.49951">
        <ele>1791.07</ele>
        <time>2018-04-18T06:01:50Z</time>
      </trkpt>
      <trkpt lat="44.98773" lon="6.49949">
        <ele>1793.48</ele>
        <time>2018-04-18T06:02:04Z</time>
      </trkpt>
      <trkpt lat="44.98779" lon="6.49942">
        <ele>1795.88</ele>
        <time>2018-04-18T06:02:20Z</time>
      </trkpt>
      <trkpt lat="44.98786" lon="6.49938">
        <ele>1798.28</ele>
        <time>2018-04-18T06:02:37Z</time>
      </trkpt>
      <trkpt lat="44.98792" lon="6.49933">
        <ele>1800.21</ele>
        <time>2018-04-18T06:02:50Z</time>
      </trkpt>
      <trkpt lat="44.98799" lon="6.49931">
        <ele>1802.13</ele>
        <time>2018-04-18T06:03:06Z</time>
      </trkpt>
      <trkpt lat="44.98809" lon="6.49927">
        <ele>1805.01</ele>
        <time>2018-04-18T06:03:27Z</time>
      </trkpt>
      <trkpt lat="44.98812" lon="6.49926">
        <ele>1806.45</ele>
        <time>2018-04-18T06:03:45Z</time>
      </trkpt>
      <trkpt lat="44.98813" lon="6.49925">
        <ele>1806.45</ele>
        <time>2018-04-18T06:04:04Z</time>
      </trkpt>
      <trkpt lat="44.9882" lon="6.49928">
        <ele>1807.9</ele>
        <time>2018-04-18T06:04:18Z</time>
      </trkpt>
      <trkpt lat="44.98824" lon="6.49928">
        <ele>1808.38</ele>
        <time>2018-04-18T06:04:34Z</time>
      </trkpt>
      <trkpt lat="44.98827" lon="6.49928">
        <ele>1809.34</ele>
        <time>2018-04-18T06:04:45Z</time>
      </trkpt>
      <trkpt lat="44.98836" lon="6.49928">
        <ele>1812.22</ele>
        <time>2018-04-18T06:05:04Z</time>
      </trkpt>
      <trkpt lat="44.98844" lon="6.49927">
        <ele>1814.63</ele>
        <time>2018-04-18T06:05:19Z</time>
      </trkpt>
      <trkpt lat="44.98851" lon="6.49927">
        <ele>1816.55</ele>
        <time>2018-04-18T06:05:35Z</time>
      </trkpt>
      <trkpt lat="44.9886" lon="6.49929">
        <ele>1817.99</ele>
        <time>2018-04-18T06:05:52Z</time>
      </trkpt>
      <trkpt lat="44.98869" lon="6.49931">
        <ele>1820.39</ele>
        <time>2018-04-18T06:06:08Z</time>
      </trkpt>
      <trkpt lat="44.98876" lon="6.49932">
        <ele>1822.32</ele>
        <time>2018-04-18T06:06:21Z</time>
      </trkpt>
      <trkpt lat="44.98881" lon="6.49931">
        <ele>1824.72</ele>
        <time>2018-04-18T06:06:35Z</time>
      </trkpt>
      <trkpt lat="44.98886" lon="6.49933">
        <ele>1827.6</ele>
        <time>2018-04-18T06:06:52Z</time>
      </trkpt>
      <trkpt lat="44.98889" lon="6.49936">
        <ele>1829.05</ele>
        <time>2018-04-18T06:07:07Z</time>
      </trkpt>
      <trkpt lat="44.98894" lon="6.49945">
        <ele>1830.97</ele>
        <time>2018-04-18T06:07:20Z</time>
      </trkpt>
      <trkpt lat="44.98903" lon="6.49946">
        <ele>1833.37</ele>
        <time>2018-04-18T06:07:39Z</time>
      </trkpt>
      <trkpt lat="44.98907" lon="6.49946">
        <ele>1835.29</ele>
        <time>2018-04-18T06:07:54Z</time>
      </trkpt>
      <trkpt lat="44.98912" lon="6.49941">
        <ele>1836.74</ele>
        <time>2018-04-18T06:08:08Z</time>
      </trkpt>
      <trkpt lat="44.98918" lon="6.49943">
        <ele>1838.66</ele>
        <time>2018-04-18T06:08:24Z</time>
      </trkpt>
      <trkpt lat="44.98922" lon="6.49937">
        <ele>1840.58</ele>
        <time>2018-04-18T06:08:38Z</time>
      </trkpt>
      <trkpt lat="44.98928" lon="6.49937">
        <ele>1842.98</ele>
        <time>2018-04-18T06:08:54Z</time>
      </trkpt>
      <trkpt lat="44.98933" lon="6.4994">
        <ele>1844.91</ele>
        <time>2018-04-18T06:09:09Z</time>
      </trkpt>
      <trkpt lat="44.98938" lon="6.49941">
        <ele>1846.83</ele>
        <time>2018-04-18T06:09:24Z</time>
      </trkpt>
      <trkpt lat="44.98944" lon="6.49942">
        <ele>1849.23</ele>
        <time>2018-04-18T06:09:41Z</time>
      </trkpt>
      <trkpt lat="44.9895" lon="6.49938">
        <ele>1851.64</ele>
        <time>2018-04-18T06:09:56Z</time>
      </trkpt>
      <trkpt lat="44.98958" lon="6.49939">
        <ele>1854.04</ele>
        <time>2018-04-18T06:10:14Z</time>
      </trkpt>
      <trkpt lat="44.98963" lon="6.49938">
        <ele>1855.96</ele>
        <time>2018-04-18T06:10:30Z</time>
      </trkpt>
      <trkpt lat="44.9897" lon="6.49938">
        <ele>1859.33</ele>
        <time>2018-04-18T06:10:44Z</time>
      </trkpt>
      <trkpt lat="44.98973" lon="6.49937">
        <ele>1859.33</ele>
        <time>2018-04-18T06:11:02Z</time>
      </trkpt>
      <trkpt lat="44.98972" lon="6.49937">
        <ele>1858.85</ele>
        <time>2018-04-18T06:11:25Z</time>
      </trkpt>
      <trkpt lat="44.98972" lon="6.49937">
        <ele>1858.37</ele>
        <time>2018-04-18T06:11:45Z</time>
      </trkpt>
      <trkpt lat="44.98972" lon="6.49937">
        <ele>1858.37</ele>
        <time>2018-04-18T06:12:11Z</time>
      </trkpt>
      <trkpt lat="44.98973" lon="6.49937">
        <ele>1858.37</ele>
        <time>2018-04-18T06:12:35Z</time>
      </trkpt>
      <trkpt lat="44.98973" lon="6.49937">
        <ele>1858.85</ele>
        <time>2018-04-18T06:13:01Z</time>
      </trkpt>
      <trkpt lat="44.98974" lon="6.49938">
        <ele>1859.33</ele>
        <time>2018-04-18T06:13:16Z</time>
      </trkpt>
      <trkpt lat="44.98974" lon="6.49938">
        <ele>1858.85</ele>
        <time>2018-04-18T06:13:39Z</time>
      </trkpt>
      <trkpt lat="44.98974" lon="6.49939">
        <ele>1859.33</ele>
        <time>2018-04-18T06:14:00Z</time>
      </trkpt>
      <trkpt lat="44.98976" lon="6.49937">
        <ele>1860.29</ele>
        <time>2018-04-18T06:14:15Z</time>
      </trkpt>
      <trkpt lat="44.98983" lon="6.49935">
        <ele>1861.73</ele>
        <time>2018-04-18T06:14:28Z</time>
      </trkpt>
      <trkpt lat="44.98989" lon="6.49933">
        <ele>1864.13</ele>
        <time>2018-04-18T06:14:42Z</time>
      </trkpt>
      <trkpt lat="44.98994" lon="6.49931">
        <ele>1865.58</ele>
        <time>2018-04-18T06:14:55Z</time>
      </trkpt>
      <trkpt lat="44.98998" lon="6.49931">
        <ele>1867.02</ele>
        <time>2018-04-18T06:15:06Z</time>
      </trkpt>
      <trkpt lat="44.99004" lon="6.49927">
        <ele>1868.94</ele>
        <time>2018-04-18T06:15:20Z</time>
      </trkpt>
      <trkpt lat="44.9901" lon="6.49926">
        <ele>1870.86</ele>
        <time>2018-04-18T06:15:35Z</time>
      </trkpt>
      <trkpt lat="44.99014" lon="6.49924">
        <ele>1872.3</ele>
        <time>2018-04-18T06:15:47Z</time>
      </trkpt>
      <trkpt lat="44.99019" lon="6.49921">
        <ele>1874.23</ele>
        <time>2018-04-18T06:15:58Z</time>
      </trkpt>
      <trkpt lat="44.99023" lon="6.49918">
        <ele>1875.67</ele>
        <time>2018-04-18T06:16:12Z</time>
      </trkpt>
      <trkpt lat="44.9903" lon="6.49913">
        <ele>1878.07</ele>
        <time>2018-04-18T06:16:30Z</time>
      </trkpt>
      <trkpt lat="44.99034" lon="6.4991">
        <ele>1880.48</ele>
        <time>2018-04-18T06:16:47Z</time>
      </trkpt>
      <trkpt lat="44.99042" lon="6.49906">
        <ele>1882.4</ele>
        <time>2018-04-18T06:17:03Z</time>
      </trkpt>
      <trkpt lat="44.99046" lon="6.49903">
        <ele>1884.32</ele>
        <time>2018-04-18T06:17:17Z</time>
      </trkpt>
      <trkpt lat="44.99051" lon="6.49898">
        <ele>1885.76</ele>
        <time>2018-04-18T06:17:29Z</time>
      </trkpt>
      <trkpt lat="44.99054" lon="6.49898">
        <ele>1887.69</ele>
        <time>2018-04-18T06:17:40Z</time>
      </trkpt>
      <trkpt lat="44.99061" lon="6.49897">
        <ele>1889.61</ele>
        <time>2018-04-18T06:17:54Z</time>
      </trkpt>
      <trkpt lat="44.99065" lon="6.49896">
        <ele>1892.01</ele>
        <time>2018-04-18T06:18:10Z</time>
      </trkpt>
      <trkpt lat="44.99072" lon="6.4989">
        <ele>1893.93</ele>
        <time>2018-04-18T06:18:26Z</time>
      </trkpt>
      <trkpt lat="44.99077" lon="6.49889">
        <ele>1896.82</ele>
        <time>2018-04-18T06:18:44Z</time>
      </trkpt>
      <trkpt lat="44.99084" lon="6.49888">
        <ele>1899.7</ele>
        <time>2018-04-18T06:19:02Z</time>
      </trkpt>
      <trkpt lat="44.99088" lon="6.49888">
        <ele>1901.63</ele>
        <time>2018-04-18T06:19:16Z</time>
      </trkpt>
      <trkpt lat="44.99092" lon="6.49888">
        <ele>1903.55</ele>
        <time>2018-04-18T06:19:29Z</time>
      </trkpt>
      <trkpt lat="44.99097" lon="6.49888">
        <ele>1905.47</ele>
        <time>2018-04-18T06:19:43Z</time>
      </trkpt>
      <trkpt lat="44.99102" lon="6.49887">
        <ele>1907.39</ele>
        <time>2018-04-18T06:19:56Z</time>
      </trkpt>
      <trkpt lat="44.99106" lon="6.49889">
        <ele>1909.8</ele>
        <time>2018-04-18T06:20:10Z</time>
      </trkpt>
      <trkpt lat="44.99109" lon="6.4989">
        <ele>1911.24</ele>
        <time>2018-04-18T06:20:22Z</time>
      </trkpt>
      <trkpt lat="44.99114" lon="6.49892">
        <ele>1913.64</ele>
        <time>2018-04-18T06:20:37Z</time>
      </trkpt>
      <trkpt lat="44.9912" lon="6.49892">
        <ele>1915.08</ele>
        <time>2018-04-18T06:20:49Z</time>
      </trkpt>
      <trkpt lat="44.99127" lon="6.49891">
        <ele>1917.49</ele>
        <time>2018-04-18T06:21:03Z</time>
      </trkpt>
      <trkpt lat="44.9913" lon="6.49891">
        <ele>1919.41</ele>
        <time>2018-04-18T06:21:17Z</time>
      </trkpt>
      <trkpt lat="44.99134" lon="6.49892">
        <ele>1921.33</ele>
        <time>2018-04-18T06:21:30Z</time>
      </trkpt>
      <trkpt lat="44.99138" lon="6.49893">
        <ele>1923.25</ele>
        <time>2018-04-18T06:21:42Z</time>
      </trkpt>
      <trkpt lat="44.99142" lon="6.49891">
        <ele>1925.18</ele>
        <time>2018-04-18T06:21:55Z</time>
      </trkpt>
      <trkpt lat="44.99148" lon="6.4989">
        <ele>1927.1</ele>
        <time>2018-04-18T06:22:11Z</time>
      </trkpt>
      <trkpt lat="44.99152" lon="6.49893">
        <ele>1929.5</ele>
        <time>2018-04-18T06:22:24Z</time>
      </trkpt>
      <trkpt lat="44.99156" lon="6.49892">
        <ele>1931.43</ele>
        <time>2018-04-18T06:22:38Z</time>
      </trkpt>
      <trkpt lat="44.9916" lon="6.49892">
        <ele>1934.79</ele>
        <time>2018-04-18T06:22:51Z</time>
      </trkpt>
      <trkpt lat="44.99165" lon="6.49891">
        <ele>1935.27</ele>
        <time>2018-04-18T06:23:04Z</time>
      </trkpt>
      <trkpt lat="44.99168" lon="6.49891">
        <ele>1936.71</ele>
        <time>2018-04-18T06:23:16Z</time>
      </trkpt>
      <trkpt lat="44.99172" lon="6.49892">
        <ele>1939.12</ele>
        <time>2018-04-18T06:23:30Z</time>
      </trkpt>
      <trkpt lat="44.99177" lon="6.49893">
        <ele>1941.04</ele>
        <time>2018-04-18T06:23:44Z</time>
      </trkpt>
      <trkpt lat="44.99183" lon="6.49892">
        <ele>1943.44</ele>
        <time>2018-04-18T06:24:00Z</time>
      </trkpt>
      <trkpt lat="44.99189" lon="6.49893">
        <ele>1945.85</ele>
        <time>2018-04-18T06:24:16Z</time>
      </trkpt>
      <trkpt lat="44.99194" lon="6.49891">
        <ele>1947.77</ele>
        <time>2018-04-18T06:24:30Z</time>
      </trkpt>
      <trkpt lat="44.99199" lon="6.49889">
        <ele>1949.69</ele>
        <time>2018-04-18T06:24:43Z</time>
      </trkpt>
      <trkpt lat="44.99206" lon="6.49889">
        <ele>1952.09</ele>
        <time>2018-04-18T06:25:02Z</time>
      </trkpt>
      <trkpt lat="44.99213" lon="6.49888">
        <ele>1954.5</ele>
        <time>2018-04-18T06:25:21Z</time>
      </trkpt>
      <trkpt lat="44.99219" lon="6.49888">
        <ele>1956.42</ele>
        <time>2018-04-18T06:25:38Z</time>
      </trkpt>
      <trkpt lat="44.99224" lon="6.49887">
        <ele>1958.82</ele>
        <time>2018-04-18T06:25:53Z</time>
      </trkpt>
      <trkpt lat="44.99231" lon="6.49886">
        <ele>1960.75</ele>
        <time>2018-04-18T06:26:08Z</time>
      </trkpt>
      <trkpt lat="44.99238" lon="6.49883">
        <ele>1963.63</ele>
        <time>2018-04-18T06:26:30Z</time>
      </trkpt>
      <trkpt lat="44.99247" lon="6.49879">
        <ele>1966.51</ele>
        <time>2018-04-18T06:26:52Z</time>
      </trkpt>
      <trkpt lat="44.99254" lon="6.49876">
        <ele>1968.44</ele>
        <time>2018-04-18T06:27:06Z</time>
      </trkpt>
      <trkpt lat="44.99261" lon="6.49874">
        <ele>1970.84</ele>
        <time>2018-04-18T06:27:26Z</time>
      </trkpt>
      <trkpt lat="44.99267" lon="6.49871">
        <ele>1973.72</ele>
        <time>2018-04-18T06:27:40Z</time>
      </trkpt>
      <trkpt lat="44.99273" lon="6.4987">
        <ele>1975.17</ele>
        <time>2018-04-18T06:27:55Z</time>
      </trkpt>
      <trkpt lat="44.99281" lon="6.49866">
        <ele>1977.57</ele>
        <time>2018-04-18T06:28:17Z</time>
      </trkpt>
      <trkpt lat="44.99288" lon="6.49864">
        <ele>1979.97</ele>
        <time>2018-04-18T06:28:34Z</time>
      </trkpt>
      <trkpt lat="44.99294" lon="6.49862">
        <ele>1981.9</ele>
        <time>2018-04-18T06:28:50Z</time>
      </trkpt>
      <trkpt lat="44.99302" lon="6.49859">
        <ele>1984.78</ele>
        <time>2018-04-18T06:29:10Z</time>
      </trkpt>
      <trkpt lat="44.99311" lon="6.49855">
        <ele>1986.7</ele>
        <time>2018-04-18T06:29:29Z</time>
      </trkpt>
      <trkpt lat="44.99318" lon="6.49853">
        <ele>1989.1</ele>
        <time>2018-04-18T06:29:45Z</time>
      </trkpt>
      <trkpt lat="44.99324" lon="6.49851">
        <ele>1991.03</ele>
        <time>2018-04-18T06:29:59Z</time>
      </trkpt>
      <trkpt lat="44.9933" lon="6.49848">
        <ele>1992.95</ele>
        <time>2018-04-18T06:30:15Z</time>
      </trkpt>
      <trkpt lat="44.99338" lon="6.49844">
        <ele>1995.83</ele>
        <time>2018-04-18T06:30:36Z</time>
      </trkpt>
      <trkpt lat="44.99344" lon="6.49842">
        <ele>1998.24</ele>
        <time>2018-04-18T06:30:51Z</time>
      </trkpt>
      <trkpt lat="44.99351" lon="6.4984">
        <ele>2000.16</ele>
        <time>2018-04-18T06:31:10Z</time>
      </trkpt>
      <trkpt lat="44.99356" lon="6.49837">
        <ele>2002.08</ele>
        <time>2018-04-18T06:31:28Z</time>
      </trkpt>
      <trkpt lat="44.99364" lon="6.49833">
        <ele>2004.01</ele>
        <time>2018-04-18T06:31:44Z</time>
      </trkpt>
      <trkpt lat="44.99371" lon="6.4983">
        <ele>2006.41</ele>
        <time>2018-04-18T06:32:02Z</time>
      </trkpt>
      <trkpt lat="44.99378" lon="6.49827">
        <ele>2009.77</ele>
        <time>2018-04-18T06:32:23Z</time>
      </trkpt>
      <trkpt lat="44.99386" lon="6.49824">
        <ele>2011.7</ele>
        <time>2018-04-18T06:32:41Z</time>
      </trkpt>
      <trkpt lat="44.99392" lon="6.49821">
        <ele>2015.54</ele>
        <time>2018-04-18T06:32:56Z</time>
      </trkpt>
      <trkpt lat="44.99399" lon="6.4982">
        <ele>2016.02</ele>
        <time>2018-04-18T06:33:11Z</time>
      </trkpt>
      <trkpt lat="44.99405" lon="6.49817">
        <ele>2017.94</ele>
        <time>2018-04-18T06:33:27Z</time>
      </trkpt>
      <trkpt lat="44.99412" lon="6.49813">
        <ele>2019.87</ele>
        <time>2018-04-18T06:33:41Z</time>
      </trkpt>
      <trkpt lat="44.99418" lon="6.49811">
        <ele>2021.79</ele>
        <time>2018-04-18T06:34:01Z</time>
      </trkpt>
      <trkpt lat="44.99423" lon="6.49806">
        <ele>2023.23</ele>
        <time>2018-04-18T06:34:13Z</time>
      </trkpt>
      <trkpt lat="44.9943" lon="6.49802">
        <ele>2025.64</ele>
        <time>2018-04-18T06:34:33Z</time>
      </trkpt>
      <trkpt lat="44.99438" lon="6.49797">
        <ele>2028.04</ele>
        <time>2018-04-18T06:34:50Z</time>
      </trkpt>
      <trkpt lat="44.99445" lon="6.49798">
        <ele>2030.92</ele>
        <time>2018-04-18T06:35:11Z</time>
      </trkpt>
      <trkpt lat="44.99446" lon="6.49796">
        <ele>2029.48</ele>
        <time>2018-04-18T06:35:28Z</time>
      </trkpt>
      <trkpt lat="44.99447" lon="6.49794">
        <ele>2029.96</ele>
        <time>2018-04-18T06:36:00Z</time>
      </trkpt>
      <trkpt lat="44.99447" lon="6.49798">
        <ele>2029.96</ele>
        <time>2018-04-18T06:36:21Z</time>
      </trkpt>
      <trkpt lat="44.99446" lon="6.49795">
        <ele>2030.44</ele>
        <time>2018-04-18T06:36:57Z</time>
      </trkpt>
      <trkpt lat="44.99446" lon="6.49795">
        <ele>2030.44</ele>
        <time>2018-04-18T06:37:32Z</time>
      </trkpt>
      <trkpt lat="44.99446" lon="6.49795">
        <ele>2030.92</ele>
        <time>2018-04-18T06:38:21Z</time>
      </trkpt>
      <trkpt lat="44.99448" lon="6.49795">
        <ele>2031.88</ele>
        <time>2018-04-18T06:38:41Z</time>
      </trkpt>
      <trkpt lat="44.99447" lon="6.49796">
        <ele>2031.88</ele>
        <time>2018-04-18T06:39:03Z</time>
      </trkpt>
      <trkpt lat="44.99446" lon="6.49795">
        <ele>2031.88</ele>
        <time>2018-04-18T06:39:08Z</time>
      </trkpt>
      <trkpt lat="44.99445" lon="6.49796">
        <ele>2032.36</ele>
        <time>2018-04-18T06:39:15Z</time>
      </trkpt>
      <trkpt lat="44.99446" lon="6.49796">
        <ele>2032.36</ele>
        <time>2018-04-18T06:39:36Z</time>
      </trkpt>
      <trkpt lat="44.99445" lon="6.49798">
        <ele>2031.88</ele>
        <time>2018-04-18T06:39:49Z</time>
      </trkpt>
      <trkpt lat="44.99445" lon="6.49797">
        <ele>2031.88</ele>
        <time>2018-04-18T06:40:11Z</time>
      </trkpt>
      <trkpt lat="44.99446" lon="6.49796">
        <ele>2032.36</ele>
        <time>2018-04-18T06:40:25Z</time>
      </trkpt>
      <trkpt lat="44.99448" lon="6.49796">
        <ele>2032.36</ele>
        <time>2018-04-18T06:40:45Z</time>
      </trkpt>
      <trkpt lat="44.99446" lon="6.49797">
        <ele>2033.81</ele>
        <time>2018-04-18T06:41:00Z</time>
      </trkpt>
      <trkpt lat="44.99447" lon="6.49797">
        <ele>2032.36</ele>
        <time>2018-04-18T06:41:18Z</time>
      </trkpt>
      <trkpt lat="44.99446" lon="6.49795">
        <ele>2031.88</ele>
        <time>2018-04-18T06:41:35Z</time>
      </trkpt>
      <trkpt lat="44.99446" lon="6.49798">
        <ele>2032.36</ele>
        <time>2018-04-18T06:41:48Z</time>
      </trkpt>
      <trkpt lat="44.99447" lon="6.49798">
        <ele>2032.84</ele>
        <time>2018-04-18T06:42:01Z</time>
      </trkpt>
      <trkpt lat="44.99447" lon="6.49798">
        <ele>2035.25</ele>
        <time>2018-04-18T06:42:19Z</time>
      </trkpt>
      <trkpt lat="44.99447" lon="6.49797">
        <ele>2033.33</ele>
        <time>2018-04-18T06:42:36Z</time>
      </trkpt>
      <trkpt lat="44.99448" lon="6.49798">
        <ele>2033.81</ele>
        <time>2018-04-18T06:42:58Z</time>
      </trkpt>
      <trkpt lat="44.99449" lon="6.49805">
        <ele>2035.73</ele>
        <time>2018-04-18T06:43:14Z</time>
      </trkpt>
      <trkpt lat="44.99451" lon="6.49811">
        <ele>2037.65</ele>
        <time>2018-04-18T06:43:28Z</time>
      </trkpt>
      <trkpt lat="44.99457" lon="6.49813">
        <ele>2039.57</ele>
        <time>2018-04-18T06:43:46Z</time>
      </trkpt>
      <trkpt lat="44.99463" lon="6.49815">
        <ele>2041.98</ele>
        <time>2018-04-18T06:44:04Z</time>
      </trkpt>
      <trkpt lat="44.99469" lon="6.49817">
        <ele>2043.42</ele>
        <time>2018-04-18T06:44:19Z</time>
      </trkpt>
      <trkpt lat="44.99473" lon="6.49817">
        <ele>2045.34</ele>
        <time>2018-04-18T06:44:33Z</time>
      </trkpt>
      <trkpt lat="44.99478" lon="6.49818">
        <ele>2047.75</ele>
        <time>2018-04-18T06:44:50Z</time>
      </trkpt>
      <trkpt lat="44.99482" lon="6.49819">
        <ele>2049.19</ele>
        <time>2018-04-18T06:45:04Z</time>
      </trkpt>
      <trkpt lat="44.99487" lon="6.4982">
        <ele>2051.11</ele>
        <time>2018-04-18T06:45:20Z</time>
      </trkpt>
      <trkpt lat="44.99492" lon="6.4982">
        <ele>2053.51</ele>
        <time>2018-04-18T06:45:36Z</time>
      </trkpt>
      <trkpt lat="44.99495" lon="6.4982">
        <ele>2054.96</ele>
        <time>2018-04-18T06:45:48Z</time>
      </trkpt>
      <trkpt lat="44.99499" lon="6.49821">
        <ele>2056.88</ele>
        <time>2018-04-18T06:46:04Z</time>
      </trkpt>
      <trkpt lat="44.99502" lon="6.49822">
        <ele>2058.32</ele>
        <time>2018-04-18T06:46:18Z</time>
      </trkpt>
      <trkpt lat="44.99506" lon="6.49823">
        <ele>2060.24</ele>
        <time>2018-04-18T06:46:32Z</time>
      </trkpt>
      <trkpt lat="44.9951" lon="6.49823">
        <ele>2062.17</ele>
        <time>2018-04-18T06:46:48Z</time>
      </trkpt>
      <trkpt lat="44.99514" lon="6.49826">
        <ele>2064.09</ele>
        <time>2018-04-18T06:47:03Z</time>
      </trkpt>
      <trkpt lat="44.99519" lon="6.49827">
        <ele>2066.01</ele>
        <time>2018-04-18T06:47:17Z</time>
      </trkpt>
      <trkpt lat="44.99524" lon="6.49827">
        <ele>2067.93</ele>
        <time>2018-04-18T06:47:32Z</time>
      </trkpt>
      <trkpt lat="44.99527" lon="6.49828">
        <ele>2069.86</ele>
        <time>2018-04-18T06:47:48Z</time>
      </trkpt>
      <trkpt lat="44.99532" lon="6.4983">
        <ele>2072.26</ele>
        <time>2018-04-18T06:48:03Z</time>
      </trkpt>
      <trkpt lat="44.99536" lon="6.49831">
        <ele>2073.7</ele>
        <time>2018-04-18T06:48:18Z</time>
      </trkpt>
      <trkpt lat="44.99539" lon="6.49832">
        <ele>2075.14</ele>
        <time>2018-04-18T06:48:31Z</time>
      </trkpt>
      <trkpt lat="44.99544" lon="6.49832">
        <ele>2077.07</ele>
        <time>2018-04-18T06:48:44Z</time>
      </trkpt>
      <trkpt lat="44.99548" lon="6.49833">
        <ele>2078.99</ele>
        <time>2018-04-18T06:48:59Z</time>
      </trkpt>
      <trkpt lat="44.99551" lon="6.49833">
        <ele>2080.43</ele>
        <time>2018-04-18T06:49:13Z</time>
      </trkpt>
      <trkpt lat="44.99556" lon="6.49833">
        <ele>2082.83</ele>
        <time>2018-04-18T06:49:28Z</time>
      </trkpt>
      <trkpt lat="44.99561" lon="6.49833">
        <ele>2084.76</ele>
        <time>2018-04-18T06:49:44Z</time>
      </trkpt>
      <trkpt lat="44.99565" lon="6.49834">
        <ele>2086.68</ele>
        <time>2018-04-18T06:50:00Z</time>
      </trkpt>
      <trkpt lat="44.99568" lon="6.49834">
        <ele>2088.12</ele>
        <time>2018-04-18T06:50:15Z</time>
      </trkpt>
      <trkpt lat="44.99572" lon="6.49836">
        <ele>2090.52</ele>
        <time>2018-04-18T06:50:31Z</time>
      </trkpt>
      <trkpt lat="44.99576" lon="6.49837">
        <ele>2091.97</ele>
        <time>2018-04-18T06:50:46Z</time>
      </trkpt>
      <trkpt lat="44.9958" lon="6.49836">
        <ele>2093.89</ele>
        <time>2018-04-18T06:50:59Z</time>
      </trkpt>
      <trkpt lat="44.99584" lon="6.49838">
        <ele>2095.33</ele>
        <time>2018-04-18T06:51:13Z</time>
      </trkpt>
      <trkpt lat="44.99587" lon="6.49838">
        <ele>2097.25</ele>
        <time>2018-04-18T06:51:26Z</time>
      </trkpt>
      <trkpt lat="44.99591" lon="6.49838">
        <ele>2098.7</ele>
        <time>2018-04-18T06:51:39Z</time>
      </trkpt>
      <trkpt lat="44.99594" lon="6.49838">
        <ele>2100.14</ele>
        <time>2018-04-18T06:51:52Z</time>
      </trkpt>
      <trkpt lat="44.99598" lon="6.49838">
        <ele>2101.58</ele>
        <time>2018-04-18T06:52:04Z</time>
      </trkpt>
      <trkpt lat="44.99601" lon="6.49838">
        <ele>2103.02</ele>
        <time>2018-04-18T06:52:19Z</time>
      </trkpt>
      <trkpt lat="44.99606" lon="6.49838">
        <ele>2104.94</ele>
        <time>2018-04-18T06:52:34Z</time>
      </trkpt>
      <trkpt lat="44.99609" lon="6.49838">
        <ele>2106.87</ele>
        <time>2018-04-18T06:52:49Z</time>
      </trkpt>
      <trkpt lat="44.99612" lon="6.49838">
        <ele>2108.79</ele>
        <time>2018-04-18T06:53:03Z</time>
      </trkpt>
      <trkpt lat="44.99616" lon="6.49839">
        <ele>2110.23</ele>
        <time>2018-04-18T06:53:18Z</time>
      </trkpt>
      <trkpt lat="44.9962" lon="6.49838">
        <ele>2112.63</ele>
        <time>2018-04-18T06:53:32Z</time>
      </trkpt>
      <trkpt lat="44.99624" lon="6.49837">
        <ele>2114.08</ele>
        <time>2018-04-18T06:53:47Z</time>
      </trkpt>
      <trkpt lat="44.99629" lon="6.49836">
        <ele>2116</ele>
        <time>2018-04-18T06:54:02Z</time>
      </trkpt>
      <trkpt lat="44.99632" lon="6.49836">
        <ele>2117.92</ele>
        <time>2018-04-18T06:54:16Z</time>
      </trkpt>
      <trkpt lat="44.99632" lon="6.49837">
        <ele>2118.88</ele>
        <time>2018-04-18T06:54:29Z</time>
      </trkpt>
      <trkpt lat="44.99632" lon="6.49837">
        <ele>2118.88</ele>
        <time>2018-04-18T06:54:46Z</time>
      </trkpt>
      <trkpt lat="44.99631" lon="6.49844">
        <ele>2120.32</ele>
        <time>2018-04-18T06:55:00Z</time>
      </trkpt>
      <trkpt lat="44.99631" lon="6.4985">
        <ele>2122.25</ele>
        <time>2018-04-18T06:55:15Z</time>
      </trkpt>
      <trkpt lat="44.99632" lon="6.49857">
        <ele>2124.17</ele>
        <time>2018-04-18T06:55:28Z</time>
      </trkpt>
      <trkpt lat="44.99631" lon="6.49862">
        <ele>2125.61</ele>
        <time>2018-04-18T06:55:42Z</time>
      </trkpt>
      <trkpt lat="44.99631" lon="6.49868">
        <ele>2127.53</ele>
        <time>2018-04-18T06:55:57Z</time>
      </trkpt>
      <trkpt lat="44.99632" lon="6.49874">
        <ele>2128.98</ele>
        <time>2018-04-18T06:56:12Z</time>
      </trkpt>
      <trkpt lat="44.99633" lon="6.49879">
        <ele>2130.9</ele>
        <time>2018-04-18T06:56:27Z</time>
      </trkpt>
      <trkpt lat="44.99634" lon="6.49887">
        <ele>2132.82</ele>
        <time>2018-04-18T06:56:43Z</time>
      </trkpt>
      <trkpt lat="44.99634" lon="6.49891">
        <ele>2134.74</ele>
        <time>2018-04-18T06:56:57Z</time>
      </trkpt>
      <trkpt lat="44.99635" lon="6.49896">
        <ele>2136.67</ele>
        <time>2018-04-18T06:57:13Z</time>
      </trkpt>
      <trkpt lat="44.99635" lon="6.49902">
        <ele>2138.59</ele>
        <time>2018-04-18T06:57:27Z</time>
      </trkpt>
      <trkpt lat="44.99635" lon="6.49908">
        <ele>2140.51</ele>
        <time>2018-04-18T06:57:43Z</time>
      </trkpt>
      <trkpt lat="44.99635" lon="6.49914">
        <ele>2141.95</ele>
        <time>2018-04-18T06:57:57Z</time>
      </trkpt>
      <trkpt lat="44.99634" lon="6.49919">
        <ele>2143.88</ele>
        <time>2018-04-18T06:58:11Z</time>
      </trkpt>
      <trkpt lat="44.99635" lon="6.49925">
        <ele>2145.8</ele>
        <time>2018-04-18T06:58:29Z</time>
      </trkpt>
      <trkpt lat="44.99636" lon="6.49932">
        <ele>2147.72</ele>
        <time>2018-04-18T06:58:46Z</time>
      </trkpt>
      <trkpt lat="44.99636" lon="6.4994">
        <ele>2150.13</ele>
        <time>2018-04-18T06:59:04Z</time>
      </trkpt>
      <trkpt lat="44.99636" lon="6.49947">
        <ele>2151.57</ele>
        <time>2018-04-18T06:59:18Z</time>
      </trkpt>
      <trkpt lat="44.99637" lon="6.49953">
        <ele>2153.01</ele>
        <time>2018-04-18T06:59:32Z</time>
      </trkpt>
      <trkpt lat="44.99637" lon="6.49961">
        <ele>2154.45</ele>
        <time>2018-04-18T06:59:45Z</time>
      </trkpt>
      <trkpt lat="44.99639" lon="6.4997">
        <ele>2156.37</ele>
        <time>2018-04-18T07:00:03Z</time>
      </trkpt>
      <trkpt lat="44.9964" lon="6.49978">
        <ele>2158.3</ele>
        <time>2018-04-18T07:00:19Z</time>
      </trkpt>
      <trkpt lat="44.99641" lon="6.49987">
        <ele>2160.7</ele>
        <time>2018-04-18T07:00:36Z</time>
      </trkpt>
      <trkpt lat="44.99643" lon="6.49996">
        <ele>2162.14</ele>
        <time>2018-04-18T07:00:51Z</time>
      </trkpt>
      <trkpt lat="44.99645" lon="6.50005">
        <ele>2163.1</ele>
        <time>2018-04-18T07:01:05Z</time>
      </trkpt>
      <trkpt lat="44.99645" lon="6.50017">
        <ele>2164.55</ele>
        <time>2018-04-18T07:01:20Z</time>
      </trkpt>
      <trkpt lat="44.99646" lon="6.50025">
        <ele>2166.47</ele>
        <time>2018-04-18T07:01:37Z</time>
      </trkpt>
      <trkpt lat="44.99648" lon="6.50037">
        <ele>2168.39</ele>
        <time>2018-04-18T07:01:57Z</time>
      </trkpt>
      <trkpt lat="44.99649" lon="6.50048">
        <ele>2170.31</ele>
        <time>2018-04-18T07:02:15Z</time>
      </trkpt>
      <trkpt lat="44.99649" lon="6.50055">
        <ele>2172.24</ele>
        <time>2018-04-18T07:02:32Z</time>
      </trkpt>
      <trkpt lat="44.9965" lon="6.50061">
        <ele>2173.68</ele>
        <time>2018-04-18T07:02:46Z</time>
      </trkpt>
      <trkpt lat="44.9965" lon="6.50069">
        <ele>2175.6</ele>
        <time>2018-04-18T07:03:02Z</time>
      </trkpt>
      <trkpt lat="44.99651" lon="6.50076">
        <ele>2177.52</ele>
        <time>2018-04-18T07:03:19Z</time>
      </trkpt>
      <trkpt lat="44.99652" lon="6.50083">
        <ele>2178.97</ele>
        <time>2018-04-18T07:03:35Z</time>
      </trkpt>
      <trkpt lat="44.99653" lon="6.50089">
        <ele>2180.89</ele>
        <time>2018-04-18T07:03:50Z</time>
      </trkpt>
      <trkpt lat="44.99654" lon="6.50094">
        <ele>2182.81</ele>
        <time>2018-04-18T07:04:04Z</time>
      </trkpt>
      <trkpt lat="44.99655" lon="6.501">
        <ele>2184.25</ele>
        <time>2018-04-18T07:04:18Z</time>
      </trkpt>
      <trkpt lat="44.99657" lon="6.50103">
        <ele>2184.73</ele>
        <time>2018-04-18T07:04:30Z</time>
      </trkpt>
      <trkpt lat="44.99657" lon="6.50105">
        <ele>2186.18</ele>
        <time>2018-04-18T07:04:42Z</time>
      </trkpt>
      <trkpt lat="44.99659" lon="6.50109">
        <ele>2187.62</ele>
        <time>2018-04-18T07:04:55Z</time>
      </trkpt>
      <trkpt lat="44.99661" lon="6.50114">
        <ele>2189.06</ele>
        <time>2018-04-18T07:05:10Z</time>
      </trkpt>
      <trkpt lat="44.99664" lon="6.5012">
        <ele>2190.98</ele>
        <time>2018-04-18T07:05:26Z</time>
      </trkpt>
      <trkpt lat="44.99666" lon="6.50125">
        <ele>2192.9</ele>
        <time>2018-04-18T07:05:40Z</time>
      </trkpt>
      <trkpt lat="44.99668" lon="6.5013">
        <ele>2194.83</ele>
        <time>2018-04-18T07:05:56Z</time>
      </trkpt>
      <trkpt lat="44.9967" lon="6.50134">
        <ele>2196.27</ele>
        <time>2018-04-18T07:06:10Z</time>
      </trkpt>
      <trkpt lat="44.99673" lon="6.5014">
        <ele>2199.15</ele>
        <time>2018-04-18T07:06:24Z</time>
      </trkpt>
      <trkpt lat="44.99675" lon="6.50145">
        <ele>2200.11</ele>
        <time>2018-04-18T07:06:40Z</time>
      </trkpt>
      <trkpt lat="44.99677" lon="6.50148">
        <ele>2202.04</ele>
        <time>2018-04-18T07:06:54Z</time>
      </trkpt>
      <trkpt lat="44.99678" lon="6.50152">
        <ele>2203.48</ele>
        <time>2018-04-18T07:07:07Z</time>
      </trkpt>
      <trkpt lat="44.99681" lon="6.50157">
        <ele>2204.92</ele>
        <time>2018-04-18T07:07:20Z</time>
      </trkpt>
      <trkpt lat="44.99683" lon="6.50163">
        <ele>2206.84</ele>
        <time>2018-04-18T07:07:36Z</time>
      </trkpt>
      <trkpt lat="44.99686" lon="6.50166">
        <ele>2208.29</ele>
        <time>2018-04-18T07:07:48Z</time>
      </trkpt>
      <trkpt lat="44.99688" lon="6.50171">
        <ele>2210.21</ele>
        <time>2018-04-18T07:08:04Z</time>
      </trkpt>
      <trkpt lat="44.99689" lon="6.50175">
        <ele>2211.65</ele>
        <time>2018-04-18T07:08:19Z</time>
      </trkpt>
      <trkpt lat="44.99692" lon="6.5018">
        <ele>2213.57</ele>
        <time>2018-04-18T07:08:36Z</time>
      </trkpt>
      <trkpt lat="44.99694" lon="6.50184">
        <ele>2215.98</ele>
        <time>2018-04-18T07:08:51Z</time>
      </trkpt>
      <trkpt lat="44.99697" lon="6.50189">
        <ele>2217.9</ele>
        <time>2018-04-18T07:09:07Z</time>
      </trkpt>
      <trkpt lat="44.99699" lon="6.50193">
        <ele>2219.82</ele>
        <time>2018-04-18T07:09:21Z</time>
      </trkpt>
      <trkpt lat="44.99701" lon="6.50197">
        <ele>2221.26</ele>
        <time>2018-04-18T07:09:34Z</time>
      </trkpt>
      <trkpt lat="44.99703" lon="6.50202">
        <ele>2223.19</ele>
        <time>2018-04-18T07:09:50Z</time>
      </trkpt>
      <trkpt lat="44.99706" lon="6.50205">
        <ele>2225.11</ele>
        <time>2018-04-18T07:10:04Z</time>
      </trkpt>
      <trkpt lat="44.9971" lon="6.50207">
        <ele>2227.03</ele>
        <time>2018-04-18T07:10:19Z</time>
      </trkpt>
      <trkpt lat="44.99714" lon="6.5021">
        <ele>2228.95</ele>
        <time>2018-04-18T07:10:35Z</time>
      </trkpt>
      <trkpt lat="44.99716" lon="6.50213">
        <ele>2230.88</ele>
        <time>2018-04-18T07:10:49Z</time>
      </trkpt>
      <trkpt lat="44.99719" lon="6.50214">
        <ele>2232.32</ele>
        <time>2018-04-18T07:11:01Z</time>
      </trkpt>
      <trkpt lat="44.99722" lon="6.50215">
        <ele>2234.24</ele>
        <time>2018-04-18T07:11:15Z</time>
      </trkpt>
      <trkpt lat="44.99726" lon="6.50216">
        <ele>2235.68</ele>
        <time>2018-04-18T07:11:31Z</time>
      </trkpt>
      <trkpt lat="44.99729" lon="6.50217">
        <ele>2237.61</ele>
        <time>2018-04-18T07:11:44Z</time>
      </trkpt>
      <trkpt lat="44.99733" lon="6.50217">
        <ele>2239.53</ele>
        <time>2018-04-18T07:12:00Z</time>
      </trkpt>
      <trkpt lat="44.99737" lon="6.50219">
        <ele>2240.97</ele>
        <time>2018-04-18T07:12:15Z</time>
      </trkpt>
      <trkpt lat="44.9974" lon="6.50219">
        <ele>2242.89</ele>
        <time>2018-04-18T07:12:31Z</time>
      </trkpt>
      <trkpt lat="44.99743" lon="6.5022">
        <ele>2244.33</ele>
        <time>2018-04-18T07:12:44Z</time>
      </trkpt>
      <trkpt lat="44.99747" lon="6.50219">
        <ele>2246.26</ele>
        <time>2018-04-18T07:12:59Z</time>
      </trkpt>
      <trkpt lat="44.9975" lon="6.50219">
        <ele>2247.7</ele>
        <time>2018-04-18T07:13:13Z</time>
      </trkpt>
      <trkpt lat="44.99754" lon="6.5022">
        <ele>2249.62</ele>
        <time>2018-04-18T07:13:27Z</time>
      </trkpt>
      <trkpt lat="44.99758" lon="6.5022">
        <ele>2251.06</ele>
        <time>2018-04-18T07:13:41Z</time>
      </trkpt>
      <trkpt lat="44.99761" lon="6.50221">
        <ele>2252.99</ele>
        <time>2018-04-18T07:13:55Z</time>
      </trkpt>
      <trkpt lat="44.99766" lon="6.50221">
        <ele>2254.91</ele>
        <time>2018-04-18T07:14:12Z</time>
      </trkpt>
      <trkpt lat="44.99771" lon="6.50222">
        <ele>2258.27</ele>
        <time>2018-04-18T07:14:28Z</time>
      </trkpt>
      <trkpt lat="44.99775" lon="6.50223">
        <ele>2258.75</ele>
        <time>2018-04-18T07:14:45Z</time>
      </trkpt>
      <trkpt lat="44.99779" lon="6.50224">
        <ele>2260.68</ele>
        <time>2018-04-18T07:15:00Z</time>
      </trkpt>
      <trkpt lat="44.99784" lon="6.50225">
        <ele>2262.12</ele>
        <time>2018-04-18T07:15:15Z</time>
      </trkpt>
      <trkpt lat="44.99788" lon="6.50226">
        <ele>2263.56</ele>
        <time>2018-04-18T07:15:29Z</time>
      </trkpt>
      <trkpt lat="44.99792" lon="6.50226">
        <ele>2265</ele>
        <time>2018-04-18T07:15:43Z</time>
      </trkpt>
      <trkpt lat="44.99797" lon="6.50227">
        <ele>2266.93</ele>
        <time>2018-04-18T07:15:58Z</time>
      </trkpt>
      <trkpt lat="44.998" lon="6.50227">
        <ele>2267.89</ele>
        <time>2018-04-18T07:16:17Z</time>
      </trkpt>
      <trkpt lat="44.99804" lon="6.50228">
        <ele>2271.25</ele>
        <time>2018-04-18T07:16:29Z</time>
      </trkpt>
      <trkpt lat="44.99809" lon="6.50228">
        <ele>2271.73</ele>
        <time>2018-04-18T07:16:44Z</time>
      </trkpt>
      <trkpt lat="44.99814" lon="6.50228">
        <ele>2273.17</ele>
        <time>2018-04-18T07:16:59Z</time>
      </trkpt>
      <trkpt lat="44.99819" lon="6.50227">
        <ele>2275.1</ele>
        <time>2018-04-18T07:17:14Z</time>
      </trkpt>
      <trkpt lat="44.99825" lon="6.50226">
        <ele>2277.02</ele>
        <time>2018-04-18T07:17:30Z</time>
      </trkpt>
      <trkpt lat="44.99831" lon="6.50226">
        <ele>2278.94</ele>
        <time>2018-04-18T07:17:46Z</time>
      </trkpt>
      <trkpt lat="44.99835" lon="6.50227">
        <ele>2279.9</ele>
        <time>2018-04-18T07:18:02Z</time>
      </trkpt>
      <trkpt lat="44.99839" lon="6.50228">
        <ele>2281.83</ele>
        <time>2018-04-18T07:18:17Z</time>
      </trkpt>
      <trkpt lat="44.99845" lon="6.50227">
        <ele>2283.75</ele>
        <time>2018-04-18T07:18:36Z</time>
      </trkpt>
      <trkpt lat="44.9985" lon="6.50227">
        <ele>2285.19</ele>
        <time>2018-04-18T07:18:51Z</time>
      </trkpt>
      <trkpt lat="44.99855" lon="6.50226">
        <ele>2287.11</ele>
        <time>2018-04-18T07:19:07Z</time>
      </trkpt>
      <trkpt lat="44.99861" lon="6.50227">
        <ele>2288.56</ele>
        <time>2018-04-18T07:19:23Z</time>
      </trkpt>
      <trkpt lat="44.99867" lon="6.50226">
        <ele>2290</ele>
        <time>2018-04-18T07:19:36Z</time>
      </trkpt>
      <trkpt lat="44.99873" lon="6.50227">
        <ele>2291.92</ele>
        <time>2018-04-18T07:19:52Z</time>
      </trkpt>
      <trkpt lat="44.9988" lon="6.50229">
        <ele>2293.36</ele>
        <time>2018-04-18T07:20:09Z</time>
      </trkpt>
      <trkpt lat="44.99885" lon="6.50227">
        <ele>2295.77</ele>
        <time>2018-04-18T07:20:24Z</time>
      </trkpt>
      <trkpt lat="44.99891" lon="6.50229">
        <ele>2296.73</ele>
        <time>2018-04-18T07:20:40Z</time>
      </trkpt>
      <trkpt lat="44.99896" lon="6.5023">
        <ele>2298.65</ele>
        <time>2018-04-18T07:20:54Z</time>
      </trkpt>
      <trkpt lat="44.99901" lon="6.50231">
        <ele>2300.09</ele>
        <time>2018-04-18T07:21:10Z</time>
      </trkpt>
      <trkpt lat="44.99906" lon="6.50232">
        <ele>2302.01</ele>
        <time>2018-04-18T07:21:27Z</time>
      </trkpt>
      <trkpt lat="44.99909" lon="6.50233">
        <ele>2303.46</ele>
        <time>2018-04-18T07:21:42Z</time>
      </trkpt>
      <trkpt lat="44.99913" lon="6.50233">
        <ele>2305.38</ele>
        <time>2018-04-18T07:21:56Z</time>
      </trkpt>
      <trkpt lat="44.99918" lon="6.50236">
        <ele>2306.82</ele>
        <time>2018-04-18T07:22:14Z</time>
      </trkpt>
      <trkpt lat="44.99923" lon="6.50236">
        <ele>2308.26</ele>
        <time>2018-04-18T07:22:29Z</time>
      </trkpt>
      <trkpt lat="44.99931" lon="6.50236">
        <ele>2310.19</ele>
        <time>2018-04-18T07:22:45Z</time>
      </trkpt>
      <trkpt lat="44.99936" lon="6.50236">
        <ele>2311.63</ele>
        <time>2018-04-18T07:23:00Z</time>
      </trkpt>
      <trkpt lat="44.99941" lon="6.50236">
        <ele>2312.59</ele>
        <time>2018-04-18T07:23:14Z</time>
      </trkpt>
      <trkpt lat="44.99947" lon="6.50235">
        <ele>2314.03</ele>
        <time>2018-04-18T07:23:30Z</time>
      </trkpt>
      <trkpt lat="44.99953" lon="6.50235">
        <ele>2315.95</ele>
        <time>2018-04-18T07:23:46Z</time>
      </trkpt>
      <trkpt lat="44.99957" lon="6.50235">
        <ele>2317.88</ele>
        <time>2018-04-18T07:24:01Z</time>
      </trkpt>
      <trkpt lat="44.99962" lon="6.50235">
        <ele>2319.32</ele>
        <time>2018-04-18T07:24:16Z</time>
      </trkpt>
      <trkpt lat="44.99967" lon="6.50235">
        <ele>2320.28</ele>
        <time>2018-04-18T07:24:31Z</time>
      </trkpt>
      <trkpt lat="44.99971" lon="6.50236">
        <ele>2321.72</ele>
        <time>2018-04-18T07:24:46Z</time>
      </trkpt>
      <trkpt lat="44.99976" lon="6.50236">
        <ele>2323.64</ele>
        <time>2018-04-18T07:25:01Z</time>
      </trkpt>
      <trkpt lat="44.99981" lon="6.50236">
        <ele>2325.09</ele>
        <time>2018-04-18T07:25:16Z</time>
      </trkpt>
      <trkpt lat="44.99987" lon="6.50236">
        <ele>2327.01</ele>
        <time>2018-04-18T07:25:32Z</time>
      </trkpt>
      <trkpt lat="44.99992" lon="6.50236">
        <ele>2328.45</ele>
        <time>2018-04-18T07:25:47Z</time>
      </trkpt>
      <trkpt lat="44.99997" lon="6.50235">
        <ele>2330.37</ele>
        <time>2018-04-18T07:26:04Z</time>
      </trkpt>
      <trkpt lat="45.00003" lon="6.50236">
        <ele>2331.81</ele>
        <time>2018-04-18T07:26:21Z</time>
      </trkpt>
      <trkpt lat="45.00008" lon="6.50235">
        <ele>2335.18</ele>
        <time>2018-04-18T07:26:35Z</time>
      </trkpt>
      <trkpt lat="45.00014" lon="6.50234">
        <ele>2335.66</ele>
        <time>2018-04-18T07:26:52Z</time>
      </trkpt>
      <trkpt lat="45.00018" lon="6.50234">
        <ele>2337.1</ele>
        <time>2018-04-18T07:27:08Z</time>
      </trkpt>
      <trkpt lat="45.00023" lon="6.50234">
        <ele>2339.51</ele>
        <time>2018-04-18T07:27:24Z</time>
      </trkpt>
      <trkpt lat="45.00029" lon="6.50234">
        <ele>2340.95</ele>
        <time>2018-04-18T07:27:39Z</time>
      </trkpt>
      <trkpt lat="45.00035" lon="6.50234">
        <ele>2341.91</ele>
        <time>2018-04-18T07:27:51Z</time>
      </trkpt>
      <trkpt lat="45.00037" lon="6.50233">
        <ele>2343.35</ele>
        <time>2018-04-18T07:28:12Z</time>
      </trkpt>
      <trkpt lat="45.00036" lon="6.50234">
        <ele>2342.87</ele>
        <time>2018-04-18T07:28:38Z</time>
      </trkpt>
      <trkpt lat="45.00035" lon="6.50241">
        <ele>2343.83</ele>
        <time>2018-04-18T07:28:50Z</time>
      </trkpt>
      <trkpt lat="45.00039" lon="6.5024">
        <ele>2344.31</ele>
        <time>2018-04-18T07:29:04Z</time>
      </trkpt>
      <trkpt lat="45.00039" lon="6.50241">
        <ele>2344.31</ele>
        <time>2018-04-18T07:29:28Z</time>
      </trkpt>
      <trkpt lat="45.00039" lon="6.50241">
        <ele>2344.31</ele>
        <time>2018-04-18T07:29:54Z</time>
      </trkpt>
      <trkpt lat="45.0004" lon="6.50242">
        <ele>2344.31</ele>
        <time>2018-04-18T07:30:17Z</time>
      </trkpt>
      <trkpt lat="45.00039" lon="6.5024">
        <ele>2343.35</ele>
        <time>2018-04-18T07:30:32Z</time>
      </trkpt>
      <trkpt lat="45.0004" lon="6.50238">
        <ele>2343.35</ele>
        <time>2018-04-18T07:31:04Z</time>
      </trkpt>
      <trkpt lat="45.00038" lon="6.50239">
        <ele>2343.83</ele>
        <time>2018-04-18T07:31:45Z</time>
      </trkpt>
      <trkpt lat="45.00039" lon="6.50239">
        <ele>2343.35</ele>
        <time>2018-04-18T07:32:17Z</time>
      </trkpt>
      <trkpt lat="45.00039" lon="6.50239">
        <ele>2342.87</ele>
        <time>2018-04-18T07:33:00Z</time>
      </trkpt>
      <trkpt lat="45.00038" lon="6.5024">
        <ele>2343.35</ele>
        <time>2018-04-18T07:33:31Z</time>
      </trkpt>
      <trkpt lat="45.00036" lon="6.50242">
        <ele>2343.35</ele>
        <time>2018-04-18T07:34:13Z</time>
      </trkpt>
      <trkpt lat="45.00038" lon="6.50242">
        <ele>2343.83</ele>
        <time>2018-04-18T07:34:52Z</time>
      </trkpt>
      <trkpt lat="45.00037" lon="6.50242">
        <ele>2343.83</ele>
        <time>2018-04-18T07:35:24Z</time>
      </trkpt>
      <trkpt lat="45.00037" lon="6.50241">
        <ele>2344.79</ele>
        <time>2018-04-18T07:35:55Z</time>
      </trkpt>
      <trkpt lat="45.00038" lon="6.50243">
        <ele>2344.79</ele>
        <time>2018-04-18T07:36:13Z</time>
      </trkpt>
      <trkpt lat="45.00038" lon="6.50244">
        <ele>2344.79</ele>
        <time>2018-04-18T07:36:24Z</time>
      </trkpt>
      <trkpt lat="45.00039" lon="6.50243">
        <ele>2345.75</ele>
        <time>2018-04-18T07:36:42Z</time>
      </trkpt>
      <trkpt lat="45.00037" lon="6.50248">
        <ele>2345.75</ele>
        <time>2018-04-18T07:36:56Z</time>
      </trkpt>
      <trkpt lat="45.00042" lon="6.50261">
        <ele>2348.16</ele>
        <time>2018-04-18T07:37:14Z</time>
      </trkpt>
      <trkpt lat="45.00046" lon="6.50269">
        <ele>2350.56</ele>
        <time>2018-04-18T07:37:30Z</time>
      </trkpt>
      <trkpt lat="45.00052" lon="6.50275">
        <ele>2352</ele>
        <time>2018-04-18T07:37:44Z</time>
      </trkpt>
      <trkpt lat="45.00057" lon="6.50282">
        <ele>2352.96</ele>
        <time>2018-04-18T07:37:58Z</time>
      </trkpt>
      <trkpt lat="45.00058" lon="6.50284">
        <ele>2352.96</ele>
        <time>2018-04-18T07:38:00Z</time>
      </trkpt>
      <trkpt lat="45.00066" lon="6.50292">
        <ele>2352.48</ele>
        <time>2018-04-18T07:38:14Z</time>
      </trkpt>
      <trkpt lat="45.00072" lon="6.50302">
        <ele>2352</ele>
        <time>2018-04-18T07:38:27Z</time>
      </trkpt>
      <trkpt lat="45.0008" lon="6.50313">
        <ele>2351.52</ele>
        <time>2018-04-18T07:38:43Z</time>
      </trkpt>
      <trkpt lat="45.00085" lon="6.5032">
        <ele>2351.04</ele>
        <time>2018-04-18T07:38:56Z</time>
      </trkpt>
      <trkpt lat="45.00092" lon="6.50329">
        <ele>2351.52</ele>
        <time>2018-04-18T07:39:08Z</time>
      </trkpt>
      <trkpt lat="45.001" lon="6.50337">
        <ele>2351.04</ele>
        <time>2018-04-18T07:39:21Z</time>
      </trkpt>
      <trkpt lat="45.00101" lon="6.50338">
        <ele>2350.56</ele>
        <time>2018-04-18T07:39:22Z</time>
      </trkpt>
      <trkpt lat="45.00109" lon="6.50346">
        <ele>2351.04</ele>
        <time>2018-04-18T07:39:36Z</time>
      </trkpt>
      <trkpt lat="45.00114" lon="6.50352">
        <ele>2351.04</ele>
        <time>2018-04-18T07:39:45Z</time>
      </trkpt>
      <trkpt lat="45.00122" lon="6.5036">
        <ele>2352</ele>
        <time>2018-04-18T07:39:59Z</time>
      </trkpt>
      <trkpt lat="45.00131" lon="6.5037">
        <ele>2353.44</ele>
        <time>2018-04-18T07:40:15Z</time>
      </trkpt>
      <trkpt lat="45.00139" lon="6.50378">
        <ele>2354.41</ele>
        <time>2018-04-18T07:40:30Z</time>
      </trkpt>
      <trkpt lat="45.00146" lon="6.50386">
        <ele>2355.37</ele>
        <time>2018-04-18T07:40:44Z</time>
      </trkpt>
      <trkpt lat="45.00153" lon="6.50395">
        <ele>2356.33</ele>
        <time>2018-04-18T07:41:01Z</time>
      </trkpt>
      <trkpt lat="45.00161" lon="6.50401">
        <ele>2357.77</ele>
        <time>2018-04-18T07:41:20Z</time>
      </trkpt>
      <trkpt lat="45.00168" lon="6.50409">
        <ele>2359.21</ele>
        <time>2018-04-18T07:41:34Z</time>
      </trkpt>
      <trkpt lat="45.00174" lon="6.50417">
        <ele>2361.62</ele>
        <time>2018-04-18T07:41:52Z</time>
      </trkpt>
      <trkpt lat="45.00181" lon="6.50424">
        <ele>2363.06</ele>
        <time>2018-04-18T07:42:09Z</time>
      </trkpt>
      <trkpt lat="45.00187" lon="6.50425">
        <ele>2364.02</ele>
        <time>2018-04-18T07:42:25Z</time>
      </trkpt>
      <trkpt lat="45.00195" lon="6.50439">
        <ele>2367.38</ele>
        <time>2018-04-18T07:42:44Z</time>
      </trkpt>
      <trkpt lat="45.00199" lon="6.50446">
        <ele>2367.38</ele>
        <time>2018-04-18T07:43:00Z</time>
      </trkpt>
      <trkpt lat="45.00204" lon="6.50457">
        <ele>2369.79</ele>
        <time>2018-04-18T07:43:19Z</time>
      </trkpt>
      <trkpt lat="45.00208" lon="6.50466">
        <ele>2370.75</ele>
        <time>2018-04-18T07:43:34Z</time>
      </trkpt>
      <trkpt lat="45.00214" lon="6.50474">
        <ele>2372.67</ele>
        <time>2018-04-18T07:43:52Z</time>
      </trkpt>
      <trkpt lat="45.00216" lon="6.5048">
        <ele>2372.19</ele>
        <time>2018-04-18T07:44:10Z</time>
      </trkpt>
      <trkpt lat="45.00216" lon="6.50479">
        <ele>2373.63</ele>
        <time>2018-04-18T07:44:30Z</time>
      </trkpt>
      <trkpt lat="45.00219" lon="6.50486">
        <ele>2374.59</ele>
        <time>2018-04-18T07:44:43Z</time>
      </trkpt>
      <trkpt lat="45.0022" lon="6.50488">
        <ele>2376.52</ele>
        <time>2018-04-18T07:44:46Z</time>
      </trkpt>
      <trkpt lat="45.00221" lon="6.50489">
        <ele>2375.07</ele>
        <time>2018-04-18T07:44:48Z</time>
      </trkpt>
      <trkpt lat="45.00227" lon="6.50503">
        <ele>2377</ele>
        <time>2018-04-18T07:45:08Z</time>
      </trkpt>
      <trkpt lat="45.0023" lon="6.50512">
        <ele>2378.44</ele>
        <time>2018-04-18T07:45:23Z</time>
      </trkpt>
      <trkpt lat="45.00231" lon="6.50519">
        <ele>2379.88</ele>
        <time>2018-04-18T07:45:41Z</time>
      </trkpt>
      <trkpt lat="45.00231" lon="6.50525">
        <ele>2381.32</ele>
        <time>2018-04-18T07:45:55Z</time>
      </trkpt>
      <trkpt lat="45.00232" lon="6.50535">
        <ele>2380.36</ele>
        <time>2018-04-18T07:46:11Z</time>
      </trkpt>
      <trkpt lat="45.00233" lon="6.50535">
        <ele>2379.88</ele>
        <time>2018-04-18T07:46:24Z</time>
      </trkpt>
      <trkpt lat="45.00235" lon="6.5053">
        <ele>2380.36</ele>
        <time>2018-04-18T07:47:00Z</time>
      </trkpt>
      <trkpt lat="45.00232" lon="6.50534">
        <ele>2380.36</ele>
        <time>2018-04-18T07:47:35Z</time>
      </trkpt>
      <trkpt lat="45.00232" lon="6.50534">
        <ele>2381.32</ele>
        <time>2018-04-18T07:48:20Z</time>
      </trkpt>
      <trkpt lat="45.00232" lon="6.50533">
        <ele>2382.28</ele>
        <time>2018-04-18T07:48:36Z</time>
      </trkpt>
      <trkpt lat="45.00232" lon="6.50531">
        <ele>2382.28</ele>
        <time>2018-04-18T07:48:54Z</time>
      </trkpt>
      <trkpt lat="45.00233" lon="6.50538">
        <ele>2383.73</ele>
        <time>2018-04-18T07:49:11Z</time>
      </trkpt>
      <trkpt lat="45.00233" lon="6.50538">
        <ele>2384.21</ele>
        <time>2018-04-18T07:49:14Z</time>
      </trkpt>
      <trkpt lat="45.00237" lon="6.50557">
        <ele>2386.61</ele>
        <time>2018-04-18T07:49:32Z</time>
      </trkpt>
      <trkpt lat="45.0024" lon="6.50575">
        <ele>2388.05</ele>
        <time>2018-04-18T07:49:47Z</time>
      </trkpt>
      <trkpt lat="45.00243" lon="6.50587">
        <ele>2389.97</ele>
        <time>2018-04-18T07:50:03Z</time>
      </trkpt>
      <trkpt lat="45.00248" lon="6.50598">
        <ele>2391.42</ele>
        <time>2018-04-18T07:50:21Z</time>
      </trkpt>
      <trkpt lat="45.00252" lon="6.50611">
        <ele>2392.38</ele>
        <time>2018-04-18T07:50:40Z</time>
      </trkpt>
      <trkpt lat="45.00253" lon="6.50626">
        <ele>2394.3</ele>
        <time>2018-04-18T07:51:00Z</time>
      </trkpt>
      <trkpt lat="45.00255" lon="6.50639">
        <ele>2395.74</ele>
        <time>2018-04-18T07:51:19Z</time>
      </trkpt>
      <trkpt lat="45.00257" lon="6.50653">
        <ele>2396.7</ele>
        <time>2018-04-18T07:51:36Z</time>
      </trkpt>
      <trkpt lat="45.00258" lon="6.50664">
        <ele>2397.67</ele>
        <time>2018-04-18T07:51:52Z</time>
      </trkpt>
      <trkpt lat="45.00263" lon="6.50682">
        <ele>2399.11</ele>
        <time>2018-04-18T07:52:09Z</time>
      </trkpt>
      <trkpt lat="45.00265" lon="6.50692">
        <ele>2400.55</ele>
        <time>2018-04-18T07:52:26Z</time>
      </trkpt>
      <trkpt lat="45.00266" lon="6.50705">
        <ele>2401.99</ele>
        <time>2018-04-18T07:52:40Z</time>
      </trkpt>
      <trkpt lat="45.00267" lon="6.50718">
        <ele>2402.95</ele>
        <time>2018-04-18T07:52:58Z</time>
      </trkpt>
      <trkpt lat="45.00268" lon="6.50725">
        <ele>2403.91</ele>
        <time>2018-04-18T07:53:12Z</time>
      </trkpt>
      <trkpt lat="45.00271" lon="6.50733">
        <ele>2403.91</ele>
        <time>2018-04-18T07:53:19Z</time>
      </trkpt>
      <trkpt lat="45.00278" lon="6.50749">
        <ele>2403.43</ele>
        <time>2018-04-18T07:53:34Z</time>
      </trkpt>
      <trkpt lat="45.00279" lon="6.50755">
        <ele>2402.95</ele>
        <time>2018-04-18T07:53:44Z</time>
      </trkpt>
      <trkpt lat="45.00283" lon="6.50769">
        <ele>2403.43</ele>
        <time>2018-04-18T07:53:59Z</time>
      </trkpt>
      <trkpt lat="45.00292" lon="6.50789">
        <ele>2404.88</ele>
        <time>2018-04-18T07:54:16Z</time>
      </trkpt>
      <trkpt lat="45.00296" lon="6.50798">
        <ele>2405.84</ele>
        <time>2018-04-18T07:54:31Z</time>
      </trkpt>
      <trkpt lat="45.00302" lon="6.50815">
        <ele>2406.32</ele>
        <time>2018-04-18T07:54:48Z</time>
      </trkpt>
      <trkpt lat="45.0031" lon="6.5083">
        <ele>2407.76</ele>
        <time>2018-04-18T07:55:06Z</time>
      </trkpt>
      <trkpt lat="45.00315" lon="6.5084">
        <ele>2408.72</ele>
        <time>2018-04-18T07:55:22Z</time>
      </trkpt>
      <trkpt lat="45.00324" lon="6.50853">
        <ele>2410.16</ele>
        <time>2018-04-18T07:55:41Z</time>
      </trkpt>
      <trkpt lat="45.0033" lon="6.50863">
        <ele>2411.6</ele>
        <time>2018-04-18T07:55:59Z</time>
      </trkpt>
      <trkpt lat="45.00337" lon="6.50875">
        <ele>2413.53</ele>
        <time>2018-04-18T07:56:18Z</time>
      </trkpt>
      <trkpt lat="45.00343" lon="6.50881">
        <ele>2414.97</ele>
        <time>2018-04-18T07:56:35Z</time>
      </trkpt>
      <trkpt lat="45.00349" lon="6.50888">
        <ele>2417.85</ele>
        <time>2018-04-18T07:56:52Z</time>
      </trkpt>
      <trkpt lat="45.00355" lon="6.50896">
        <ele>2417.85</ele>
        <time>2018-04-18T07:57:09Z</time>
      </trkpt>
      <trkpt lat="45.00361" lon="6.50905">
        <ele>2419.3</ele>
        <time>2018-04-18T07:57:27Z</time>
      </trkpt>
      <trkpt lat="45.00366" lon="6.50913">
        <ele>2420.74</ele>
        <time>2018-04-18T07:57:44Z</time>
      </trkpt>
      <trkpt lat="45.00371" lon="6.50918">
        <ele>2423.14</ele>
        <time>2018-04-18T07:58:04Z</time>
      </trkpt>
      <trkpt lat="45.00378" lon="6.50921">
        <ele>2425.54</ele>
        <time>2018-04-18T07:58:22Z</time>
      </trkpt>
      <trkpt lat="45.00384" lon="6.50925">
        <ele>2426.5</ele>
        <time>2018-04-18T07:58:36Z</time>
      </trkpt>
      <trkpt lat="45.0039" lon="6.50927">
        <ele>2428.91</ele>
        <time>2018-04-18T07:58:53Z</time>
      </trkpt>
      <trkpt lat="45.00391" lon="6.50924">
        <ele>2425.54</ele>
        <time>2018-04-18T07:59:05Z</time>
      </trkpt>
      <trkpt lat="45.00392" lon="6.50925">
        <ele>2427.47</ele>
        <time>2018-04-18T07:59:19Z</time>
      </trkpt>
      <trkpt lat="45.00393" lon="6.50928">
        <ele>2426.99</ele>
        <time>2018-04-18T07:59:48Z</time>
      </trkpt>
      <trkpt lat="45.00393" lon="6.50929">
        <ele>2426.99</ele>
        <time>2018-04-18T08:00:23Z</time>
      </trkpt>
      <trkpt lat="45.00392" lon="6.50927">
        <ele>2426.99</ele>
        <time>2018-04-18T08:00:48Z</time>
      </trkpt>
      <trkpt lat="45.00392" lon="6.50924">
        <ele>2427.47</ele>
        <time>2018-04-18T08:01:34Z</time>
      </trkpt>
      <trkpt lat="45.00392" lon="6.50921">
        <ele>2426.99</ele>
        <time>2018-04-18T08:02:00Z</time>
      </trkpt>
      <trkpt lat="45.00394" lon="6.50926">
        <ele>2428.43</ele>
        <time>2018-04-18T08:02:11Z</time>
      </trkpt>
      <trkpt lat="45.00401" lon="6.5094">
        <ele>2428.91</ele>
        <time>2018-04-18T08:02:27Z</time>
      </trkpt>
      <trkpt lat="45.0041" lon="6.50951">
        <ele>2430.35</ele>
        <time>2018-04-18T08:02:43Z</time>
      </trkpt>
      <trkpt lat="45.00416" lon="6.50958">
        <ele>2431.31</ele>
        <time>2018-04-18T08:02:57Z</time>
      </trkpt>
      <trkpt lat="45.00423" lon="6.50966">
        <ele>2432.75</ele>
        <time>2018-04-18T08:03:13Z</time>
      </trkpt>
      <trkpt lat="45.00432" lon="6.50972">
        <ele>2434.68</ele>
        <time>2018-04-18T08:03:34Z</time>
      </trkpt>
      <trkpt lat="45.00438" lon="6.50977">
        <ele>2435.64</ele>
        <time>2018-04-18T08:03:50Z</time>
      </trkpt>
      <trkpt lat="45.00446" lon="6.5098">
        <ele>2437.08</ele>
        <time>2018-04-18T08:04:05Z</time>
      </trkpt>
      <trkpt lat="45.00451" lon="6.50978">
        <ele>2439</ele>
        <time>2018-04-18T08:04:19Z</time>
      </trkpt>
      <trkpt lat="45.00453" lon="6.50984">
        <ele>2441.41</ele>
        <time>2018-04-18T08:04:39Z</time>
      </trkpt>
      <trkpt lat="45.00452" lon="6.50998">
        <ele>2442.85</ele>
        <time>2018-04-18T08:04:55Z</time>
      </trkpt>
      <trkpt lat="45.00453" lon="6.51006">
        <ele>2444.29</ele>
        <time>2018-04-18T08:05:09Z</time>
      </trkpt>
      <trkpt lat="45.00453" lon="6.51014">
        <ele>2445.73</ele>
        <time>2018-04-18T08:05:24Z</time>
      </trkpt>
      <trkpt lat="45.00455" lon="6.51022">
        <ele>2447.17</ele>
        <time>2018-04-18T08:05:38Z</time>
      </trkpt>
      <trkpt lat="45.00456" lon="6.51031">
        <ele>2448.62</ele>
        <time>2018-04-18T08:05:54Z</time>
      </trkpt>
      <trkpt lat="45.00456" lon="6.51033">
        <ele>2449.58</ele>
        <time>2018-04-18T08:06:06Z</time>
      </trkpt>
      <trkpt lat="45.00456" lon="6.51033">
        <ele>2450.06</ele>
        <time>2018-04-18T08:06:07Z</time>
      </trkpt>
      <trkpt lat="45.00455" lon="6.51031">
        <ele>2448.13</ele>
        <time>2018-04-18T08:06:26Z</time>
      </trkpt>
      <trkpt lat="45.00454" lon="6.51033">
        <ele>2448.13</ele>
        <time>2018-04-18T08:06:56Z</time>
      </trkpt>
      <trkpt lat="45.00455" lon="6.51033">
        <ele>2447.65</ele>
        <time>2018-04-18T08:07:29Z</time>
      </trkpt>
      <trkpt lat="45.00454" lon="6.51031">
        <ele>2448.62</ele>
        <time>2018-04-18T08:07:49Z</time>
      </trkpt>
      <trkpt lat="45.00457" lon="6.51035">
        <ele>2449.1</ele>
        <time>2018-04-18T08:08:04Z</time>
      </trkpt>
      <trkpt lat="45.0046" lon="6.51045">
        <ele>2450.54</ele>
        <time>2018-04-18T08:08:20Z</time>
      </trkpt>
      <trkpt lat="45.00464" lon="6.51053">
        <ele>2452.46</ele>
        <time>2018-04-18T08:08:35Z</time>
      </trkpt>
      <trkpt lat="45.00469" lon="6.51066">
        <ele>2453.9</ele>
        <time>2018-04-18T08:08:53Z</time>
      </trkpt>
      <trkpt lat="45.00472" lon="6.51072">
        <ele>2455.82</ele>
        <time>2018-04-18T08:09:08Z</time>
      </trkpt>
      <trkpt lat="45.00475" lon="6.5108">
        <ele>2457.27</ele>
        <time>2018-04-18T08:09:24Z</time>
      </trkpt>
      <trkpt lat="45.00476" lon="6.51086">
        <ele>2458.71</ele>
        <time>2018-04-18T08:09:39Z</time>
      </trkpt>
      <trkpt lat="45.0048" lon="6.51092">
        <ele>2460.63</ele>
        <time>2018-04-18T08:09:55Z</time>
      </trkpt>
      <trkpt lat="45.00484" lon="6.51097">
        <ele>2462.07</ele>
        <time>2018-04-18T08:10:12Z</time>
      </trkpt>
      <trkpt lat="45.00487" lon="6.51104">
        <ele>2463.52</ele>
        <time>2018-04-18T08:10:27Z</time>
      </trkpt>
      <trkpt lat="45.0049" lon="6.5111">
        <ele>2465.44</ele>
        <time>2018-04-18T08:10:43Z</time>
      </trkpt>
      <trkpt lat="45.00494" lon="6.51114">
        <ele>2467.36</ele>
        <time>2018-04-18T08:11:01Z</time>
      </trkpt>
      <trkpt lat="45.00498" lon="6.5112">
        <ele>2468.8</ele>
        <time>2018-04-18T08:11:17Z</time>
      </trkpt>
      <trkpt lat="45.00502" lon="6.51127">
        <ele>2469.76</ele>
        <time>2018-04-18T08:11:32Z</time>
      </trkpt>
      <trkpt lat="45.00504" lon="6.51133">
        <ele>2471.21</ele>
        <time>2018-04-18T08:11:47Z</time>
      </trkpt>
      <trkpt lat="45.00509" lon="6.51137">
        <ele>2472.65</ele>
        <time>2018-04-18T08:12:01Z</time>
      </trkpt>
      <trkpt lat="45.00514" lon="6.51141">
        <ele>2474.09</ele>
        <time>2018-04-18T08:12:15Z</time>
      </trkpt>
      <trkpt lat="45.00519" lon="6.51146">
        <ele>2475.53</ele>
        <time>2018-04-18T08:12:31Z</time>
      </trkpt>
      <trkpt lat="45.00526" lon="6.51149">
        <ele>2476.97</ele>
        <time>2018-04-18T08:12:47Z</time>
      </trkpt>
      <trkpt lat="45.00531" lon="6.51151">
        <ele>2479.86</ele>
        <time>2018-04-18T08:13:00Z</time>
      </trkpt>
      <trkpt lat="45.00541" lon="6.51149">
        <ele>2480.34</ele>
        <time>2018-04-18T08:13:19Z</time>
      </trkpt>
      <trkpt lat="45.00549" lon="6.51154">
        <ele>2481.78</ele>
        <time>2018-04-18T08:13:37Z</time>
      </trkpt>
      <trkpt lat="45.00555" lon="6.51156">
        <ele>2484.66</ele>
        <time>2018-04-18T08:13:54Z</time>
      </trkpt>
      <trkpt lat="45.00557" lon="6.51164">
        <ele>2487.55</ele>
        <time>2018-04-18T08:14:15Z</time>
      </trkpt>
      <trkpt lat="45.00558" lon="6.51176">
        <ele>2489.47</ele>
        <time>2018-04-18T08:14:35Z</time>
      </trkpt>
      <trkpt lat="45.00562" lon="6.51186">
        <ele>2490.91</ele>
        <time>2018-04-18T08:14:54Z</time>
      </trkpt>
      <trkpt lat="45.00563" lon="6.51195">
        <ele>2492.84</ele>
        <time>2018-04-18T08:15:11Z</time>
      </trkpt>
      <trkpt lat="45.00566" lon="6.51203">
        <ele>2494.28</ele>
        <time>2018-04-18T08:15:27Z</time>
      </trkpt>
      <trkpt lat="45.00569" lon="6.5121">
        <ele>2495.72</ele>
        <time>2018-04-18T08:15:43Z</time>
      </trkpt>
      <trkpt lat="45.00573" lon="6.51217">
        <ele>2497.16</ele>
        <time>2018-04-18T08:15:59Z</time>
      </trkpt>
      <trkpt lat="45.00578" lon="6.51225">
        <ele>2499.08</ele>
        <time>2018-04-18T08:16:17Z</time>
      </trkpt>
      <trkpt lat="45.00583" lon="6.51231">
        <ele>2500.53</ele>
        <time>2018-04-18T08:16:33Z</time>
      </trkpt>
      <trkpt lat="45.00588" lon="6.51237">
        <ele>2501.97</ele>
        <time>2018-04-18T08:16:51Z</time>
      </trkpt>
      <trkpt lat="45.00591" lon="6.51242">
        <ele>2503.41</ele>
        <time>2018-04-18T08:17:07Z</time>
      </trkpt>
      <trkpt lat="45.00595" lon="6.51249">
        <ele>2504.85</ele>
        <time>2018-04-18T08:17:24Z</time>
      </trkpt>
      <trkpt lat="45.006" lon="6.51254">
        <ele>2506.77</ele>
        <time>2018-04-18T08:17:41Z</time>
      </trkpt>
      <trkpt lat="45.00604" lon="6.51261">
        <ele>2508.7</ele>
        <time>2018-04-18T08:17:59Z</time>
      </trkpt>
      <trkpt lat="45.00609" lon="6.51269">
        <ele>2510.14</ele>
        <time>2018-04-18T08:18:18Z</time>
      </trkpt>
      <trkpt lat="45.00614" lon="6.51277">
        <ele>2512.54</ele>
        <time>2018-04-18T08:18:38Z</time>
      </trkpt>
      <trkpt lat="45.00618" lon="6.5128">
        <ele>2513.98</ele>
        <time>2018-04-18T08:18:54Z</time>
      </trkpt>
      <trkpt lat="45.00623" lon="6.51284">
        <ele>2515.43</ele>
        <time>2018-04-18T08:19:11Z</time>
      </trkpt>
      <trkpt lat="45.00628" lon="6.51285">
        <ele>2516.87</ele>
        <time>2018-04-18T08:19:29Z</time>
      </trkpt>
      <trkpt lat="45.00631" lon="6.51292">
        <ele>2518.79</ele>
        <time>2018-04-18T08:19:45Z</time>
      </trkpt>
      <trkpt lat="45.00639" lon="6.51295">
        <ele>2520.23</ele>
        <time>2018-04-18T08:20:00Z</time>
      </trkpt>
      <trkpt lat="45.00644" lon="6.51297">
        <ele>2521.68</ele>
        <time>2018-04-18T08:20:14Z</time>
      </trkpt>
      <trkpt lat="45.00648" lon="6.51296">
        <ele>2523.12</ele>
        <time>2018-04-18T08:20:31Z</time>
      </trkpt>
      <trkpt lat="45.00655" lon="6.51294">
        <ele>2524.56</ele>
        <time>2018-04-18T08:20:48Z</time>
      </trkpt>
      <trkpt lat="45.00658" lon="6.51295">
        <ele>2526.48</ele>
        <time>2018-04-18T08:21:04Z</time>
      </trkpt>
      <trkpt lat="45.0066" lon="6.51296">
        <ele>2528.89</ele>
        <time>2018-04-18T08:21:22Z</time>
      </trkpt>
      <trkpt lat="45.00665" lon="6.51301">
        <ele>2530.33</ele>
        <time>2018-04-18T08:21:38Z</time>
      </trkpt>
      <trkpt lat="45.00668" lon="6.51307">
        <ele>2532.25</ele>
        <time>2018-04-18T08:21:57Z</time>
      </trkpt>
      <trkpt lat="45.00673" lon="6.51312">
        <ele>2534.65</ele>
        <time>2018-04-18T08:22:16Z</time>
      </trkpt>
      <trkpt lat="45.00677" lon="6.51316">
        <ele>2537.06</ele>
        <time>2018-04-18T08:22:35Z</time>
      </trkpt>
      <trkpt lat="45.00679" lon="6.51321">
        <ele>2538.02</ele>
        <time>2018-04-18T08:22:50Z</time>
      </trkpt>
      <trkpt lat="45.00682" lon="6.51324">
        <ele>2540.9</ele>
        <time>2018-04-18T08:23:06Z</time>
      </trkpt>
      <trkpt lat="45.00688" lon="6.51332">
        <ele>2540.9</ele>
        <time>2018-04-18T08:23:23Z</time>
      </trkpt>
      <trkpt lat="45.00688" lon="6.51338">
        <ele>2541.38</ele>
        <time>2018-04-18T08:23:53Z</time>
      </trkpt>
      <trkpt lat="45.00696" lon="6.51348">
        <ele>2542.82</ele>
        <time>2018-04-18T08:24:10Z</time>
      </trkpt>
      <trkpt lat="45.00704" lon="6.51358">
        <ele>2544.27</ele>
        <time>2018-04-18T08:24:28Z</time>
      </trkpt>
      <trkpt lat="45.00711" lon="6.51367">
        <ele>2545.23</ele>
        <time>2018-04-18T08:24:45Z</time>
      </trkpt>
      <trkpt lat="45.0072" lon="6.5138">
        <ele>2545.71</ele>
        <time>2018-04-18T08:25:02Z</time>
      </trkpt>
      <trkpt lat="45.00729" lon="6.51391">
        <ele>2545.71</ele>
        <time>2018-04-18T08:25:17Z</time>
      </trkpt>
      <trkpt lat="45.00736" lon="6.51405">
        <ele>2547.15</ele>
        <time>2018-04-18T08:25:36Z</time>
      </trkpt>
      <trkpt lat="45.00743" lon="6.51413">
        <ele>2548.59</ele>
        <time>2018-04-18T08:25:53Z</time>
      </trkpt>
      <trkpt lat="45.00753" lon="6.5142">
        <ele>2550.51</ele>
        <time>2018-04-18T08:26:10Z</time>
      </trkpt>
      <trkpt lat="45.00758" lon="6.51426">
        <ele>2551.48</ele>
        <time>2018-04-18T08:26:25Z</time>
      </trkpt>
      <trkpt lat="45.00763" lon="6.51433">
        <ele>2552.92</ele>
        <time>2018-04-18T08:26:40Z</time>
      </trkpt>
      <trkpt lat="45.00768" lon="6.51438">
        <ele>2554.36</ele>
        <time>2018-04-18T08:26:57Z</time>
      </trkpt>
      <trkpt lat="45.00774" lon="6.51441">
        <ele>2555.8</ele>
        <time>2018-04-18T08:27:13Z</time>
      </trkpt>
      <trkpt lat="45.00781" lon="6.51443">
        <ele>2556.76</ele>
        <time>2018-04-18T08:27:25Z</time>
      </trkpt>
      <trkpt lat="45.00785" lon="6.51445">
        <ele>2558.69</ele>
        <time>2018-04-18T08:27:41Z</time>
      </trkpt>
      <trkpt lat="45.0079" lon="6.51449">
        <ele>2559.65</ele>
        <time>2018-04-18T08:27:56Z</time>
      </trkpt>
      <trkpt lat="45.00794" lon="6.51453">
        <ele>2561.09</ele>
        <time>2018-04-18T08:28:11Z</time>
      </trkpt>
      <trkpt lat="45.008" lon="6.51454">
        <ele>2562.05</ele>
        <time>2018-04-18T08:28:25Z</time>
      </trkpt>
      <trkpt lat="45.00807" lon="6.51458">
        <ele>2563.49</ele>
        <time>2018-04-18T08:28:39Z</time>
      </trkpt>
      <trkpt lat="45.00812" lon="6.51459">
        <ele>2564.45</ele>
        <time>2018-04-18T08:28:52Z</time>
      </trkpt>
      <trkpt lat="45.00819" lon="6.51462">
        <ele>2565.42</ele>
        <time>2018-04-18T08:29:06Z</time>
      </trkpt>
      <trkpt lat="45.00828" lon="6.51465">
        <ele>2566.38</ele>
        <time>2018-04-18T08:29:22Z</time>
      </trkpt>
      <trkpt lat="45.00832" lon="6.51467">
        <ele>2568.3</ele>
        <time>2018-04-18T08:29:38Z</time>
      </trkpt>
      <trkpt lat="45.00837" lon="6.51469">
        <ele>2569.26</ele>
        <time>2018-04-18T08:29:54Z</time>
      </trkpt>
      <trkpt lat="45.00843" lon="6.51475">
        <ele>2571.18</ele>
        <time>2018-04-18T08:30:15Z</time>
      </trkpt>
      <trkpt lat="45.00849" lon="6.51473">
        <ele>2573.11</ele>
        <time>2018-04-18T08:30:32Z</time>
      </trkpt>
      <trkpt lat="45.00856" lon="6.51477">
        <ele>2574.55</ele>
        <time>2018-04-18T08:30:49Z</time>
      </trkpt>
      <trkpt lat="45.00857" lon="6.51472">
        <ele>2576.47</ele>
        <time>2018-04-18T08:31:07Z</time>
      </trkpt>
      <trkpt lat="45.0086" lon="6.5147">
        <ele>2577.91</ele>
        <time>2018-04-18T08:31:22Z</time>
      </trkpt>
      <trkpt lat="45.00864" lon="6.51465">
        <ele>2579.35</ele>
        <time>2018-04-18T08:31:38Z</time>
      </trkpt>
      <trkpt lat="45.00868" lon="6.51463">
        <ele>2580.8</ele>
        <time>2018-04-18T08:31:52Z</time>
      </trkpt>
      <trkpt lat="45.00873" lon="6.51462">
        <ele>2582.72</ele>
        <time>2018-04-18T08:32:09Z</time>
      </trkpt>
      <trkpt lat="45.0088" lon="6.51458">
        <ele>2584.64</ele>
        <time>2018-04-18T08:32:27Z</time>
      </trkpt>
      <trkpt lat="45.00879" lon="6.51459">
        <ele>2586.56</ele>
        <time>2018-04-18T08:32:42Z</time>
      </trkpt>
      <trkpt lat="45.00883" lon="6.51464">
        <ele>2588.01</ele>
        <time>2018-04-18T08:32:57Z</time>
      </trkpt>
      <trkpt lat="45.00892" lon="6.51464">
        <ele>2589.45</ele>
        <time>2018-04-18T08:33:15Z</time>
      </trkpt>
      <trkpt lat="45.00902" lon="6.51466">
        <ele>2591.37</ele>
        <time>2018-04-18T08:33:34Z</time>
      </trkpt>
      <trkpt lat="45.00908" lon="6.51468">
        <ele>2593.29</ele>
        <time>2018-04-18T08:33:52Z</time>
      </trkpt>
      <trkpt lat="45.00912" lon="6.51474">
        <ele>2594.74</ele>
        <time>2018-04-18T08:34:09Z</time>
      </trkpt>
      <trkpt lat="45.00914" lon="6.51472">
        <ele>2595.22</ele>
        <time>2018-04-18T08:34:31Z</time>
      </trkpt>
      <trkpt lat="45.00917" lon="6.51474">
        <ele>2596.18</ele>
        <time>2018-04-18T08:34:43Z</time>
      </trkpt>
      <trkpt lat="45.00919" lon="6.51471">
        <ele>2596.18</ele>
        <time>2018-04-18T08:34:57Z</time>
      </trkpt>
      <trkpt lat="45.00917" lon="6.51471">
        <ele>2595.7</ele>
        <time>2018-04-18T08:35:12Z</time>
      </trkpt>
      <trkpt lat="45.00917" lon="6.51475">
        <ele>2595.7</ele>
        <time>2018-04-18T08:35:36Z</time>
      </trkpt>
      <trkpt lat="45.00919" lon="6.51475">
        <ele>2595.7</ele>
        <time>2018-04-18T08:36:12Z</time>
      </trkpt>
      <trkpt lat="45.00917" lon="6.51478">
        <ele>2596.18</ele>
        <time>2018-04-18T08:36:41Z</time>
      </trkpt>
      <trkpt lat="45.00916" lon="6.51481">
        <ele>2596.18</ele>
        <time>2018-04-18T08:37:20Z</time>
      </trkpt>
      <trkpt lat="45.00911" lon="6.51475">
        <ele>2596.18</ele>
        <time>2018-04-18T08:37:56Z</time>
      </trkpt>
      <trkpt lat="45.00912" lon="6.5147">
        <ele>2599.06</ele>
        <time>2018-04-18T08:38:30Z</time>
      </trkpt>
      <trkpt lat="45.00912" lon="6.51465">
        <ele>2598.1</ele>
        <time>2018-04-18T08:38:48Z</time>
      </trkpt>
      <trkpt lat="45.00917" lon="6.51473">
        <ele>2597.14</ele>
        <time>2018-04-18T08:39:13Z</time>
      </trkpt>
      <trkpt lat="45.00918" lon="6.51477">
        <ele>2598.58</ele>
        <time>2018-04-18T08:39:26Z</time>
      </trkpt>
      <trkpt lat="45.00923" lon="6.51488">
        <ele>2598.58</ele>
        <time>2018-04-18T08:39:42Z</time>
      </trkpt>
      <trkpt lat="45.00927" lon="6.51487">
        <ele>2599.06</ele>
        <time>2018-04-18T08:39:58Z</time>
      </trkpt>
      <trkpt lat="45.00934" lon="6.51494">
        <ele>2599.54</ele>
        <time>2018-04-18T08:40:11Z</time>
      </trkpt>
      <trkpt lat="45.00943" lon="6.51497">
        <ele>2600.98</ele>
        <time>2018-04-18T08:40:27Z</time>
      </trkpt>
      <trkpt lat="45.00949" lon="6.51501">
        <ele>2601.95</ele>
        <time>2018-04-18T08:40:41Z</time>
      </trkpt>
      <trkpt lat="45.00957" lon="6.51502">
        <ele>2603.87</ele>
        <time>2018-04-18T08:40:59Z</time>
      </trkpt>
      <trkpt lat="45.00962" lon="6.515">
        <ele>2605.31</ele>
        <time>2018-04-18T08:41:12Z</time>
      </trkpt>
      <trkpt lat="45.00966" lon="6.51499">
        <ele>2606.27</ele>
        <time>2018-04-18T08:41:26Z</time>
      </trkpt>
      <trkpt lat="45.00972" lon="6.51499">
        <ele>2608.19</ele>
        <time>2018-04-18T08:41:43Z</time>
      </trkpt>
      <trkpt lat="45.00977" lon="6.51502">
        <ele>2610.12</ele>
        <time>2018-04-18T08:42:01Z</time>
      </trkpt>
      <trkpt lat="45.00983" lon="6.51501">
        <ele>2612.04</ele>
        <time>2018-04-18T08:42:17Z</time>
      </trkpt>
      <trkpt lat="45.00988" lon="6.51496">
        <ele>2613.48</ele>
        <time>2018-04-18T08:42:32Z</time>
      </trkpt>
      <trkpt lat="45.00993" lon="6.51494">
        <ele>2614.44</ele>
        <time>2018-04-18T08:42:47Z</time>
      </trkpt>
      <trkpt lat="45.00997" lon="6.51492">
        <ele>2615.88</ele>
        <time>2018-04-18T08:43:01Z</time>
      </trkpt>
      <trkpt lat="45.01003" lon="6.5149">
        <ele>2617.33</ele>
        <time>2018-04-18T08:43:15Z</time>
      </trkpt>
      <trkpt lat="45.01004" lon="6.51486">
        <ele>2618.29</ele>
        <time>2018-04-18T08:43:30Z</time>
      </trkpt>
      <trkpt lat="45.01011" lon="6.5148">
        <ele>2619.73</ele>
        <time>2018-04-18T08:43:45Z</time>
      </trkpt>
      <trkpt lat="45.01012" lon="6.51475">
        <ele>2621.17</ele>
        <time>2018-04-18T08:44:00Z</time>
      </trkpt>
      <trkpt lat="45.01014" lon="6.51472">
        <ele>2622.13</ele>
        <time>2018-04-18T08:44:14Z</time>
      </trkpt>
      <trkpt lat="45.01013" lon="6.51476">
        <ele>2623.58</ele>
        <time>2018-04-18T08:44:28Z</time>
      </trkpt>
      <trkpt lat="45.01017" lon="6.51481">
        <ele>2625.02</ele>
        <time>2018-04-18T08:44:44Z</time>
      </trkpt>
      <trkpt lat="45.01019" lon="6.51486">
        <ele>2626.94</ele>
        <time>2018-04-18T08:45:00Z</time>
      </trkpt>
      <trkpt lat="45.01023" lon="6.5149">
        <ele>2628.38</ele>
        <time>2018-04-18T08:45:17Z</time>
      </trkpt>
      <trkpt lat="45.01026" lon="6.51493">
        <ele>2630.3</ele>
        <time>2018-04-18T08:45:34Z</time>
      </trkpt>
      <trkpt lat="45.01029" lon="6.51495">
        <ele>2631.75</ele>
        <time>2018-04-18T08:45:50Z</time>
      </trkpt>
      <trkpt lat="45.01036" lon="6.51494">
        <ele>2633.67</ele>
        <time>2018-04-18T08:46:07Z</time>
      </trkpt>
      <trkpt lat="45.01042" lon="6.51489">
        <ele>2635.11</ele>
        <time>2018-04-18T08:46:22Z</time>
      </trkpt>
      <trkpt lat="45.01043" lon="6.51487">
        <ele>2636.07</ele>
        <time>2018-04-18T08:46:34Z</time>
      </trkpt>
      <trkpt lat="45.01043" lon="6.51484">
        <ele>2637.03</ele>
        <time>2018-04-18T08:46:46Z</time>
      </trkpt>
      <trkpt lat="45.01046" lon="6.51479">
        <ele>2638.48</ele>
        <time>2018-04-18T08:47:00Z</time>
      </trkpt>
      <trkpt lat="45.0105" lon="6.51475">
        <ele>2639.92</ele>
        <time>2018-04-18T08:47:13Z</time>
      </trkpt>
      <trkpt lat="45.0105" lon="6.51472">
        <ele>2640.88</ele>
        <time>2018-04-18T08:47:26Z</time>
      </trkpt>
      <trkpt lat="45.01055" lon="6.51468">
        <ele>2642.32</ele>
        <time>2018-04-18T08:47:37Z</time>
      </trkpt>
      <trkpt lat="45.01054" lon="6.51468">
        <ele>2643.28</ele>
        <time>2018-04-18T08:47:49Z</time>
      </trkpt>
      <trkpt lat="45.01047" lon="6.51475">
        <ele>2644.24</ele>
        <time>2018-04-18T08:48:04Z</time>
      </trkpt>
      <trkpt lat="45.01051" lon="6.5148">
        <ele>2646.17</ele>
        <time>2018-04-18T08:48:20Z</time>
      </trkpt>
      <trkpt lat="45.01052" lon="6.51484">
        <ele>2647.13</ele>
        <time>2018-04-18T08:48:35Z</time>
      </trkpt>
      <trkpt lat="45.01054" lon="6.51488">
        <ele>2649.05</ele>
        <time>2018-04-18T08:48:50Z</time>
      </trkpt>
      <trkpt lat="45.01056" lon="6.51491">
        <ele>2650.01</ele>
        <time>2018-04-18T08:49:05Z</time>
      </trkpt>
      <trkpt lat="45.01059" lon="6.51495">
        <ele>2651.45</ele>
        <time>2018-04-18T08:49:20Z</time>
      </trkpt>
      <trkpt lat="45.01062" lon="6.51496">
        <ele>2652.42</ele>
        <time>2018-04-18T08:49:36Z</time>
      </trkpt>
      <trkpt lat="45.01065" lon="6.5149">
        <ele>2653.38</ele>
        <time>2018-04-18T08:49:56Z</time>
      </trkpt>
      <trkpt lat="45.01068" lon="6.51482">
        <ele>2654.82</ele>
        <time>2018-04-18T08:50:10Z</time>
      </trkpt>
      <trkpt lat="45.01069" lon="6.51477">
        <ele>2655.78</ele>
        <time>2018-04-18T08:50:22Z</time>
      </trkpt>
      <trkpt lat="45.01072" lon="6.51471">
        <ele>2656.74</ele>
        <time>2018-04-18T08:50:35Z</time>
      </trkpt>
      <trkpt lat="45.01072" lon="6.51466">
        <ele>2657.7</ele>
        <time>2018-04-18T08:50:50Z</time>
      </trkpt>
      <trkpt lat="45.01073" lon="6.51459">
        <ele>2659.14</ele>
        <time>2018-04-18T08:51:04Z</time>
      </trkpt>
      <trkpt lat="45.01072" lon="6.51454">
        <ele>2660.59</ele>
        <time>2018-04-18T08:51:18Z</time>
      </trkpt>
      <trkpt lat="45.01073" lon="6.51448">
        <ele>2661.55</ele>
        <time>2018-04-18T08:51:32Z</time>
      </trkpt>
      <trkpt lat="45.01074" lon="6.51443">
        <ele>2662.99</ele>
        <time>2018-04-18T08:51:44Z</time>
      </trkpt>
      <trkpt lat="45.01075" lon="6.51438">
        <ele>2663.95</ele>
        <time>2018-04-18T08:51:57Z</time>
      </trkpt>
      <trkpt lat="45.01075" lon="6.51435">
        <ele>2664.91</ele>
        <time>2018-04-18T08:52:10Z</time>
      </trkpt>
      <trkpt lat="45.01076" lon="6.51429">
        <ele>2666.35</ele>
        <time>2018-04-18T08:52:25Z</time>
      </trkpt>
      <trkpt lat="45.01077" lon="6.51424">
        <ele>2668.28</ele>
        <time>2018-04-18T08:52:41Z</time>
      </trkpt>
      <trkpt lat="45.01075" lon="6.51419">
        <ele>2669.72</ele>
        <time>2018-04-18T08:52:56Z</time>
      </trkpt>
      <trkpt lat="45.01075" lon="6.51415">
        <ele>2670.68</ele>
        <time>2018-04-18T08:53:07Z</time>
      </trkpt>
      <trkpt lat="45.01073" lon="6.5141">
        <ele>2671.64</ele>
        <time>2018-04-18T08:53:21Z</time>
      </trkpt>
      <trkpt lat="45.01073" lon="6.51406">
        <ele>2673.08</ele>
        <time>2018-04-18T08:53:38Z</time>
      </trkpt>
      <trkpt lat="45.01071" lon="6.514">
        <ele>2674.52</ele>
        <time>2018-04-18T08:53:54Z</time>
      </trkpt>
      <trkpt lat="45.01071" lon="6.51393">
        <ele>2676.45</ele>
        <time>2018-04-18T08:54:11Z</time>
      </trkpt>
      <trkpt lat="45.01071" lon="6.51387">
        <ele>2677.89</ele>
        <time>2018-04-18T08:54:26Z</time>
      </trkpt>
      <trkpt lat="45.0107" lon="6.51381">
        <ele>2679.33</ele>
        <time>2018-04-18T08:54:42Z</time>
      </trkpt>
      <trkpt lat="45.0107" lon="6.51376">
        <ele>2680.77</ele>
        <time>2018-04-18T08:54:58Z</time>
      </trkpt>
      <trkpt lat="45.01069" lon="6.51372">
        <ele>2681.73</ele>
        <time>2018-04-18T08:55:12Z</time>
      </trkpt>
      <trkpt lat="45.01068" lon="6.51365">
        <ele>2683.66</ele>
        <time>2018-04-18T08:55:30Z</time>
      </trkpt>
      <trkpt lat="45.01068" lon="6.51358">
        <ele>2685.58</ele>
        <time>2018-04-18T08:55:48Z</time>
      </trkpt>
      <trkpt lat="45.01068" lon="6.51351">
        <ele>2687.02</ele>
        <time>2018-04-18T08:56:04Z</time>
      </trkpt>
      <trkpt lat="45.01069" lon="6.51344">
        <ele>2688.46</ele>
        <time>2018-04-18T08:56:20Z</time>
      </trkpt>
      <trkpt lat="45.01067" lon="6.51338">
        <ele>2689.91</ele>
        <time>2018-04-18T08:56:36Z</time>
      </trkpt>
      <trkpt lat="45.01066" lon="6.51333">
        <ele>2691.35</ele>
        <time>2018-04-18T08:56:51Z</time>
      </trkpt>
      <trkpt lat="45.01066" lon="6.51329">
        <ele>2692.79</ele>
        <time>2018-04-18T08:57:06Z</time>
      </trkpt>
      <trkpt lat="45.01066" lon="6.51324">
        <ele>2694.23</ele>
        <time>2018-04-18T08:57:20Z</time>
      </trkpt>
      <trkpt lat="45.01067" lon="6.51321">
        <ele>2695.19</ele>
        <time>2018-04-18T08:57:32Z</time>
      </trkpt>
      <trkpt lat="45.01068" lon="6.51316">
        <ele>2696.64</ele>
        <time>2018-04-18T08:57:44Z</time>
      </trkpt>
      <trkpt lat="45.01066" lon="6.51311">
        <ele>2698.08</ele>
        <time>2018-04-18T08:57:58Z</time>
      </trkpt>
      <trkpt lat="45.01062" lon="6.51307">
        <ele>2699.52</ele>
        <time>2018-04-18T08:58:13Z</time>
      </trkpt>
      <trkpt lat="45.01061" lon="6.51302">
        <ele>2701.44</ele>
        <time>2018-04-18T08:58:27Z</time>
      </trkpt>
      <trkpt lat="45.01061" lon="6.513">
        <ele>2702.88</ele>
        <time>2018-04-18T08:58:44Z</time>
      </trkpt>
      <trkpt lat="45.01064" lon="6.51293">
        <ele>2704.33</ele>
        <time>2018-04-18T08:59:00Z</time>
      </trkpt>
      <trkpt lat="45.01064" lon="6.51285">
        <ele>2705.77</ele>
        <time>2018-04-18T08:59:15Z</time>
      </trkpt>
      <trkpt lat="45.01066" lon="6.51279">
        <ele>2706.73</ele>
        <time>2018-04-18T08:59:29Z</time>
      </trkpt>
      <trkpt lat="45.0107" lon="6.51274">
        <ele>2708.17</ele>
        <time>2018-04-18T08:59:45Z</time>
      </trkpt>
      <trkpt lat="45.01072" lon="6.51268">
        <ele>2709.61</ele>
        <time>2018-04-18T08:59:59Z</time>
      </trkpt>
      <trkpt lat="45.01074" lon="6.51263">
        <ele>2710.57</ele>
        <time>2018-04-18T09:00:13Z</time>
      </trkpt>
      <trkpt lat="45.01077" lon="6.51261">
        <ele>2711.54</ele>
        <time>2018-04-18T09:00:25Z</time>
      </trkpt>
      <trkpt lat="45.01078" lon="6.51258">
        <ele>2712.98</ele>
        <time>2018-04-18T09:00:40Z</time>
      </trkpt>
      <trkpt lat="45.01082" lon="6.51256">
        <ele>2714.9</ele>
        <time>2018-04-18T09:00:57Z</time>
      </trkpt>
      <trkpt lat="45.01085" lon="6.51255">
        <ele>2716.34</ele>
        <time>2018-04-18T09:01:13Z</time>
      </trkpt>
      <trkpt lat="45.01089" lon="6.51255">
        <ele>2718.27</ele>
        <time>2018-04-18T09:01:28Z</time>
      </trkpt>
      <trkpt lat="45.01093" lon="6.51255">
        <ele>2719.23</ele>
        <time>2018-04-18T09:01:44Z</time>
      </trkpt>
      <trkpt lat="45.01097" lon="6.51257">
        <ele>2721.15</ele>
        <time>2018-04-18T09:02:01Z</time>
      </trkpt>
      <trkpt lat="45.01103" lon="6.5125">
        <ele>2722.11</ele>
        <time>2018-04-18T09:02:15Z</time>
      </trkpt>
      <trkpt lat="45.01105" lon="6.51244">
        <ele>2723.55</ele>
        <time>2018-04-18T09:02:28Z</time>
      </trkpt>
      <trkpt lat="45.01105" lon="6.51239">
        <ele>2724.99</ele>
        <time>2018-04-18T09:02:42Z</time>
      </trkpt>
      <trkpt lat="45.01109" lon="6.51234">
        <ele>2726.44</ele>
        <time>2018-04-18T09:02:57Z</time>
      </trkpt>
      <trkpt lat="45.01108" lon="6.51231">
        <ele>2726.92</ele>
        <time>2018-04-18T09:03:08Z</time>
      </trkpt>
      <trkpt lat="45.0111" lon="6.51229">
        <ele>2727.88</ele>
        <time>2018-04-18T09:03:27Z</time>
      </trkpt>
      <trkpt lat="45.01111" lon="6.51224">
        <ele>2729.8</ele>
        <time>2018-04-18T09:03:41Z</time>
      </trkpt>
      <trkpt lat="45.01111" lon="6.51225">
        <ele>2731.24</ele>
        <time>2018-04-18T09:03:55Z</time>
      </trkpt>
      <trkpt lat="45.01111" lon="6.51232">
        <ele>2732.2</ele>
        <time>2018-04-18T09:04:12Z</time>
      </trkpt>
      <trkpt lat="45.01114" lon="6.51237">
        <ele>2733.65</ele>
        <time>2018-04-18T09:04:26Z</time>
      </trkpt>
      <trkpt lat="45.01118" lon="6.5124">
        <ele>2735.09</ele>
        <time>2018-04-18T09:04:42Z</time>
      </trkpt>
      <trkpt lat="45.01122" lon="6.51242">
        <ele>2736.53</ele>
        <time>2018-04-18T09:04:57Z</time>
      </trkpt>
      <trkpt lat="45.01126" lon="6.51245">
        <ele>2737.49</ele>
        <time>2018-04-18T09:05:11Z</time>
      </trkpt>
      <trkpt lat="45.01129" lon="6.51248">
        <ele>2738.45</ele>
        <time>2018-04-18T09:05:27Z</time>
      </trkpt>
      <trkpt lat="45.01133" lon="6.5124">
        <ele>2739.89</ele>
        <time>2018-04-18T09:05:42Z</time>
      </trkpt>
      <trkpt lat="45.01131" lon="6.51235">
        <ele>2739.89</ele>
        <time>2018-04-18T09:06:02Z</time>
      </trkpt>
      <trkpt lat="45.01132" lon="6.51229">
        <ele>2741.82</ele>
        <time>2018-04-18T09:06:17Z</time>
      </trkpt>
      <trkpt lat="45.01132" lon="6.51223">
        <ele>2742.78</ele>
        <time>2018-04-18T09:06:32Z</time>
      </trkpt>
      <trkpt lat="45.01134" lon="6.51217">
        <ele>2744.22</ele>
        <time>2018-04-18T09:06:47Z</time>
      </trkpt>
      <trkpt lat="45.01134" lon="6.51213">
        <ele>2745.66</ele>
        <time>2018-04-18T09:07:01Z</time>
      </trkpt>
      <trkpt lat="45.01134" lon="6.5121">
        <ele>2746.62</ele>
        <time>2018-04-18T09:07:16Z</time>
      </trkpt>
      <trkpt lat="45.01132" lon="6.51214">
        <ele>2747.59</ele>
        <time>2018-04-18T09:07:30Z</time>
      </trkpt>
      <trkpt lat="45.01133" lon="6.51215">
        <ele>2748.55</ele>
        <time>2018-04-18T09:07:46Z</time>
      </trkpt>
      <trkpt lat="45.01139" lon="6.51219">
        <ele>2749.51</ele>
        <time>2018-04-18T09:08:02Z</time>
      </trkpt>
      <trkpt lat="45.01144" lon="6.5122">
        <ele>2750.95</ele>
        <time>2018-04-18T09:08:17Z</time>
      </trkpt>
      <trkpt lat="45.01147" lon="6.51225">
        <ele>2752.39</ele>
        <time>2018-04-18T09:08:33Z</time>
      </trkpt>
      <trkpt lat="45.0115" lon="6.5123">
        <ele>2753.83</ele>
        <time>2018-04-18T09:08:52Z</time>
      </trkpt>
      <trkpt lat="45.01149" lon="6.51231">
        <ele>2754.31</ele>
        <time>2018-04-18T09:09:20Z</time>
      </trkpt>
      <trkpt lat="45.01152" lon="6.51233">
        <ele>2754.8</ele>
        <time>2018-04-18T09:09:44Z</time>
      </trkpt>
      <trkpt lat="45.01152" lon="6.51229">
        <ele>2755.76</ele>
        <time>2018-04-18T09:09:57Z</time>
      </trkpt>
      <trkpt lat="45.01151" lon="6.51224">
        <ele>2757.2</ele>
        <time>2018-04-18T09:10:12Z</time>
      </trkpt>
      <trkpt lat="45.01152" lon="6.51219">
        <ele>2758.64</ele>
        <time>2018-04-18T09:10:27Z</time>
      </trkpt>
      <trkpt lat="45.01153" lon="6.51214">
        <ele>2759.6</ele>
        <time>2018-04-18T09:10:42Z</time>
      </trkpt>
      <trkpt lat="45.01153" lon="6.5121">
        <ele>2761.04</ele>
        <time>2018-04-18T09:10:59Z</time>
      </trkpt>
      <trkpt lat="45.01156" lon="6.51205">
        <ele>2762</ele>
        <time>2018-04-18T09:11:14Z</time>
      </trkpt>
      <trkpt lat="45.01157" lon="6.51201">
        <ele>2763.45</ele>
        <time>2018-04-18T09:11:28Z</time>
      </trkpt>
      <trkpt lat="45.01158" lon="6.51198">
        <ele>2764.41</ele>
        <time>2018-04-18T09:11:45Z</time>
      </trkpt>
      <trkpt lat="45.0116" lon="6.51193">
        <ele>2766.33</ele>
        <time>2018-04-18T09:12:01Z</time>
      </trkpt>
      <trkpt lat="45.01161" lon="6.51191">
        <ele>2766.81</ele>
        <time>2018-04-18T09:12:18Z</time>
      </trkpt>
      <trkpt lat="45.01164" lon="6.51185">
        <ele>2768.73</ele>
        <time>2018-04-18T09:12:38Z</time>
      </trkpt>
      <trkpt lat="45.01166" lon="6.5118">
        <ele>2769.7</ele>
        <time>2018-04-18T09:12:54Z</time>
      </trkpt>
      <trkpt lat="45.01169" lon="6.51178">
        <ele>2770.66</ele>
        <time>2018-04-18T09:13:10Z</time>
      </trkpt>
      <trkpt lat="45.01169" lon="6.51176">
        <ele>2771.62</ele>
        <time>2018-04-18T09:13:26Z</time>
      </trkpt>
      <trkpt lat="45.01171" lon="6.51173">
        <ele>2772.58</ele>
        <time>2018-04-18T09:13:40Z</time>
      </trkpt>
      <trkpt lat="45.01173" lon="6.5117">
        <ele>2773.54</ele>
        <time>2018-04-18T09:13:56Z</time>
      </trkpt>
      <trkpt lat="45.01176" lon="6.51166">
        <ele>2774.98</ele>
        <time>2018-04-18T09:14:15Z</time>
      </trkpt>
      <trkpt lat="45.01178" lon="6.51162">
        <ele>2776.91</ele>
        <time>2018-04-18T09:14:33Z</time>
      </trkpt>
      <trkpt lat="45.01182" lon="6.51158">
        <ele>2777.87</ele>
        <time>2018-04-18T09:14:51Z</time>
      </trkpt>
      <trkpt lat="45.01186" lon="6.51155">
        <ele>2779.79</ele>
        <time>2018-04-18T09:15:06Z</time>
      </trkpt>
      <trkpt lat="45.01187" lon="6.51153">
        <ele>2780.27</ele>
        <time>2018-04-18T09:15:22Z</time>
      </trkpt>
      <trkpt lat="45.01192" lon="6.51151">
        <ele>2781.71</ele>
        <time>2018-04-18T09:15:42Z</time>
      </trkpt>
      <trkpt lat="45.01193" lon="6.5115">
        <ele>2782.67</ele>
        <time>2018-04-18T09:16:03Z</time>
      </trkpt>
      <trkpt lat="45.01198" lon="6.51148">
        <ele>2784.12</ele>
        <time>2018-04-18T09:16:20Z</time>
      </trkpt>
      <trkpt lat="45.01203" lon="6.51148">
        <ele>2785.08</ele>
        <time>2018-04-18T09:16:36Z</time>
      </trkpt>
      <trkpt lat="45.01204" lon="6.51145">
        <ele>2785.08</ele>
        <time>2018-04-18T09:17:02Z</time>
      </trkpt>
      <trkpt lat="45.01205" lon="6.51145">
        <ele>2785.08</ele>
        <time>2018-04-18T09:17:25Z</time>
      </trkpt>
      <trkpt lat="45.01204" lon="6.51146">
        <ele>2785.56</ele>
        <time>2018-04-18T09:17:54Z</time>
      </trkpt>
      <trkpt lat="45.01205" lon="6.51147">
        <ele>2785.08</ele>
        <time>2018-04-18T09:18:19Z</time>
      </trkpt>
      <trkpt lat="45.01212" lon="6.51144">
        <ele>2786.52</ele>
        <time>2018-04-18T09:18:33Z</time>
      </trkpt>
      <trkpt lat="45.01222" lon="6.51137">
        <ele>2787.96</ele>
        <time>2018-04-18T09:18:49Z</time>
      </trkpt>
      <trkpt lat="45.01232" lon="6.5113">
        <ele>2789.4</ele>
        <time>2018-04-18T09:19:08Z</time>
      </trkpt>
      <trkpt lat="45.01241" lon="6.51128">
        <ele>2790.84</ele>
        <time>2018-04-18T09:19:24Z</time>
      </trkpt>
      <trkpt lat="45.01248" lon="6.51124">
        <ele>2791.81</ele>
        <time>2018-04-18T09:19:42Z</time>
      </trkpt>
      <trkpt lat="45.01256" lon="6.51117">
        <ele>2792.77</ele>
        <time>2018-04-18T09:20:00Z</time>
      </trkpt>
      <trkpt lat="45.01263" lon="6.51114">
        <ele>2794.21</ele>
        <time>2018-04-18T09:20:16Z</time>
      </trkpt>
      <trkpt lat="45.0127" lon="6.5111">
        <ele>2795.65</ele>
        <time>2018-04-18T09:20:34Z</time>
      </trkpt>
      <trkpt lat="45.01276" lon="6.51105">
        <ele>2797.09</ele>
        <time>2018-04-18T09:20:52Z</time>
      </trkpt>
      <trkpt lat="45.01284" lon="6.51101">
        <ele>2798.54</ele>
        <time>2018-04-18T09:21:12Z</time>
      </trkpt>
      <trkpt lat="45.0129" lon="6.51093">
        <ele>2799.02</ele>
        <time>2018-04-18T09:21:30Z</time>
      </trkpt>
      <trkpt lat="45.01298" lon="6.51088">
        <ele>2800.46</ele>
        <time>2018-04-18T09:21:47Z</time>
      </trkpt>
      <trkpt lat="45.013" lon="6.51086">
        <ele>2800.94</ele>
        <time>2018-04-18T09:22:02Z</time>
      </trkpt>
      <trkpt lat="45.01302" lon="6.51083">
        <ele>2801.42</ele>
        <time>2018-04-18T09:22:17Z</time>
      </trkpt>
      <trkpt lat="45.01307" lon="6.51081">
        <ele>2802.38</ele>
        <time>2018-04-18T09:22:30Z</time>
      </trkpt>
      <trkpt lat="45.01313" lon="6.51078">
        <ele>2804.3</ele>
        <time>2018-04-18T09:22:48Z</time>
      </trkpt>
      <trkpt lat="45.01318" lon="6.51075">
        <ele>2806.23</ele>
        <time>2018-04-18T09:23:04Z</time>
      </trkpt>
      <trkpt lat="45.01321" lon="6.51072">
        <ele>2807.67</ele>
        <time>2018-04-18T09:23:20Z</time>
      </trkpt>
      <trkpt lat="45.01325" lon="6.51069">
        <ele>2810.07</ele>
        <time>2018-04-18T09:23:37Z</time>
      </trkpt>
      <trkpt lat="45.01327" lon="6.51069">
        <ele>2813.44</ele>
        <time>2018-04-18T09:23:46Z</time>
      </trkpt>
      <trkpt lat="45.01328" lon="6.5107">
        <ele>2813.44</ele>
        <time>2018-04-18T09:23:47Z</time>
      </trkpt>
      <trkpt lat="45.01329" lon="6.51072">
        <ele>2811.99</ele>
        <time>2018-04-18T09:23:53Z</time>
      </trkpt>
      <trkpt lat="45.01333" lon="6.51067">
        <ele>2813.44</ele>
        <time>2018-04-18T09:24:13Z</time>
      </trkpt>
      <trkpt lat="45.01336" lon="6.51065">
        <ele>2814.4</ele>
        <time>2018-04-18T09:24:30Z</time>
      </trkpt>
      <trkpt lat="45.01338" lon="6.51065">
        <ele>2816.8</ele>
        <time>2018-04-18T09:24:50Z</time>
      </trkpt>
      <trkpt lat="45.0134" lon="6.51062">
        <ele>2816.8</ele>
        <time>2018-04-18T09:25:04Z</time>
      </trkpt>
      <trkpt lat="45.0134" lon="6.51061">
        <ele>2816.32</ele>
        <time>2018-04-18T09:25:26Z</time>
      </trkpt>
      <trkpt lat="45.0134" lon="6.51062">
        <ele>2816.8</ele>
        <time>2018-04-18T09:25:48Z</time>
      </trkpt>
      <trkpt lat="45.01341" lon="6.51063">
        <ele>2816.8</ele>
        <time>2018-04-18T09:26:07Z</time>
      </trkpt>
      <trkpt lat="45.0134" lon="6.51062">
        <ele>2816.8</ele>
        <time>2018-04-18T09:26:23Z</time>
      </trkpt>
      <trkpt lat="45.01343" lon="6.51063">
        <ele>2817.28</ele>
        <time>2018-04-18T09:26:41Z</time>
      </trkpt>
      <trkpt lat="45.01343" lon="6.51064">
        <ele>2817.28</ele>
        <time>2018-04-18T09:26:58Z</time>
      </trkpt>
      <trkpt lat="45.01343" lon="6.51065">
        <ele>2816.8</ele>
        <time>2018-04-18T09:27:30Z</time>
      </trkpt>
      <trkpt lat="45.01339" lon="6.51061">
        <ele>2816.8</ele>
        <time>2018-04-18T09:27:43Z</time>
      </trkpt>
      <trkpt lat="45.01341" lon="6.51062">
        <ele>2816.32</ele>
        <time>2018-04-18T09:28:00Z</time>
      </trkpt>
      <trkpt lat="45.01341" lon="6.51059">
        <ele>2815.84</ele>
        <time>2018-04-18T09:28:21Z</time>
      </trkpt>
      <trkpt lat="45.01342" lon="6.5106">
        <ele>2815.84</ele>
        <time>2018-04-18T09:29:11Z</time>
      </trkpt>
      <trkpt lat="45.01342" lon="6.51062">
        <ele>2815.84</ele>
        <time>2018-04-18T09:29:54Z</time>
      </trkpt>
      <trkpt lat="45.01341" lon="6.51061">
        <ele>2816.32</ele>
        <time>2018-04-18T09:30:44Z</time>
      </trkpt>
      <trkpt lat="45.01341" lon="6.51061">
        <ele>2815.84</ele>
        <time>2018-04-18T09:31:23Z</time>
      </trkpt>
      <trkpt lat="45.01341" lon="6.51061">
        <ele>2815.84</ele>
        <time>2018-04-18T09:31:58Z</time>
      </trkpt>
      <trkpt lat="45.01342" lon="6.5106">
        <ele>2815.84</ele>
        <time>2018-04-18T09:32:23Z</time>
      </trkpt>
      <trkpt lat="45.01342" lon="6.51061">
        <ele>2815.84</ele>
        <time>2018-04-18T09:32:53Z</time>
      </trkpt>
      <trkpt lat="45.01343" lon="6.51061">
        <ele>2815.84</ele>
        <time>2018-04-18T09:33:29Z</time>
      </trkpt>
      <trkpt lat="45.01341" lon="6.51063">
        <ele>2816.32</ele>
        <time>2018-04-18T09:34:03Z</time>
      </trkpt>
      <trkpt lat="45.01342" lon="6.51064">
        <ele>2816.8</ele>
        <time>2018-04-18T09:34:42Z</time>
      </trkpt>
      <trkpt lat="45.01342" lon="6.51064">
        <ele>2816.32</ele>
        <time>2018-04-18T09:35:20Z</time>
      </trkpt>
      <trkpt lat="45.01343" lon="6.51062">
        <ele>2816.32</ele>
        <time>2018-04-18T09:35:59Z</time>
      </trkpt>
      <trkpt lat="45.01343" lon="6.51062">
        <ele>2816.32</ele>
        <time>2018-04-18T09:36:41Z</time>
      </trkpt>
      <trkpt lat="45.01343" lon="6.51061">
        <ele>2816.8</ele>
        <time>2018-04-18T09:37:15Z</time>
      </trkpt>
      <trkpt lat="45.01343" lon="6.51061">
        <ele>2816.8</ele>
        <time>2018-04-18T09:37:48Z</time>
      </trkpt>
      <trkpt lat="45.01342" lon="6.51059">
        <ele>2817.28</ele>
        <time>2018-04-18T09:38:30Z</time>
      </trkpt>
      <trkpt lat="45.01339" lon="6.51061">
        <ele>2817.28</ele>
        <time>2018-04-18T09:39:08Z</time>
      </trkpt>
      <trkpt lat="45.01338" lon="6.5106">
        <ele>2817.76</ele>
        <time>2018-04-18T09:39:49Z</time>
      </trkpt>
      <trkpt lat="45.0134" lon="6.51059">
        <ele>2818.24</ele>
        <time>2018-04-18T09:40:26Z</time>
      </trkpt>
      <trkpt lat="45.01339" lon="6.5106">
        <ele>2818.24</ele>
        <time>2018-04-18T09:41:04Z</time>
      </trkpt>
      <trkpt lat="45.0134" lon="6.5106">
        <ele>2818.72</ele>
        <time>2018-04-18T09:41:38Z</time>
      </trkpt>
      <trkpt lat="45.01341" lon="6.5106">
        <ele>2818.24</ele>
        <time>2018-04-18T09:42:24Z</time>
      </trkpt>
      <trkpt lat="45.01341" lon="6.51061">
        <ele>2818.72</ele>
        <time>2018-04-18T09:43:01Z</time>
      </trkpt>
      <trkpt lat="45.01342" lon="6.51061">
        <ele>2818.72</ele>
        <time>2018-04-18T09:43:36Z</time>
      </trkpt>
      <trkpt lat="45.01341" lon="6.51061">
        <ele>2818.72</ele>
        <time>2018-04-18T09:44:09Z</time>
      </trkpt>
      <trkpt lat="45.01341" lon="6.51061">
        <ele>2819.2</ele>
        <time>2018-04-18T09:44:44Z</time>
      </trkpt>
      <trkpt lat="45.01341" lon="6.51061">
        <ele>2819.2</ele>
        <time>2018-04-18T09:45:11Z</time>
      </trkpt>
      <trkpt lat="45.01341" lon="6.51061">
        <ele>2819.68</ele>
        <time>2018-04-18T09:45:35Z</time>
      </trkpt>
      <trkpt lat="45.0134" lon="6.51061">
        <ele>2819.68</ele>
        <time>2018-04-18T09:45:59Z</time>
      </trkpt>
      <trkpt lat="45.0134" lon="6.51061">
        <ele>2819.68</ele>
        <time>2018-04-18T09:46:33Z</time>
      </trkpt>
      <trkpt lat="45.01341" lon="6.51061">
        <ele>2819.68</ele>
        <time>2018-04-18T09:46:51Z</time>
      </trkpt>
      <trkpt lat="45.0134" lon="6.51059">
        <ele>2819.68</ele>
        <time>2018-04-18T09:47:28Z</time>
      </trkpt>
      <trkpt lat="45.0134" lon="6.51061">
        <ele>2820.16</ele>
        <time>2018-04-18T09:47:43Z</time>
      </trkpt>
      <trkpt lat="45.0134" lon="6.51061">
        <ele>2820.16</ele>
        <time>2018-04-18T09:48:02Z</time>
      </trkpt>
      <trkpt lat="45.01341" lon="6.5106">
        <ele>2820.16</ele>
        <time>2018-04-18T09:48:19Z</time>
      </trkpt>
      <trkpt lat="45.01341" lon="6.5106">
        <ele>2819.68</ele>
        <time>2018-04-18T09:48:36Z</time>
      </trkpt>
      <trkpt lat="45.0134" lon="6.51058">
        <ele>2820.16</ele>
        <time>2018-04-18T09:48:50Z</time>
      </trkpt>
      <trkpt lat="45.0134" lon="6.51059">
        <ele>2820.65</ele>
        <time>2018-04-18T09:49:08Z</time>
      </trkpt>
      <trkpt lat="45.01339" lon="6.51059">
        <ele>2820.16</ele>
        <time>2018-04-18T09:49:15Z</time>
      </trkpt>
      <trkpt lat="45.01333" lon="6.51066">
        <ele>2818.24</ele>
        <time>2018-04-18T09:49:24Z</time>
      </trkpt>
      <trkpt lat="45.01335" lon="6.51066">
        <ele>2817.28</ele>
        <time>2018-04-18T09:49:51Z</time>
      </trkpt>
      <trkpt lat="45.01336" lon="6.51067">
        <ele>2816.8</ele>
        <time>2018-04-18T09:50:14Z</time>
      </trkpt>
      <trkpt lat="45.01335" lon="6.51065">
        <ele>2818.24</ele>
        <time>2018-04-18T09:50:30Z</time>
      </trkpt>
      <trkpt lat="45.01334" lon="6.51066">
        <ele>2817.76</ele>
        <time>2018-04-18T09:50:54Z</time>
      </trkpt>
      <trkpt lat="45.01333" lon="6.51064">
        <ele>2818.24</ele>
        <time>2018-04-18T09:51:17Z</time>
      </trkpt>
      <trkpt lat="45.01333" lon="6.51065">
        <ele>2817.76</ele>
        <time>2018-04-18T09:51:36Z</time>
      </trkpt>
      <trkpt lat="45.01334" lon="6.51067">
        <ele>2817.28</ele>
        <time>2018-04-18T09:51:56Z</time>
      </trkpt>
      <trkpt lat="45.01335" lon="6.51066">
        <ele>2817.76</ele>
        <time>2018-04-18T09:52:03Z</time>
      </trkpt>
      <trkpt lat="45.01335" lon="6.51066">
        <ele>2816.8</ele>
        <time>2018-04-18T09:52:28Z</time>
      </trkpt>
      <trkpt lat="45.01336" lon="6.51066">
        <ele>2817.28</ele>
        <time>2018-04-18T09:52:50Z</time>
      </trkpt>
      <trkpt lat="45.01334" lon="6.51066">
        <ele>2818.24</ele>
        <time>2018-04-18T09:53:04Z</time>
      </trkpt>
      <trkpt lat="45.01332" lon="6.51065">
        <ele>2818.72</ele>
        <time>2018-04-18T09:53:18Z</time>
      </trkpt>
      <trkpt lat="45.01317" lon="6.51069">
        <ele>2815.84</ele>
        <time>2018-04-18T09:53:22Z</time>
      </trkpt>
      <trkpt lat="45.01297" lon="6.51077">
        <ele>2809.59</ele>
        <time>2018-04-18T09:53:25Z</time>
      </trkpt>
      <trkpt lat="45.01291" lon="6.51085">
        <ele>2809.59</ele>
        <time>2018-04-18T09:53:26Z</time>
      </trkpt>
      <trkpt lat="45.01285" lon="6.51091">
        <ele>2805.26</ele>
        <time>2018-04-18T09:53:27Z</time>
      </trkpt>
      <trkpt lat="45.0128" lon="6.51096">
        <ele>2805.26</ele>
        <time>2018-04-18T09:53:28Z</time>
      </trkpt>
      <trkpt lat="45.01269" lon="6.51103">
        <ele>2802.38</ele>
        <time>2018-04-18T09:53:30Z</time>
      </trkpt>
      <trkpt lat="45.01244" lon="6.51118">
        <ele>2799.02</ele>
        <time>2018-04-18T09:53:34Z</time>
      </trkpt>
      <trkpt lat="45.01232" lon="6.51126">
        <ele>2795.65</ele>
        <time>2018-04-18T09:53:36Z</time>
      </trkpt>
      <trkpt lat="45.01228" lon="6.51129">
        <ele>2795.65</ele>
        <time>2018-04-18T09:53:37Z</time>
      </trkpt>
      <trkpt lat="45.01222" lon="6.5113">
        <ele>2792.29</ele>
        <time>2018-04-18T09:53:39Z</time>
      </trkpt>
      <trkpt lat="45.01204" lon="6.51152">
        <ele>2791.33</ele>
        <time>2018-04-18T09:53:48Z</time>
      </trkpt>
      <trkpt lat="45.01194" lon="6.5118">
        <ele>2790.36</ele>
        <time>2018-04-18T09:53:54Z</time>
      </trkpt>
      <trkpt lat="45.01186" lon="6.51186">
        <ele>2785.56</ele>
        <time>2018-04-18T09:53:57Z</time>
      </trkpt>
      <trkpt lat="45.01184" lon="6.51186">
        <ele>2785.56</ele>
        <time>2018-04-18T09:53:58Z</time>
      </trkpt>
      <trkpt lat="45.01183" lon="6.51193">
        <ele>2784.6</ele>
        <time>2018-04-18T09:54:05Z</time>
      </trkpt>
      <trkpt lat="45.01181" lon="6.51197">
        <ele>2782.67</ele>
        <time>2018-04-18T09:54:14Z</time>
      </trkpt>
      <trkpt lat="45.01181" lon="6.51197">
        <ele>2782.67</ele>
        <time>2018-04-18T09:54:15Z</time>
      </trkpt>
      <trkpt lat="45.01179" lon="6.51194">
        <ele>2782.19</ele>
        <time>2018-04-18T09:54:26Z</time>
      </trkpt>
      <trkpt lat="45.01179" lon="6.51195">
        <ele>2782.19</ele>
        <time>2018-04-18T09:54:33Z</time>
      </trkpt>
      <trkpt lat="45.01175" lon="6.51199">
        <ele>2781.23</ele>
        <time>2018-04-18T09:54:43Z</time>
      </trkpt>
      <trkpt lat="45.01174" lon="6.51205">
        <ele>2781.71</ele>
        <time>2018-04-18T09:55:01Z</time>
      </trkpt>
      <trkpt lat="45.01174" lon="6.51208">
        <ele>2781.23</ele>
        <time>2018-04-18T09:55:02Z</time>
      </trkpt>
      <trkpt lat="45.01169" lon="6.5121">
        <ele>2777.87</ele>
        <time>2018-04-18T09:55:05Z</time>
      </trkpt>
      <trkpt lat="45.01165" lon="6.51214">
        <ele>2774.02</ele>
        <time>2018-04-18T09:55:08Z</time>
      </trkpt>
      <trkpt lat="45.01161" lon="6.51209">
        <ele>2770.18</ele>
        <time>2018-04-18T09:55:10Z</time>
      </trkpt>
      <trkpt lat="45.01154" lon="6.51206">
        <ele>2766.81</ele>
        <time>2018-04-18T09:55:15Z</time>
      </trkpt>
      <trkpt lat="45.01149" lon="6.51204">
        <ele>2762</ele>
        <time>2018-04-18T09:55:17Z</time>
      </trkpt>
      <trkpt lat="45.01145" lon="6.5121">
        <ele>2757.68</ele>
        <time>2018-04-18T09:55:22Z</time>
      </trkpt>
      <trkpt lat="45.01145" lon="6.51211">
        <ele>2757.68</ele>
        <time>2018-04-18T09:55:23Z</time>
      </trkpt>
      <trkpt lat="45.01145" lon="6.51211">
        <ele>2757.68</ele>
        <time>2018-04-18T09:55:43Z</time>
      </trkpt>
      <trkpt lat="45.01146" lon="6.5121">
        <ele>2757.68</ele>
        <time>2018-04-18T09:56:10Z</time>
      </trkpt>
      <trkpt lat="45.01145" lon="6.5121">
        <ele>2757.68</ele>
        <time>2018-04-18T09:56:19Z</time>
      </trkpt>
      <trkpt lat="45.01143" lon="6.51225">
        <ele>2756.72</ele>
        <time>2018-04-18T09:56:23Z</time>
      </trkpt>
      <trkpt lat="45.01144" lon="6.51242">
        <ele>2754.31</ele>
        <time>2018-04-18T09:56:26Z</time>
      </trkpt>
      <trkpt lat="45.01136" lon="6.51247">
        <ele>2747.59</ele>
        <time>2018-04-18T09:56:29Z</time>
      </trkpt>
      <trkpt lat="45.01131" lon="6.51255">
        <ele>2744.22</ele>
        <time>2018-04-18T09:56:31Z</time>
      </trkpt>
      <trkpt lat="45.01123" lon="6.51258">
        <ele>2738.93</ele>
        <time>2018-04-18T09:56:33Z</time>
      </trkpt>
      <trkpt lat="45.01117" lon="6.51267">
        <ele>2735.09</ele>
        <time>2018-04-18T09:56:35Z</time>
      </trkpt>
      <trkpt lat="45.0111" lon="6.5127">
        <ele>2730.28</ele>
        <time>2018-04-18T09:56:37Z</time>
      </trkpt>
      <trkpt lat="45.0111" lon="6.51273">
        <ele>2727.4</ele>
        <time>2018-04-18T09:56:39Z</time>
      </trkpt>
      <trkpt lat="45.01111" lon="6.51274">
        <ele>2727.4</ele>
        <time>2018-04-18T09:56:40Z</time>
      </trkpt>
      <trkpt lat="45.01113" lon="6.51274">
        <ele>2726.92</ele>
        <time>2018-04-18T09:56:45Z</time>
      </trkpt>
      <trkpt lat="45.01112" lon="6.51273">
        <ele>2727.88</ele>
        <time>2018-04-18T09:56:48Z</time>
      </trkpt>
      <trkpt lat="45.01109" lon="6.51269">
        <ele>2726.92</ele>
        <time>2018-04-18T09:56:51Z</time>
      </trkpt>
      <trkpt lat="45.0111" lon="6.51265">
        <ele>2726.44</ele>
        <time>2018-04-18T09:57:02Z</time>
      </trkpt>
      <trkpt lat="45.01109" lon="6.51263">
        <ele>2726.44</ele>
        <time>2018-04-18T09:57:04Z</time>
      </trkpt>
      <trkpt lat="45.01103" lon="6.51264">
        <ele>2724.51</ele>
        <time>2018-04-18T09:57:09Z</time>
      </trkpt>
      <trkpt lat="45.01103" lon="6.51263">
        <ele>2724.51</ele>
        <time>2018-04-18T09:57:28Z</time>
      </trkpt>
      <trkpt lat="45.01102" lon="6.51263">
        <ele>2724.51</ele>
        <time>2018-04-18T09:57:49Z</time>
      </trkpt>
      <trkpt lat="45.01101" lon="6.51262">
        <ele>2724.51</ele>
        <time>2018-04-18T09:57:50Z</time>
      </trkpt>
      <trkpt lat="45.0109" lon="6.51231">
        <ele>2720.67</ele>
        <time>2018-04-18T09:57:58Z</time>
      </trkpt>
      <trkpt lat="45.01091" lon="6.5121">
        <ele>2720.19</ele>
        <time>2018-04-18T09:58:12Z</time>
      </trkpt>
      <trkpt lat="45.01091" lon="6.5121">
        <ele>2720.67</ele>
        <time>2018-04-18T09:58:30Z</time>
      </trkpt>
      <trkpt lat="45.01091" lon="6.51212">
        <ele>2720.19</ele>
        <time>2018-04-18T09:58:50Z</time>
      </trkpt>
      <trkpt lat="45.01091" lon="6.51212">
        <ele>2719.23</ele>
        <time>2018-04-18T09:59:09Z</time>
      </trkpt>
      <trkpt lat="45.0109" lon="6.51212">
        <ele>2719.71</ele>
        <time>2018-04-18T09:59:30Z</time>
      </trkpt>
      <trkpt lat="45.0109" lon="6.51213">
        <ele>2719.71</ele>
        <time>2018-04-18T09:59:54Z</time>
      </trkpt>
      <trkpt lat="45.0109" lon="6.51213">
        <ele>2719.71</ele>
        <time>2018-04-18T10:00:04Z</time>
      </trkpt>
      <trkpt lat="45.01092" lon="6.51192">
        <ele>2715.38</ele>
        <time>2018-04-18T10:00:09Z</time>
      </trkpt>
      <trkpt lat="45.01092" lon="6.51181">
        <ele>2712.98</ele>
        <time>2018-04-18T10:00:11Z</time>
      </trkpt>
      <trkpt lat="45.0109" lon="6.51163">
        <ele>2707.21</ele>
        <time>2018-04-18T10:00:14Z</time>
      </trkpt>
      <trkpt lat="45.01091" lon="6.51156">
        <ele>2705.77</ele>
        <time>2018-04-18T10:00:15Z</time>
      </trkpt>
      <trkpt lat="45.01097" lon="6.51133">
        <ele>2701.92</ele>
        <time>2018-04-18T10:00:19Z</time>
      </trkpt>
      <trkpt lat="45.01093" lon="6.51106">
        <ele>2698.56</ele>
        <time>2018-04-18T10:00:25Z</time>
      </trkpt>
      <trkpt lat="45.01088" lon="6.51107">
        <ele>2695.67</ele>
        <time>2018-04-18T10:00:27Z</time>
      </trkpt>
      <trkpt lat="45.01083" lon="6.51105">
        <ele>2690.39</ele>
        <time>2018-04-18T10:00:38Z</time>
      </trkpt>
      <trkpt lat="45.01083" lon="6.51106">
        <ele>2690.39</ele>
        <time>2018-04-18T10:00:55Z</time>
      </trkpt>
      <trkpt lat="45.01083" lon="6.51107">
        <ele>2690.87</ele>
        <time>2018-04-18T10:01:16Z</time>
      </trkpt>
      <trkpt lat="45.01084" lon="6.51107">
        <ele>2690.87</ele>
        <time>2018-04-18T10:01:37Z</time>
      </trkpt>
      <trkpt lat="45.01083" lon="6.51105">
        <ele>2690.87</ele>
        <time>2018-04-18T10:01:55Z</time>
      </trkpt>
      <trkpt lat="45.0108" lon="6.51105">
        <ele>2690.39</ele>
        <time>2018-04-18T10:02:01Z</time>
      </trkpt>
      <trkpt lat="45.01072" lon="6.51089">
        <ele>2685.1</ele>
        <time>2018-04-18T10:02:04Z</time>
      </trkpt>
      <trkpt lat="45.01065" lon="6.51084">
        <ele>2681.25</ele>
        <time>2018-04-18T10:02:07Z</time>
      </trkpt>
      <trkpt lat="45.01057" lon="6.51078">
        <ele>2675.97</ele>
        <time>2018-04-18T10:02:09Z</time>
      </trkpt>
      <trkpt lat="45.01051" lon="6.51077">
        <ele>2672.6</ele>
        <time>2018-04-18T10:02:11Z</time>
      </trkpt>
      <trkpt lat="45.01043" lon="6.51071">
        <ele>2667.31</ele>
        <time>2018-04-18T10:02:13Z</time>
      </trkpt>
      <trkpt lat="45.01042" lon="6.51056">
        <ele>2662.99</ele>
        <time>2018-04-18T10:02:15Z</time>
      </trkpt>
      <trkpt lat="45.01035" lon="6.51046">
        <ele>2657.7</ele>
        <time>2018-04-18T10:02:19Z</time>
      </trkpt>
      <trkpt lat="45.01033" lon="6.51041">
        <ele>2655.78</ele>
        <time>2018-04-18T10:02:20Z</time>
      </trkpt>
      <trkpt lat="45.01024" lon="6.51041">
        <ele>2649.53</ele>
        <time>2018-04-18T10:02:24Z</time>
      </trkpt>
      <trkpt lat="45.01021" lon="6.51041">
        <ele>2645.69</ele>
        <time>2018-04-18T10:02:25Z</time>
      </trkpt>
      <trkpt lat="45.01015" lon="6.51033">
        <ele>2642.32</ele>
        <time>2018-04-18T10:02:27Z</time>
      </trkpt>
      <trkpt lat="45.01006" lon="6.51029">
        <ele>2638.48</ele>
        <time>2018-04-18T10:02:29Z</time>
      </trkpt>
      <trkpt lat="45.00999" lon="6.51017">
        <ele>2633.67</ele>
        <time>2018-04-18T10:02:31Z</time>
      </trkpt>
      <trkpt lat="45.00992" lon="6.51019">
        <ele>2630.3</ele>
        <time>2018-04-18T10:02:33Z</time>
      </trkpt>
      <trkpt lat="45.00985" lon="6.51014">
        <ele>2626.94</ele>
        <time>2018-04-18T10:02:35Z</time>
      </trkpt>
      <trkpt lat="45.00984" lon="6.51009">
        <ele>2624.06</ele>
        <time>2018-04-18T10:02:36Z</time>
      </trkpt>
      <trkpt lat="45.00969" lon="6.50999">
        <ele>2617.33</ele>
        <time>2018-04-18T10:02:42Z</time>
      </trkpt>
      <trkpt lat="45.00967" lon="6.50993">
        <ele>2615.88</ele>
        <time>2018-04-18T10:02:44Z</time>
      </trkpt>
      <trkpt lat="45.00962" lon="6.50995">
        <ele>2614.92</ele>
        <time>2018-04-18T10:02:52Z</time>
      </trkpt>
      <trkpt lat="45.00962" lon="6.50996">
        <ele>2614.92</ele>
        <time>2018-04-18T10:02:53Z</time>
      </trkpt>
      <trkpt lat="45.00964" lon="6.51">
        <ele>2614.44</ele>
        <time>2018-04-18T10:03:06Z</time>
      </trkpt>
      <trkpt lat="45.00965" lon="6.51001">
        <ele>2614.44</ele>
        <time>2018-04-18T10:03:27Z</time>
      </trkpt>
      <trkpt lat="45.00966" lon="6.51003">
        <ele>2614.44</ele>
        <time>2018-04-18T10:03:56Z</time>
      </trkpt>
      <trkpt lat="45.00967" lon="6.51005">
        <ele>2613.48</ele>
        <time>2018-04-18T10:04:34Z</time>
      </trkpt>
      <trkpt lat="45.00967" lon="6.51005">
        <ele>2612.52</ele>
        <time>2018-04-18T10:04:59Z</time>
      </trkpt>
      <trkpt lat="45.00967" lon="6.51005">
        <ele>2613.48</ele>
        <time>2018-04-18T10:05:20Z</time>
      </trkpt>
      <trkpt lat="45.00967" lon="6.51006">
        <ele>2614.44</ele>
        <time>2018-04-18T10:05:34Z</time>
      </trkpt>
      <trkpt lat="45.00957" lon="6.51012">
        <ele>2611.08</ele>
        <time>2018-04-18T10:05:37Z</time>
      </trkpt>
      <trkpt lat="45.0095" lon="6.51024">
        <ele>2605.79</ele>
        <time>2018-04-18T10:05:39Z</time>
      </trkpt>
      <trkpt lat="45.00938" lon="6.51032">
        <ele>2601.46</ele>
        <time>2018-04-18T10:05:41Z</time>
      </trkpt>
      <trkpt lat="45.00927" lon="6.51045">
        <ele>2596.18</ele>
        <time>2018-04-18T10:05:43Z</time>
      </trkpt>
      <trkpt lat="45.00914" lon="6.51053">
        <ele>2590.89</ele>
        <time>2018-04-18T10:05:45Z</time>
      </trkpt>
      <trkpt lat="45.0091" lon="6.51061">
        <ele>2588.01</ele>
        <time>2018-04-18T10:05:46Z</time>
      </trkpt>
      <trkpt lat="45.00893" lon="6.51084">
        <ele>2581.76</ele>
        <time>2018-04-18T10:05:50Z</time>
      </trkpt>
      <trkpt lat="45.00876" lon="6.51095">
        <ele>2579.35</ele>
        <time>2018-04-18T10:05:53Z</time>
      </trkpt>
      <trkpt lat="45.00872" lon="6.51099">
        <ele>2576.95</ele>
        <time>2018-04-18T10:05:54Z</time>
      </trkpt>
      <trkpt lat="45.00864" lon="6.51109">
        <ele>2571.18</ele>
        <time>2018-04-18T10:05:58Z</time>
      </trkpt>
      <trkpt lat="45.00865" lon="6.51105">
        <ele>2571.18</ele>
        <time>2018-04-18T10:06:15Z</time>
      </trkpt>
      <trkpt lat="45.00865" lon="6.51107">
        <ele>2571.18</ele>
        <time>2018-04-18T10:06:31Z</time>
      </trkpt>
      <trkpt lat="45.00866" lon="6.51105">
        <ele>2571.18</ele>
        <time>2018-04-18T10:06:48Z</time>
      </trkpt>
      <trkpt lat="45.00865" lon="6.51104">
        <ele>2571.66</ele>
        <time>2018-04-18T10:07:03Z</time>
      </trkpt>
      <trkpt lat="45.00865" lon="6.51103">
        <ele>2572.14</ele>
        <time>2018-04-18T10:07:22Z</time>
      </trkpt>
      <trkpt lat="45.00864" lon="6.51105">
        <ele>2572.63</ele>
        <time>2018-04-18T10:07:26Z</time>
      </trkpt>
      <trkpt lat="45.00836" lon="6.51119">
        <ele>2568.3</ele>
        <time>2018-04-18T10:07:34Z</time>
      </trkpt>
      <trkpt lat="45.00822" lon="6.51123">
        <ele>2566.86</ele>
        <time>2018-04-18T10:07:37Z</time>
      </trkpt>
      <trkpt lat="45.00803" lon="6.51124">
        <ele>2563.01</ele>
        <time>2018-04-18T10:07:40Z</time>
      </trkpt>
      <trkpt lat="45.00777" lon="6.51132">
        <ele>2558.21</ele>
        <time>2018-04-18T10:07:44Z</time>
      </trkpt>
      <trkpt lat="45.00758" lon="6.51159">
        <ele>2551.48</ele>
        <time>2018-04-18T10:07:50Z</time>
      </trkpt>
      <trkpt lat="45.00753" lon="6.51162">
        <ele>2549.55</ele>
        <time>2018-04-18T10:07:51Z</time>
      </trkpt>
      <trkpt lat="45.00732" lon="6.51173">
        <ele>2549.07</ele>
        <time>2018-04-18T10:07:55Z</time>
      </trkpt>
      <trkpt lat="45.00739" lon="6.51197">
        <ele>2545.71</ele>
        <time>2018-04-18T10:08:03Z</time>
      </trkpt>
      <trkpt lat="45.00737" lon="6.51203">
        <ele>2542.34</ele>
        <time>2018-04-18T10:08:04Z</time>
      </trkpt>
      <trkpt lat="45.00727" lon="6.51224">
        <ele>2539.46</ele>
        <time>2018-04-18T10:08:07Z</time>
      </trkpt>
      <trkpt lat="45.00702" lon="6.5126">
        <ele>2533.69</ele>
        <time>2018-04-18T10:08:11Z</time>
      </trkpt>
      <trkpt lat="45.00679" lon="6.51275">
        <ele>2531.29</ele>
        <time>2018-04-18T10:08:14Z</time>
      </trkpt>
      <trkpt lat="45.00636" lon="6.51288">
        <ele>2527.92</ele>
        <time>2018-04-18T10:08:22Z</time>
      </trkpt>
      <trkpt lat="45.00621" lon="6.51293">
        <ele>2525.52</ele>
        <time>2018-04-18T10:08:26Z</time>
      </trkpt>
      <trkpt lat="45.00616" lon="6.51288">
        <ele>2522.16</ele>
        <time>2018-04-18T10:08:30Z</time>
      </trkpt>
      <trkpt lat="45.00616" lon="6.51288">
        <ele>2521.68</ele>
        <time>2018-04-18T10:08:31Z</time>
      </trkpt>
      <trkpt lat="45.00617" lon="6.51288">
        <ele>2522.64</ele>
        <time>2018-04-18T10:08:47Z</time>
      </trkpt>
      <trkpt lat="45.00618" lon="6.5129">
        <ele>2522.64</ele>
        <time>2018-04-18T10:09:11Z</time>
      </trkpt>
      <trkpt lat="45.00618" lon="6.51289">
        <ele>2522.64</ele>
        <time>2018-04-18T10:09:30Z</time>
      </trkpt>
      <trkpt lat="45.00617" lon="6.51289">
        <ele>2522.64</ele>
        <time>2018-04-18T10:09:53Z</time>
      </trkpt>
      <trkpt lat="45.0062" lon="6.5129">
        <ele>2522.64</ele>
        <time>2018-04-18T10:10:09Z</time>
      </trkpt>
      <trkpt lat="45.0062" lon="6.5129">
        <ele>2522.64</ele>
        <time>2018-04-18T10:10:30Z</time>
      </trkpt>
      <trkpt lat="45.0062" lon="6.5129">
        <ele>2522.64</ele>
        <time>2018-04-18T10:10:51Z</time>
      </trkpt>
      <trkpt lat="45.00619" lon="6.51289">
        <ele>2522.64</ele>
        <time>2018-04-18T10:11:10Z</time>
      </trkpt>
      <trkpt lat="45.0062" lon="6.51289">
        <ele>2523.12</ele>
        <time>2018-04-18T10:11:29Z</time>
      </trkpt>
      <trkpt lat="45.0062" lon="6.51288">
        <ele>2523.12</ele>
        <time>2018-04-18T10:11:48Z</time>
      </trkpt>
      <trkpt lat="45.00619" lon="6.51286">
        <ele>2522.64</ele>
        <time>2018-04-18T10:12:00Z</time>
      </trkpt>
      <trkpt lat="45.00602" lon="6.51275">
        <ele>2518.79</ele>
        <time>2018-04-18T10:12:04Z</time>
      </trkpt>
      <trkpt lat="45.00588" lon="6.51261">
        <ele>2515.43</ele>
        <time>2018-04-18T10:12:07Z</time>
      </trkpt>
      <trkpt lat="45.00573" lon="6.51245">
        <ele>2512.06</ele>
        <time>2018-04-18T10:12:10Z</time>
      </trkpt>
      <trkpt lat="45.00563" lon="6.5123">
        <ele>2507.74</ele>
        <time>2018-04-18T10:12:12Z</time>
      </trkpt>
      <trkpt lat="45.00547" lon="6.51207">
        <ele>2503.41</ele>
        <time>2018-04-18T10:12:15Z</time>
      </trkpt>
      <trkpt lat="45.00536" lon="6.51188">
        <ele>2500.53</ele>
        <time>2018-04-18T10:12:19Z</time>
      </trkpt>
      <trkpt lat="45.00535" lon="6.51191">
        <ele>2500.53</ele>
        <time>2018-04-18T10:12:35Z</time>
      </trkpt>
      <trkpt lat="45.00536" lon="6.5119">
        <ele>2500.53</ele>
        <time>2018-04-18T10:12:56Z</time>
      </trkpt>
      <trkpt lat="45.00536" lon="6.5119">
        <ele>2500.53</ele>
        <time>2018-04-18T10:13:12Z</time>
      </trkpt>
      <trkpt lat="45.00536" lon="6.51192">
        <ele>2501.49</ele>
        <time>2018-04-18T10:13:28Z</time>
      </trkpt>
      <trkpt lat="45.00535" lon="6.51191">
        <ele>2500.53</ele>
        <time>2018-04-18T10:13:45Z</time>
      </trkpt>
      <trkpt lat="45.00535" lon="6.51192">
        <ele>2500.53</ele>
        <time>2018-04-18T10:13:57Z</time>
      </trkpt>
      <trkpt lat="45.00534" lon="6.51191">
        <ele>2500.53</ele>
        <time>2018-04-18T10:14:11Z</time>
      </trkpt>
      <trkpt lat="45.00524" lon="6.51193">
        <ele>2499.57</ele>
        <time>2018-04-18T10:14:20Z</time>
      </trkpt>
      <trkpt lat="45.00523" lon="6.51193">
        <ele>2499.57</ele>
        <time>2018-04-18T10:14:27Z</time>
      </trkpt>
      <trkpt lat="45.00507" lon="6.51191">
        <ele>2497.64</ele>
        <time>2018-04-18T10:14:34Z</time>
      </trkpt>
      <trkpt lat="45.00488" lon="6.51176">
        <ele>2495.72</ele>
        <time>2018-04-18T10:14:38Z</time>
      </trkpt>
      <trkpt lat="45.00461" lon="6.51153">
        <ele>2491.87</ele>
        <time>2018-04-18T10:14:43Z</time>
      </trkpt>
      <trkpt lat="45.00444" lon="6.5115">
        <ele>2490.43</ele>
        <time>2018-04-18T10:14:46Z</time>
      </trkpt>
      <trkpt lat="45.00416" lon="6.51142">
        <ele>2488.51</ele>
        <time>2018-04-18T10:14:51Z</time>
      </trkpt>
      <trkpt lat="45.00407" lon="6.51139">
        <ele>2488.03</ele>
        <time>2018-04-18T10:14:53Z</time>
      </trkpt>
      <trkpt lat="45.00401" lon="6.51117">
        <ele>2483.7</ele>
        <time>2018-04-18T10:14:57Z</time>
      </trkpt>
      <trkpt lat="45.00398" lon="6.511">
        <ele>2479.86</ele>
        <time>2018-04-18T10:14:59Z</time>
      </trkpt>
      <trkpt lat="45.00386" lon="6.51089">
        <ele>2476.01</ele>
        <time>2018-04-18T10:15:01Z</time>
      </trkpt>
      <trkpt lat="45.00378" lon="6.51072">
        <ele>2472.65</ele>
        <time>2018-04-18T10:15:03Z</time>
      </trkpt>
      <trkpt lat="45.00368" lon="6.51056">
        <ele>2469.28</ele>
        <time>2018-04-18T10:15:05Z</time>
      </trkpt>
      <trkpt lat="45.00354" lon="6.51047">
        <ele>2465.44</ele>
        <time>2018-04-18T10:15:08Z</time>
      </trkpt>
      <trkpt lat="45.00341" lon="6.51038">
        <ele>2462.07</ele>
        <time>2018-04-18T10:15:11Z</time>
      </trkpt>
      <trkpt lat="45.00333" lon="6.5103">
        <ele>2459.19</ele>
        <time>2018-04-18T10:15:14Z</time>
      </trkpt>
      <trkpt lat="45.00332" lon="6.5103">
        <ele>2459.19</ele>
        <time>2018-04-18T10:15:23Z</time>
      </trkpt>
      <trkpt lat="45.00333" lon="6.5103">
        <ele>2459.19</ele>
        <time>2018-04-18T10:15:44Z</time>
      </trkpt>
      <trkpt lat="45.00332" lon="6.51029">
        <ele>2458.71</ele>
        <time>2018-04-18T10:15:56Z</time>
      </trkpt>
      <trkpt lat="45.00295" lon="6.51009">
        <ele>2455.82</ele>
        <time>2018-04-18T10:16:09Z</time>
      </trkpt>
      <trkpt lat="45.0028" lon="6.51">
        <ele>2453.9</ele>
        <time>2018-04-18T10:16:20Z</time>
      </trkpt>
      <trkpt lat="45.00279" lon="6.51">
        <ele>2453.9</ele>
        <time>2018-04-18T10:16:23Z</time>
      </trkpt>
      <trkpt lat="45.00276" lon="6.50995">
        <ele>2452.94</ele>
        <time>2018-04-18T10:16:32Z</time>
      </trkpt>
      <trkpt lat="45.00267" lon="6.50977">
        <ele>2449.58</ele>
        <time>2018-04-18T10:16:38Z</time>
      </trkpt>
      <trkpt lat="45.00261" lon="6.50952">
        <ele>2445.73</ele>
        <time>2018-04-18T10:16:41Z</time>
      </trkpt>
      <trkpt lat="45.00254" lon="6.5093">
        <ele>2443.81</ele>
        <time>2018-04-18T10:16:43Z</time>
      </trkpt>
      <trkpt lat="45.00244" lon="6.50884">
        <ele>2439.48</ele>
        <time>2018-04-18T10:16:47Z</time>
      </trkpt>
      <trkpt lat="45.00237" lon="6.50841">
        <ele>2435.64</ele>
        <time>2018-04-18T10:16:51Z</time>
      </trkpt>
      <trkpt lat="45.0023" lon="6.50801">
        <ele>2432.75</ele>
        <time>2018-04-18T10:16:55Z</time>
      </trkpt>
      <trkpt lat="45.00223" lon="6.50754">
        <ele>2429.39</ele>
        <time>2018-04-18T10:17:00Z</time>
      </trkpt>
      <trkpt lat="45.00222" lon="6.50746">
        <ele>2428.91</ele>
        <time>2018-04-18T10:17:01Z</time>
      </trkpt>
      <trkpt lat="45.00217" lon="6.50725">
        <ele>2427.47</ele>
        <time>2018-04-18T10:17:04Z</time>
      </trkpt>
      <trkpt lat="45.00216" lon="6.50685">
        <ele>2424.1</ele>
        <time>2018-04-18T10:17:09Z</time>
      </trkpt>
      <trkpt lat="45.00209" lon="6.5065">
        <ele>2421.22</ele>
        <time>2018-04-18T10:17:14Z</time>
      </trkpt>
      <trkpt lat="45.00194" lon="6.50609">
        <ele>2417.37</ele>
        <time>2018-04-18T10:17:24Z</time>
      </trkpt>
      <trkpt lat="45.00186" lon="6.50582">
        <ele>2414.01</ele>
        <time>2018-04-18T10:17:31Z</time>
      </trkpt>
      <trkpt lat="45.00177" lon="6.50561">
        <ele>2410.64</ele>
        <time>2018-04-18T10:17:36Z</time>
      </trkpt>
      <trkpt lat="45.0017" lon="6.50547">
        <ele>2407.28</ele>
        <time>2018-04-18T10:17:39Z</time>
      </trkpt>
      <trkpt lat="45.00157" lon="6.50527">
        <ele>2403.43</ele>
        <time>2018-04-18T10:17:43Z</time>
      </trkpt>
      <trkpt lat="45.0015" lon="6.5052">
        <ele>2402.47</ele>
        <time>2018-04-18T10:17:45Z</time>
      </trkpt>
      <trkpt lat="45.00139" lon="6.50508">
        <ele>2400.07</ele>
        <time>2018-04-18T10:17:49Z</time>
      </trkpt>
      <trkpt lat="45.00143" lon="6.50495">
        <ele>2395.74</ele>
        <time>2018-04-18T10:17:53Z</time>
      </trkpt>
      <trkpt lat="45.00143" lon="6.50483">
        <ele>2391.9</ele>
        <time>2018-04-18T10:17:55Z</time>
      </trkpt>
      <trkpt lat="45.00133" lon="6.50461">
        <ele>2387.57</ele>
        <time>2018-04-18T10:17:58Z</time>
      </trkpt>
      <trkpt lat="45.00123" lon="6.50442">
        <ele>2385.17</ele>
        <time>2018-04-18T10:18:01Z</time>
      </trkpt>
      <trkpt lat="45.00111" lon="6.50419">
        <ele>2379.4</ele>
        <time>2018-04-18T10:18:04Z</time>
      </trkpt>
      <trkpt lat="45.00104" lon="6.50405">
        <ele>2377</ele>
        <time>2018-04-18T10:18:06Z</time>
      </trkpt>
      <trkpt lat="45.00093" lon="6.50384">
        <ele>2374.11</ele>
        <time>2018-04-18T10:18:09Z</time>
      </trkpt>
      <trkpt lat="45.00071" lon="6.50359">
        <ele>2371.23</ele>
        <time>2018-04-18T10:18:14Z</time>
      </trkpt>
      <trkpt lat="45.00051" lon="6.50343">
        <ele>2370.75</ele>
        <time>2018-04-18T10:18:22Z</time>
      </trkpt>
      <trkpt lat="45.00049" lon="6.50336">
        <ele>2370.75</ele>
        <time>2018-04-18T10:18:28Z</time>
      </trkpt>
      <trkpt lat="45.00038" lon="6.50317">
        <ele>2369.79</ele>
        <time>2018-04-18T10:18:42Z</time>
      </trkpt>
      <trkpt lat="45.00034" lon="6.50295">
        <ele>2364.98</ele>
        <time>2018-04-18T10:18:47Z</time>
      </trkpt>
      <trkpt lat="45.00032" lon="6.50282">
        <ele>2362.1</ele>
        <time>2018-04-18T10:18:50Z</time>
      </trkpt>
      <trkpt lat="45.00033" lon="6.50281">
        <ele>2360.17</ele>
        <time>2018-04-18T10:18:53Z</time>
      </trkpt>
      <trkpt lat="45.00033" lon="6.50283">
        <ele>2360.65</ele>
        <time>2018-04-18T10:19:14Z</time>
      </trkpt>
      <trkpt lat="45.00033" lon="6.50282">
        <ele>2360.17</ele>
        <time>2018-04-18T10:19:16Z</time>
      </trkpt>
      <trkpt lat="45.00029" lon="6.50254">
        <ele>2356.33</ele>
        <time>2018-04-18T10:19:22Z</time>
      </trkpt>
      <trkpt lat="45.00029" lon="6.50241">
        <ele>2352.96</ele>
        <time>2018-04-18T10:19:24Z</time>
      </trkpt>
      <trkpt lat="45.00025" lon="6.50238">
        <ele>2352</ele>
        <time>2018-04-18T10:19:25Z</time>
      </trkpt>
      <trkpt lat="45.00017" lon="6.50222">
        <ele>2345.75</ele>
        <time>2018-04-18T10:19:29Z</time>
      </trkpt>
      <trkpt lat="45.00009" lon="6.50211">
        <ele>2341.43</ele>
        <time>2018-04-18T10:19:32Z</time>
      </trkpt>
      <trkpt lat="45.00001" lon="6.50201">
        <ele>2336.62</ele>
        <time>2018-04-18T10:19:34Z</time>
      </trkpt>
      <trkpt lat="45.00004" lon="6.50189">
        <ele>2334.22</ele>
        <time>2018-04-18T10:19:36Z</time>
      </trkpt>
      <trkpt lat="45.00008" lon="6.50178">
        <ele>2333.26</ele>
        <time>2018-04-18T10:19:38Z</time>
      </trkpt>
      <trkpt lat="45.0001" lon="6.50173">
        <ele>2333.26</ele>
        <time>2018-04-18T10:19:39Z</time>
      </trkpt>
      <trkpt lat="45.00001" lon="6.50166">
        <ele>2329.41</ele>
        <time>2018-04-18T10:19:43Z</time>
      </trkpt>
      <trkpt lat="44.99982" lon="6.50174">
        <ele>2323.16</ele>
        <time>2018-04-18T10:19:48Z</time>
      </trkpt>
      <trkpt lat="44.99974" lon="6.50169">
        <ele>2320.28</ele>
        <time>2018-04-18T10:19:50Z</time>
      </trkpt>
      <trkpt lat="44.99971" lon="6.50165">
        <ele>2317.4</ele>
        <time>2018-04-18T10:19:53Z</time>
      </trkpt>
      <trkpt lat="44.99974" lon="6.50164">
        <ele>2317.88</ele>
        <time>2018-04-18T10:20:12Z</time>
      </trkpt>
      <trkpt lat="44.99973" lon="6.50165">
        <ele>2316.43</ele>
        <time>2018-04-18T10:20:48Z</time>
      </trkpt>
      <trkpt lat="44.99974" lon="6.50167">
        <ele>2316.91</ele>
        <time>2018-04-18T10:21:06Z</time>
      </trkpt>
      <trkpt lat="44.99974" lon="6.50166">
        <ele>2316.91</ele>
        <time>2018-04-18T10:21:32Z</time>
      </trkpt>
      <trkpt lat="44.99974" lon="6.50167">
        <ele>2316.91</ele>
        <time>2018-04-18T10:22:04Z</time>
      </trkpt>
      <trkpt lat="44.99974" lon="6.50165">
        <ele>2316.91</ele>
        <time>2018-04-18T10:22:29Z</time>
      </trkpt>
      <trkpt lat="44.99974" lon="6.50165">
        <ele>2316.91</ele>
        <time>2018-04-18T10:23:05Z</time>
      </trkpt>
      <trkpt lat="44.99973" lon="6.50165">
        <ele>2316.43</ele>
        <time>2018-04-18T10:23:32Z</time>
      </trkpt>
      <trkpt lat="44.99973" lon="6.50165">
        <ele>2316.43</ele>
        <time>2018-04-18T10:23:59Z</time>
      </trkpt>
      <trkpt lat="44.99973" lon="6.50165">
        <ele>2316.43</ele>
        <time>2018-04-18T10:24:21Z</time>
      </trkpt>
      <trkpt lat="44.99973" lon="6.50164">
        <ele>2315.95</ele>
        <time>2018-04-18T10:24:43Z</time>
      </trkpt>
      <trkpt lat="44.99972" lon="6.50165">
        <ele>2315.95</ele>
        <time>2018-04-18T10:25:06Z</time>
      </trkpt>
      <trkpt lat="44.99973" lon="6.50165">
        <ele>2315.95</ele>
        <time>2018-04-18T10:25:32Z</time>
      </trkpt>
      <trkpt lat="44.99972" lon="6.50168">
        <ele>2315.47</ele>
        <time>2018-04-18T10:25:49Z</time>
      </trkpt>
      <trkpt lat="44.99972" lon="6.50168">
        <ele>2315.47</ele>
        <time>2018-04-18T10:25:53Z</time>
      </trkpt>
      <trkpt lat="44.9997" lon="6.50166">
        <ele>2314.99</ele>
        <time>2018-04-18T10:25:55Z</time>
      </trkpt>
      <trkpt lat="44.99943" lon="6.50185">
        <ele>2311.63</ele>
        <time>2018-04-18T10:26:00Z</time>
      </trkpt>
      <trkpt lat="44.99938" lon="6.50184">
        <ele>2310.19</ele>
        <time>2018-04-18T10:26:01Z</time>
      </trkpt>
      <trkpt lat="44.99918" lon="6.50167">
        <ele>2300.09</ele>
        <time>2018-04-18T10:26:05Z</time>
      </trkpt>
      <trkpt lat="44.99908" lon="6.50157">
        <ele>2296.73</ele>
        <time>2018-04-18T10:26:07Z</time>
      </trkpt>
      <trkpt lat="44.99903" lon="6.50151">
        <ele>2293.36</ele>
        <time>2018-04-18T10:26:08Z</time>
      </trkpt>
      <trkpt lat="44.99892" lon="6.50143">
        <ele>2289.04</ele>
        <time>2018-04-18T10:26:10Z</time>
      </trkpt>
      <trkpt lat="44.99875" lon="6.50142">
        <ele>2285.19</ele>
        <time>2018-04-18T10:26:13Z</time>
      </trkpt>
      <trkpt lat="44.99873" lon="6.50131">
        <ele>2280.38</ele>
        <time>2018-04-18T10:26:15Z</time>
      </trkpt>
      <trkpt lat="44.99863" lon="6.50124">
        <ele>2276.06</ele>
        <time>2018-04-18T10:26:18Z</time>
      </trkpt>
      <trkpt lat="44.99854" lon="6.50127">
        <ele>2271.73</ele>
        <time>2018-04-18T10:26:22Z</time>
      </trkpt>
      <trkpt lat="44.99854" lon="6.50128">
        <ele>2272.69</ele>
        <time>2018-04-18T10:26:41Z</time>
      </trkpt>
      <trkpt lat="44.99853" lon="6.50128">
        <ele>2272.21</ele>
        <time>2018-04-18T10:26:48Z</time>
      </trkpt>
      <trkpt lat="44.99839" lon="6.50122">
        <ele>2268.85</ele>
        <time>2018-04-18T10:26:53Z</time>
      </trkpt>
      <trkpt lat="44.99826" lon="6.50116">
        <ele>2264.52</ele>
        <time>2018-04-18T10:26:56Z</time>
      </trkpt>
      <trkpt lat="44.99826" lon="6.50105">
        <ele>2260.2</ele>
        <time>2018-04-18T10:26:58Z</time>
      </trkpt>
      <trkpt lat="44.99819" lon="6.501">
        <ele>2256.83</ele>
        <time>2018-04-18T10:27:00Z</time>
      </trkpt>
      <trkpt lat="44.99813" lon="6.50102">
        <ele>2255.39</ele>
        <time>2018-04-18T10:27:01Z</time>
      </trkpt>
      <trkpt lat="44.99802" lon="6.50109">
        <ele>2253.95</ele>
        <time>2018-04-18T10:27:03Z</time>
      </trkpt>
      <trkpt lat="44.99784" lon="6.5012">
        <ele>2250.1</ele>
        <time>2018-04-18T10:27:07Z</time>
      </trkpt>
      <trkpt lat="44.99772" lon="6.50126">
        <ele>2247.7</ele>
        <time>2018-04-18T10:27:10Z</time>
      </trkpt>
      <trkpt lat="44.99766" lon="6.50112">
        <ele>2241.45</ele>
        <time>2018-04-18T10:27:14Z</time>
      </trkpt>
      <trkpt lat="44.99755" lon="6.50106">
        <ele>2236.64</ele>
        <time>2018-04-18T10:27:17Z</time>
      </trkpt>
      <trkpt lat="44.99741" lon="6.50115">
        <ele>2232.8</ele>
        <time>2018-04-18T10:27:20Z</time>
      </trkpt>
      <trkpt lat="44.99732" lon="6.50121">
        <ele>2230.88</ele>
        <time>2018-04-18T10:27:22Z</time>
      </trkpt>
      <trkpt lat="44.99716" lon="6.50134">
        <ele>2227.51</ele>
        <time>2018-04-18T10:27:26Z</time>
      </trkpt>
      <trkpt lat="44.99699" lon="6.50138">
        <ele>2222.22</ele>
        <time>2018-04-18T10:27:31Z</time>
      </trkpt>
      <trkpt lat="44.99699" lon="6.50126">
        <ele>2218.86</ele>
        <time>2018-04-18T10:27:33Z</time>
      </trkpt>
      <trkpt lat="44.99701" lon="6.50114">
        <ele>2217.42</ele>
        <time>2018-04-18T10:27:40Z</time>
      </trkpt>
      <trkpt lat="44.99701" lon="6.50115">
        <ele>2217.42</ele>
        <time>2018-04-18T10:27:54Z</time>
      </trkpt>
      <trkpt lat="44.99701" lon="6.50114">
        <ele>2216.94</ele>
        <time>2018-04-18T10:28:13Z</time>
      </trkpt>
      <trkpt lat="44.997" lon="6.50114">
        <ele>2216.94</ele>
        <time>2018-04-18T10:28:44Z</time>
      </trkpt>
      <trkpt lat="44.997" lon="6.50114">
        <ele>2216.94</ele>
        <time>2018-04-18T10:29:04Z</time>
      </trkpt>
      <trkpt lat="44.997" lon="6.50115">
        <ele>2216.46</ele>
        <time>2018-04-18T10:29:22Z</time>
      </trkpt>
      <trkpt lat="44.99701" lon="6.50114">
        <ele>2216.46</ele>
        <time>2018-04-18T10:29:39Z</time>
      </trkpt>
      <trkpt lat="44.99692" lon="6.5009">
        <ele>2213.09</ele>
        <time>2018-04-18T10:29:46Z</time>
      </trkpt>
      <trkpt lat="44.99679" lon="6.50085">
        <ele>2207.81</ele>
        <time>2018-04-18T10:29:50Z</time>
      </trkpt>
      <trkpt lat="44.99674" lon="6.50081">
        <ele>2204.92</ele>
        <time>2018-04-18T10:29:52Z</time>
      </trkpt>
      <trkpt lat="44.99666" lon="6.50094">
        <ele>2201.08</ele>
        <time>2018-04-18T10:29:55Z</time>
      </trkpt>
      <trkpt lat="44.99659" lon="6.50094">
        <ele>2198.19</ele>
        <time>2018-04-18T10:29:58Z</time>
      </trkpt>
      <trkpt lat="44.99659" lon="6.50081">
        <ele>2194.83</ele>
        <time>2018-04-18T10:30:00Z</time>
      </trkpt>
      <trkpt lat="44.99659" lon="6.50063">
        <ele>2190.98</ele>
        <time>2018-04-18T10:30:03Z</time>
      </trkpt>
      <trkpt lat="44.99654" lon="6.50061">
        <ele>2187.14</ele>
        <time>2018-04-18T10:30:05Z</time>
      </trkpt>
      <trkpt lat="44.99646" lon="6.50053">
        <ele>2182.33</ele>
        <time>2018-04-18T10:30:08Z</time>
      </trkpt>
      <trkpt lat="44.99646" lon="6.50046">
        <ele>2180.89</ele>
        <time>2018-04-18T10:30:09Z</time>
      </trkpt>
      <trkpt lat="44.99647" lon="6.50015">
        <ele>2175.12</ele>
        <time>2018-04-18T10:30:13Z</time>
      </trkpt>
      <trkpt lat="44.99648" lon="6.50008">
        <ele>2174.16</ele>
        <time>2018-04-18T10:30:14Z</time>
      </trkpt>
      <trkpt lat="44.99636" lon="6.49993">
        <ele>2170.79</ele>
        <time>2018-04-18T10:30:18Z</time>
      </trkpt>
      <trkpt lat="44.99635" lon="6.49986">
        <ele>2167.43</ele>
        <time>2018-04-18T10:30:20Z</time>
      </trkpt>
      <trkpt lat="44.99622" lon="6.49977">
        <ele>2163.58</ele>
        <time>2018-04-18T10:30:25Z</time>
      </trkpt>
      <trkpt lat="44.99613" lon="6.4999">
        <ele>2161.66</ele>
        <time>2018-04-18T10:30:28Z</time>
      </trkpt>
      <trkpt lat="44.99594" lon="6.5001">
        <ele>2157.82</ele>
        <time>2018-04-18T10:30:33Z</time>
      </trkpt>
      <trkpt lat="44.9958" lon="6.50025">
        <ele>2154.93</ele>
        <time>2018-04-18T10:30:37Z</time>
      </trkpt>
      <trkpt lat="44.99578" lon="6.5002">
        <ele>2152.05</ele>
        <time>2018-04-18T10:30:42Z</time>
      </trkpt>
      <trkpt lat="44.99578" lon="6.50018">
        <ele>2152.05</ele>
        <time>2018-04-18T10:31:03Z</time>
      </trkpt>
      <trkpt lat="44.99579" lon="6.5002">
        <ele>2152.05</ele>
        <time>2018-04-18T10:31:19Z</time>
      </trkpt>
      <trkpt lat="44.99578" lon="6.50017">
        <ele>2152.05</ele>
        <time>2018-04-18T10:31:40Z</time>
      </trkpt>
      <trkpt lat="44.99579" lon="6.50019">
        <ele>2152.05</ele>
        <time>2018-04-18T10:32:03Z</time>
      </trkpt>
      <trkpt lat="44.9958" lon="6.50014">
        <ele>2151.57</ele>
        <time>2018-04-18T10:32:19Z</time>
      </trkpt>
      <trkpt lat="44.99578" lon="6.50004">
        <ele>2150.13</ele>
        <time>2018-04-18T10:32:41Z</time>
      </trkpt>
      <trkpt lat="44.9957" lon="6.49981">
        <ele>2144.84</ele>
        <time>2018-04-18T10:32:47Z</time>
      </trkpt>
      <trkpt lat="44.99572" lon="6.49968">
        <ele>2140.51</ele>
        <time>2018-04-18T10:32:49Z</time>
      </trkpt>
      <trkpt lat="44.99575" lon="6.49961">
        <ele>2140.03</ele>
        <time>2018-04-18T10:32:51Z</time>
      </trkpt>
      <trkpt lat="44.99563" lon="6.4995">
        <ele>2136.19</ele>
        <time>2018-04-18T10:32:55Z</time>
      </trkpt>
      <trkpt lat="44.99558" lon="6.49953">
        <ele>2134.74</ele>
        <time>2018-04-18T10:32:56Z</time>
      </trkpt>
      <trkpt lat="44.99546" lon="6.4995">
        <ele>2128.98</ele>
        <time>2018-04-18T10:33:00Z</time>
      </trkpt>
      <trkpt lat="44.99551" lon="6.49931">
        <ele>2126.09</ele>
        <time>2018-04-18T10:33:05Z</time>
      </trkpt>
      <trkpt lat="44.99556" lon="6.49918">
        <ele>2124.17</ele>
        <time>2018-04-18T10:33:09Z</time>
      </trkpt>
      <trkpt lat="44.99559" lon="6.49909">
        <ele>2122.73</ele>
        <time>2018-04-18T10:33:12Z</time>
      </trkpt>
      <trkpt lat="44.99547" lon="6.49908">
        <ele>2119.36</ele>
        <time>2018-04-18T10:33:17Z</time>
      </trkpt>
      <trkpt lat="44.99543" lon="6.49912">
        <ele>2118.4</ele>
        <time>2018-04-18T10:33:18Z</time>
      </trkpt>
      <trkpt lat="44.99524" lon="6.49931">
        <ele>2115.52</ele>
        <time>2018-04-18T10:33:24Z</time>
      </trkpt>
      <trkpt lat="44.99515" lon="6.49925">
        <ele>2110.71</ele>
        <time>2018-04-18T10:33:27Z</time>
      </trkpt>
      <trkpt lat="44.99518" lon="6.49914">
        <ele>2108.79</ele>
        <time>2018-04-18T10:33:30Z</time>
      </trkpt>
      <trkpt lat="44.99523" lon="6.49914">
        <ele>2108.31</ele>
        <time>2018-04-18T10:33:46Z</time>
      </trkpt>
      <trkpt lat="44.99523" lon="6.49915">
        <ele>2108.31</ele>
        <time>2018-04-18T10:34:10Z</time>
      </trkpt>
      <trkpt lat="44.99524" lon="6.49908">
        <ele>2107.35</ele>
        <time>2018-04-18T10:34:30Z</time>
      </trkpt>
      <trkpt lat="44.99517" lon="6.49903">
        <ele>2103.5</ele>
        <time>2018-04-18T10:34:33Z</time>
      </trkpt>
      <trkpt lat="44.99514" lon="6.49892">
        <ele>2100.14</ele>
        <time>2018-04-18T10:34:36Z</time>
      </trkpt>
      <trkpt lat="44.99519" lon="6.49881">
        <ele>2096.77</ele>
        <time>2018-04-18T10:34:39Z</time>
      </trkpt>
      <trkpt lat="44.99519" lon="6.49878">
        <ele>2095.81</ele>
        <time>2018-04-18T10:34:41Z</time>
      </trkpt>
      <trkpt lat="44.99508" lon="6.49877">
        <ele>2092.45</ele>
        <time>2018-04-18T10:34:46Z</time>
      </trkpt>
      <trkpt lat="44.99505" lon="6.49871">
        <ele>2088.6</ele>
        <time>2018-04-18T10:34:48Z</time>
      </trkpt>
      <trkpt lat="44.99502" lon="6.49858">
        <ele>2083.79</ele>
        <time>2018-04-18T10:34:51Z</time>
      </trkpt>
      <trkpt lat="44.99491" lon="6.49852">
        <ele>2078.99</ele>
        <time>2018-04-18T10:34:54Z</time>
      </trkpt>
      <trkpt lat="44.99492" lon="6.49846">
        <ele>2076.59</ele>
        <time>2018-04-18T10:34:55Z</time>
      </trkpt>
      <trkpt lat="44.99495" lon="6.49837">
        <ele>2074.18</ele>
        <time>2018-04-18T10:34:57Z</time>
      </trkpt>
      <trkpt lat="44.99486" lon="6.49823">
        <ele>2068.89</ele>
        <time>2018-04-18T10:35:01Z</time>
      </trkpt>
      <trkpt lat="44.99476" lon="6.49819">
        <ele>2064.09</ele>
        <time>2018-04-18T10:35:04Z</time>
      </trkpt>
      <trkpt lat="44.99477" lon="6.49805">
        <ele>2060.72</ele>
        <time>2018-04-18T10:35:07Z</time>
      </trkpt>
      <trkpt lat="44.99467" lon="6.49803">
        <ele>2057.36</ele>
        <time>2018-04-18T10:35:09Z</time>
      </trkpt>
      <trkpt lat="44.99454" lon="6.49806">
        <ele>2053.51</ele>
        <time>2018-04-18T10:35:12Z</time>
      </trkpt>
      <trkpt lat="44.99451" lon="6.49797">
        <ele>2050.15</ele>
        <time>2018-04-18T10:35:14Z</time>
      </trkpt>
      <trkpt lat="44.99455" lon="6.49791">
        <ele>2048.71</ele>
        <time>2018-04-18T10:35:22Z</time>
      </trkpt>
      <trkpt lat="44.99456" lon="6.49791">
        <ele>2048.71</ele>
        <time>2018-04-18T10:35:39Z</time>
      </trkpt>
      <trkpt lat="44.99456" lon="6.49791">
        <ele>2048.71</ele>
        <time>2018-04-18T10:36:00Z</time>
      </trkpt>
      <trkpt lat="44.99456" lon="6.4979">
        <ele>2048.71</ele>
        <time>2018-04-18T10:36:20Z</time>
      </trkpt>
      <trkpt lat="44.99456" lon="6.49791">
        <ele>2048.71</ele>
        <time>2018-04-18T10:36:45Z</time>
      </trkpt>
      <trkpt lat="44.99456" lon="6.49791">
        <ele>2048.71</ele>
        <time>2018-04-18T10:37:08Z</time>
      </trkpt>
      <trkpt lat="44.99456" lon="6.49791">
        <ele>2048.71</ele>
        <time>2018-04-18T10:37:32Z</time>
      </trkpt>
      <trkpt lat="44.99457" lon="6.4979">
        <ele>2048.23</ele>
        <time>2018-04-18T10:37:54Z</time>
      </trkpt>
      <trkpt lat="44.99456" lon="6.49775">
        <ele>2046.78</ele>
        <time>2018-04-18T10:37:59Z</time>
      </trkpt>
      <trkpt lat="44.99441" lon="6.4977">
        <ele>2042.94</ele>
        <time>2018-04-18T10:38:03Z</time>
      </trkpt>
      <trkpt lat="44.99421" lon="6.4977">
        <ele>2037.17</ele>
        <time>2018-04-18T10:38:08Z</time>
      </trkpt>
      <trkpt lat="44.99407" lon="6.4977">
        <ele>2033.33</ele>
        <time>2018-04-18T10:38:11Z</time>
      </trkpt>
      <trkpt lat="44.99387" lon="6.49774">
        <ele>2026.6</ele>
        <time>2018-04-18T10:38:15Z</time>
      </trkpt>
      <trkpt lat="44.99376" lon="6.49773">
        <ele>2023.23</ele>
        <time>2018-04-18T10:38:17Z</time>
      </trkpt>
      <trkpt lat="44.99361" lon="6.49791">
        <ele>2019.87</ele>
        <time>2018-04-18T10:38:20Z</time>
      </trkpt>
      <trkpt lat="44.9935" lon="6.49788">
        <ele>2015.54</ele>
        <time>2018-04-18T10:38:22Z</time>
      </trkpt>
      <trkpt lat="44.99338" lon="6.49792">
        <ele>2013.14</ele>
        <time>2018-04-18T10:38:24Z</time>
      </trkpt>
      <trkpt lat="44.99315" lon="6.49799">
        <ele>2007.37</ele>
        <time>2018-04-18T10:38:28Z</time>
      </trkpt>
      <trkpt lat="44.99307" lon="6.49798">
        <ele>2005.45</ele>
        <time>2018-04-18T10:38:36Z</time>
      </trkpt>
      <trkpt lat="44.99308" lon="6.498">
        <ele>2004.97</ele>
        <time>2018-04-18T10:38:56Z</time>
      </trkpt>
      <trkpt lat="44.99307" lon="6.498">
        <ele>2004.97</ele>
        <time>2018-04-18T10:39:13Z</time>
      </trkpt>
      <trkpt lat="44.99308" lon="6.49799">
        <ele>2004.97</ele>
        <time>2018-04-18T10:39:31Z</time>
      </trkpt>
      <trkpt lat="44.99309" lon="6.49802">
        <ele>2004.97</ele>
        <time>2018-04-18T10:39:52Z</time>
      </trkpt>
      <trkpt lat="44.99309" lon="6.49801">
        <ele>2004.97</ele>
        <time>2018-04-18T10:40:08Z</time>
      </trkpt>
      <trkpt lat="44.99308" lon="6.49801">
        <ele>2004.49</ele>
        <time>2018-04-18T10:40:29Z</time>
      </trkpt>
      <trkpt lat="44.99308" lon="6.49801">
        <ele>2004.49</ele>
        <time>2018-04-18T10:40:35Z</time>
      </trkpt>
      <trkpt lat="44.99295" lon="6.49823">
        <ele>2000.64</ele>
        <time>2018-04-18T10:40:41Z</time>
      </trkpt>
      <trkpt lat="44.99283" lon="6.49831">
        <ele>1997.28</ele>
        <time>2018-04-18T10:40:44Z</time>
      </trkpt>
      <trkpt lat="44.99267" lon="6.49845">
        <ele>1991.99</ele>
        <time>2018-04-18T10:40:48Z</time>
      </trkpt>
      <trkpt lat="44.99257" lon="6.49843">
        <ele>1988.62</ele>
        <time>2018-04-18T10:40:50Z</time>
      </trkpt>
      <trkpt lat="44.99242" lon="6.4985">
        <ele>1984.3</ele>
        <time>2018-04-18T10:40:53Z</time>
      </trkpt>
      <trkpt lat="44.99232" lon="6.49854">
        <ele>1979.97</ele>
        <time>2018-04-18T10:40:55Z</time>
      </trkpt>
      <trkpt lat="44.99221" lon="6.49869">
        <ele>1975.17</ele>
        <time>2018-04-18T10:40:58Z</time>
      </trkpt>
      <trkpt lat="44.9922" lon="6.49871">
        <ele>1972.76</ele>
        <time>2018-04-18T10:41:05Z</time>
      </trkpt>
      <trkpt lat="44.99222" lon="6.49871">
        <ele>1972.76</ele>
        <time>2018-04-18T10:41:30Z</time>
      </trkpt>
      <trkpt lat="44.99222" lon="6.49871">
        <ele>1972.76</ele>
        <time>2018-04-18T10:41:55Z</time>
      </trkpt>
      <trkpt lat="44.99222" lon="6.49871">
        <ele>1972.76</ele>
        <time>2018-04-18T10:42:11Z</time>
      </trkpt>
      <trkpt lat="44.99222" lon="6.4987">
        <ele>1972.76</ele>
        <time>2018-04-18T10:42:29Z</time>
      </trkpt>
      <trkpt lat="44.99222" lon="6.4987">
        <ele>1972.28</ele>
        <time>2018-04-18T10:42:47Z</time>
      </trkpt>
      <trkpt lat="44.99222" lon="6.4987">
        <ele>1972.28</ele>
        <time>2018-04-18T10:43:10Z</time>
      </trkpt>
      <trkpt lat="44.99221" lon="6.49869">
        <ele>1972.28</ele>
        <time>2018-04-18T10:43:11Z</time>
      </trkpt>
      <trkpt lat="44.99206" lon="6.49872">
        <ele>1968.44</ele>
        <time>2018-04-18T10:43:15Z</time>
      </trkpt>
      <trkpt lat="44.99197" lon="6.49872">
        <ele>1964.59</ele>
        <time>2018-04-18T10:43:17Z</time>
      </trkpt>
      <trkpt lat="44.99188" lon="6.49875">
        <ele>1961.23</ele>
        <time>2018-04-18T10:43:19Z</time>
      </trkpt>
      <trkpt lat="44.99178" lon="6.49878">
        <ele>1956.9</ele>
        <time>2018-04-18T10:43:22Z</time>
      </trkpt>
      <trkpt lat="44.99166" lon="6.49869">
        <ele>1952.57</ele>
        <time>2018-04-18T10:43:25Z</time>
      </trkpt>
      <trkpt lat="44.99158" lon="6.49874">
        <ele>1949.69</ele>
        <time>2018-04-18T10:43:27Z</time>
      </trkpt>
      <trkpt lat="44.99149" lon="6.49867">
        <ele>1944.88</ele>
        <time>2018-04-18T10:43:29Z</time>
      </trkpt>
      <trkpt lat="44.99139" lon="6.49867">
        <ele>1941.04</ele>
        <time>2018-04-18T10:43:31Z</time>
      </trkpt>
      <trkpt lat="44.99129" lon="6.49862">
        <ele>1937.19</ele>
        <time>2018-04-18T10:43:33Z</time>
      </trkpt>
      <trkpt lat="44.99125" lon="6.49864">
        <ele>1937.19</ele>
        <time>2018-04-18T10:43:34Z</time>
      </trkpt>
      <trkpt lat="44.99105" lon="6.49865">
        <ele>1927.58</ele>
        <time>2018-04-18T10:43:38Z</time>
      </trkpt>
      <trkpt lat="44.99098" lon="6.49872">
        <ele>1923.74</ele>
        <time>2018-04-18T10:43:40Z</time>
      </trkpt>
      <trkpt lat="44.99089" lon="6.4987">
        <ele>1919.41</ele>
        <time>2018-04-18T10:43:42Z</time>
      </trkpt>
      <trkpt lat="44.99074" lon="6.49869">
        <ele>1915.56</ele>
        <time>2018-04-18T10:43:45Z</time>
      </trkpt>
      <trkpt lat="44.99062" lon="6.49869">
        <ele>1910.76</ele>
        <time>2018-04-18T10:43:47Z</time>
      </trkpt>
      <trkpt lat="44.99048" lon="6.4988">
        <ele>1905.95</ele>
        <time>2018-04-18T10:43:50Z</time>
      </trkpt>
      <trkpt lat="44.99038" lon="6.49882">
        <ele>1902.59</ele>
        <time>2018-04-18T10:43:52Z</time>
      </trkpt>
      <trkpt lat="44.99025" lon="6.49879">
        <ele>1898.74</ele>
        <time>2018-04-18T10:43:55Z</time>
      </trkpt>
      <trkpt lat="44.9902" lon="6.499">
        <ele>1894.42</ele>
        <time>2018-04-18T10:43:58Z</time>
      </trkpt>
      <trkpt lat="44.99017" lon="6.49916">
        <ele>1892.01</ele>
        <time>2018-04-18T10:44:00Z</time>
      </trkpt>
      <trkpt lat="44.99009" lon="6.49938">
        <ele>1889.61</ele>
        <time>2018-04-18T10:44:04Z</time>
      </trkpt>
      <trkpt lat="44.98996" lon="6.4993">
        <ele>1884.32</ele>
        <time>2018-04-18T10:44:08Z</time>
      </trkpt>
      <trkpt lat="44.98981" lon="6.49917">
        <ele>1880.96</ele>
        <time>2018-04-18T10:44:11Z</time>
      </trkpt>
      <trkpt lat="44.98963" lon="6.49914">
        <ele>1877.59</ele>
        <time>2018-04-18T10:44:16Z</time>
      </trkpt>
      <trkpt lat="44.98962" lon="6.49933">
        <ele>1873.75</ele>
        <time>2018-04-18T10:44:19Z</time>
      </trkpt>
      <trkpt lat="44.98958" lon="6.49945">
        <ele>1872.3</ele>
        <time>2018-04-18T10:44:22Z</time>
      </trkpt>
      <trkpt lat="44.9895" lon="6.49941">
        <ele>1870.38</ele>
        <time>2018-04-18T10:44:24Z</time>
      </trkpt>
      <trkpt lat="44.98942" lon="6.49929">
        <ele>1867.98</ele>
        <time>2018-04-18T10:44:27Z</time>
      </trkpt>
      <trkpt lat="44.98944" lon="6.49926">
        <ele>1867.5</ele>
        <time>2018-04-18T10:44:38Z</time>
      </trkpt>
      <trkpt lat="44.98946" lon="6.49923">
        <ele>1867.02</ele>
        <time>2018-04-18T10:45:06Z</time>
      </trkpt>
      <trkpt lat="44.98944" lon="6.49921">
        <ele>1867.02</ele>
        <time>2018-04-18T10:45:27Z</time>
      </trkpt>
      <trkpt lat="44.98946" lon="6.49923">
        <ele>1866.54</ele>
        <time>2018-04-18T10:45:45Z</time>
      </trkpt>
      <trkpt lat="44.98945" lon="6.49924">
        <ele>1866.06</ele>
        <time>2018-04-18T10:46:09Z</time>
      </trkpt>
      <trkpt lat="44.98943" lon="6.49927">
        <ele>1866.06</ele>
        <time>2018-04-18T10:46:28Z</time>
      </trkpt>
      <trkpt lat="44.98944" lon="6.49927">
        <ele>1866.06</ele>
        <time>2018-04-18T10:46:43Z</time>
      </trkpt>
      <trkpt lat="44.98944" lon="6.49925">
        <ele>1865.58</ele>
        <time>2018-04-18T10:47:05Z</time>
      </trkpt>
      <trkpt lat="44.98945" lon="6.49926">
        <ele>1865.58</ele>
        <time>2018-04-18T10:47:25Z</time>
      </trkpt>
      <trkpt lat="44.98945" lon="6.49926">
        <ele>1865.58</ele>
        <time>2018-04-18T10:47:41Z</time>
      </trkpt>
      <trkpt lat="44.98944" lon="6.49925">
        <ele>1865.09</ele>
        <time>2018-04-18T10:48:06Z</time>
      </trkpt>
      <trkpt lat="44.98944" lon="6.49925">
        <ele>1865.09</ele>
        <time>2018-04-18T10:48:27Z</time>
      </trkpt>
      <trkpt lat="44.98944" lon="6.49926">
        <ele>1865.09</ele>
        <time>2018-04-18T10:48:50Z</time>
      </trkpt>
      <trkpt lat="44.98943" lon="6.49926">
        <ele>1865.09</ele>
        <time>2018-04-18T10:49:10Z</time>
      </trkpt>
      <trkpt lat="44.98944" lon="6.49925">
        <ele>1865.09</ele>
        <time>2018-04-18T10:49:28Z</time>
      </trkpt>
      <trkpt lat="44.98944" lon="6.49926">
        <ele>1865.09</ele>
        <time>2018-04-18T10:49:47Z</time>
      </trkpt>
      <trkpt lat="44.98942" lon="6.49928">
        <ele>1864.61</ele>
        <time>2018-04-18T10:50:03Z</time>
      </trkpt>
      <trkpt lat="44.98942" lon="6.49928">
        <ele>1864.61</ele>
        <time>2018-04-18T10:50:28Z</time>
      </trkpt>
      <trkpt lat="44.98945" lon="6.49926">
        <ele>1865.09</ele>
        <time>2018-04-18T10:50:48Z</time>
      </trkpt>
      <trkpt lat="44.98945" lon="6.49925">
        <ele>1864.61</ele>
        <time>2018-04-18T10:51:07Z</time>
      </trkpt>
      <trkpt lat="44.98946" lon="6.49923">
        <ele>1864.13</ele>
        <time>2018-04-18T10:51:33Z</time>
      </trkpt>
      <trkpt lat="44.98945" lon="6.49922">
        <ele>1864.61</ele>
        <time>2018-04-18T10:51:34Z</time>
      </trkpt>
      <trkpt lat="44.98933" lon="6.49926">
        <ele>1860.77</ele>
        <time>2018-04-18T10:51:39Z</time>
      </trkpt>
      <trkpt lat="44.98927" lon="6.4993">
        <ele>1858.37</ele>
        <time>2018-04-18T10:51:41Z</time>
      </trkpt>
      <trkpt lat="44.98914" lon="6.49922">
        <ele>1855.48</ele>
        <time>2018-04-18T10:51:45Z</time>
      </trkpt>
      <trkpt lat="44.98901" lon="6.49914">
        <ele>1850.68</ele>
        <time>2018-04-18T10:51:49Z</time>
      </trkpt>
      <trkpt lat="44.98891" lon="6.49901">
        <ele>1846.83</ele>
        <time>2018-04-18T10:51:53Z</time>
      </trkpt>
      <trkpt lat="44.98884" lon="6.4991">
        <ele>1842.02</ele>
        <time>2018-04-18T10:51:56Z</time>
      </trkpt>
      <trkpt lat="44.98875" lon="6.49912">
        <ele>1838.18</ele>
        <time>2018-04-18T10:52:00Z</time>
      </trkpt>
      <trkpt lat="44.98867" lon="6.499">
        <ele>1836.74</ele>
        <time>2018-04-18T10:52:03Z</time>
      </trkpt>
      <trkpt lat="44.98857" lon="6.49888">
        <ele>1835.29</ele>
        <time>2018-04-18T10:52:06Z</time>
      </trkpt>
      <trkpt lat="44.98834" lon="6.49887">
        <ele>1830.49</ele>
        <time>2018-04-18T10:52:11Z</time>
      </trkpt>
      <trkpt lat="44.98817" lon="6.49894">
        <ele>1826.16</ele>
        <time>2018-04-18T10:52:15Z</time>
      </trkpt>
      <trkpt lat="44.98813" lon="6.49893">
        <ele>1825.2</ele>
        <time>2018-04-18T10:52:16Z</time>
      </trkpt>
      <trkpt lat="44.98794" lon="6.49907">
        <ele>1818.47</ele>
        <time>2018-04-18T10:52:21Z</time>
      </trkpt>
      <trkpt lat="44.98793" lon="6.49914">
        <ele>1817.03</ele>
        <time>2018-04-18T10:52:22Z</time>
      </trkpt>
      <trkpt lat="44.98793" lon="6.49943">
        <ele>1814.15</ele>
        <time>2018-04-18T10:52:27Z</time>
      </trkpt>
      <trkpt lat="44.98793" lon="6.49947">
        <ele>1814.15</ele>
        <time>2018-04-18T10:52:28Z</time>
      </trkpt>
      <trkpt lat="44.98778" lon="6.49951">
        <ele>1811.26</ele>
        <time>2018-04-18T10:52:32Z</time>
      </trkpt>
      <trkpt lat="44.98767" lon="6.49947">
        <ele>1809.34</ele>
        <time>2018-04-18T10:52:34Z</time>
      </trkpt>
      <trkpt lat="44.9875" lon="6.49944">
        <ele>1804.05</ele>
        <time>2018-04-18T10:52:38Z</time>
      </trkpt>
      <trkpt lat="44.9875" lon="6.49955">
        <ele>1800.69</ele>
        <time>2018-04-18T10:52:40Z</time>
      </trkpt>
      <trkpt lat="44.9875" lon="6.49956">
        <ele>1800.21</ele>
        <time>2018-04-18T10:52:41Z</time>
      </trkpt>
      <trkpt lat="44.9875" lon="6.49957">
        <ele>1800.69</ele>
        <time>2018-04-18T10:52:56Z</time>
      </trkpt>
      <trkpt lat="44.9875" lon="6.4996">
        <ele>1800.21</ele>
        <time>2018-04-18T10:53:08Z</time>
      </trkpt>
      <trkpt lat="44.98751" lon="6.49972">
        <ele>1799.73</ele>
        <time>2018-04-18T10:53:14Z</time>
      </trkpt>
      <trkpt lat="44.98742" lon="6.49977">
        <ele>1796.36</ele>
        <time>2018-04-18T10:53:18Z</time>
      </trkpt>
      <trkpt lat="44.98728" lon="6.49971">
        <ele>1793.48</ele>
        <time>2018-04-18T10:53:24Z</time>
      </trkpt>
      <trkpt lat="44.98717" lon="6.49976">
        <ele>1790.59</ele>
        <time>2018-04-18T10:53:29Z</time>
      </trkpt>
      <trkpt lat="44.98716" lon="6.49987">
        <ele>1789.63</ele>
        <time>2018-04-18T10:53:31Z</time>
      </trkpt>
      <trkpt lat="44.98703" lon="6.49991">
        <ele>1784.34</ele>
        <time>2018-04-18T10:53:36Z</time>
      </trkpt>
      <trkpt lat="44.98698" lon="6.49985">
        <ele>1783.38</ele>
        <time>2018-04-18T10:53:48Z</time>
      </trkpt>
      <trkpt lat="44.98695" lon="6.49978">
        <ele>1782.9</ele>
        <time>2018-04-18T10:54:01Z</time>
      </trkpt>
      <trkpt lat="44.98694" lon="6.49968">
        <ele>1782.42</ele>
        <time>2018-04-18T10:54:16Z</time>
      </trkpt>
      <trkpt lat="44.98684" lon="6.49978">
        <ele>1779.06</ele>
        <time>2018-04-18T10:54:21Z</time>
      </trkpt>
      <trkpt lat="44.98673" lon="6.49977">
        <ele>1775.69</ele>
        <time>2018-04-18T10:54:25Z</time>
      </trkpt>
      <trkpt lat="44.98662" lon="6.49986">
        <ele>1772.81</ele>
        <time>2018-04-18T10:54:29Z</time>
      </trkpt>
      <trkpt lat="44.98656" lon="6.49993">
        <ele>1771.85</ele>
        <time>2018-04-18T10:54:31Z</time>
      </trkpt>
      <trkpt lat="44.98646" lon="6.49992">
        <ele>1768.48</ele>
        <time>2018-04-18T10:54:34Z</time>
      </trkpt>
      <trkpt lat="44.9864" lon="6.49997">
        <ele>1767.52</ele>
        <time>2018-04-18T10:54:36Z</time>
      </trkpt>
      <trkpt lat="44.98626" lon="6.49995">
        <ele>1763.68</ele>
        <time>2018-04-18T10:54:39Z</time>
      </trkpt>
      <trkpt lat="44.98612" lon="6.49999">
        <ele>1758.39</ele>
        <time>2018-04-18T10:54:44Z</time>
      </trkpt>
      <trkpt lat="44.98612" lon="6.50001">
        <ele>1757.43</ele>
        <time>2018-04-18T10:54:46Z</time>
      </trkpt>
      <trkpt lat="44.9861" lon="6.50003">
        <ele>1757.91</ele>
        <time>2018-04-18T10:54:59Z</time>
      </trkpt>
      <trkpt lat="44.98596" lon="6.50012">
        <ele>1754.54</ele>
        <time>2018-04-18T10:55:05Z</time>
      </trkpt>
      <trkpt lat="44.98595" lon="6.5002">
        <ele>1753.58</ele>
        <time>2018-04-18T10:55:07Z</time>
      </trkpt>
      <trkpt lat="44.98582" lon="6.50021">
        <ele>1752.14</ele>
        <time>2018-04-18T10:55:11Z</time>
      </trkpt>
      <trkpt lat="44.98573" lon="6.50015">
        <ele>1750.22</ele>
        <time>2018-04-18T10:55:14Z</time>
      </trkpt>
      <trkpt lat="44.98565" lon="6.50027">
        <ele>1747.81</ele>
        <time>2018-04-18T10:55:19Z</time>
      </trkpt>
      <trkpt lat="44.9856" lon="6.50036">
        <ele>1745.89</ele>
        <time>2018-04-18T10:55:21Z</time>
      </trkpt>
      <trkpt lat="44.98561" lon="6.5005">
        <ele>1743.49</ele>
        <time>2018-04-18T10:55:31Z</time>
      </trkpt>
      <trkpt lat="44.98561" lon="6.5005">
        <ele>1743.49</ele>
        <time>2018-04-18T10:55:34Z</time>
      </trkpt>
      <trkpt lat="44.98553" lon="6.50051">
        <ele>1742.05</ele>
        <time>2018-04-18T10:55:38Z</time>
      </trkpt>
      <trkpt lat="44.98535" lon="6.50057">
        <ele>1738.2</ele>
        <time>2018-04-18T10:55:43Z</time>
      </trkpt>
      <trkpt lat="44.98529" lon="6.50062">
        <ele>1734.84</ele>
        <time>2018-04-18T10:55:45Z</time>
      </trkpt>
      <trkpt lat="44.98517" lon="6.5008">
        <ele>1731.47</ele>
        <time>2018-04-18T10:55:49Z</time>
      </trkpt>
      <trkpt lat="44.98506" lon="6.50096">
        <ele>1728.11</ele>
        <time>2018-04-18T10:55:53Z</time>
      </trkpt>
      <trkpt lat="44.985" lon="6.50099">
        <ele>1726.67</ele>
        <time>2018-04-18T10:55:56Z</time>
      </trkpt>
      <trkpt lat="44.985" lon="6.50104">
        <ele>1726.18</ele>
        <time>2018-04-18T10:56:07Z</time>
      </trkpt>
      <trkpt lat="44.98501" lon="6.50108">
        <ele>1726.18</ele>
        <time>2018-04-18T10:56:34Z</time>
      </trkpt>
      <trkpt lat="44.985" lon="6.50107">
        <ele>1725.7</ele>
        <time>2018-04-18T10:56:55Z</time>
      </trkpt>
      <trkpt lat="44.98501" lon="6.50107">
        <ele>1725.7</ele>
        <time>2018-04-18T10:57:18Z</time>
      </trkpt>
      <trkpt lat="44.985" lon="6.50108">
        <ele>1725.7</ele>
        <time>2018-04-18T10:57:36Z</time>
      </trkpt>
      <trkpt lat="44.985" lon="6.50107">
        <ele>1725.7</ele>
        <time>2018-04-18T10:57:53Z</time>
      </trkpt>
      <trkpt lat="44.98501" lon="6.5011">
        <ele>1725.7</ele>
        <time>2018-04-18T10:58:13Z</time>
      </trkpt>
      <trkpt lat="44.985" lon="6.50109">
        <ele>1725.22</ele>
        <time>2018-04-18T10:58:38Z</time>
      </trkpt>
      <trkpt lat="44.985" lon="6.50109">
        <ele>1725.22</ele>
        <time>2018-04-18T10:59:04Z</time>
      </trkpt>
      <trkpt lat="44.98501" lon="6.50107">
        <ele>1724.74</ele>
        <time>2018-04-18T10:59:27Z</time>
      </trkpt>
      <trkpt lat="44.98501" lon="6.50107">
        <ele>1724.74</ele>
        <time>2018-04-18T10:59:47Z</time>
      </trkpt>
      <trkpt lat="44.98502" lon="6.50105">
        <ele>1724.26</ele>
        <time>2018-04-18T11:00:05Z</time>
      </trkpt>
      <trkpt lat="44.98501" lon="6.50105">
        <ele>1724.26</ele>
        <time>2018-04-18T11:00:21Z</time>
      </trkpt>
      <trkpt lat="44.98501" lon="6.50108">
        <ele>1724.26</ele>
        <time>2018-04-18T11:00:37Z</time>
      </trkpt>
      <trkpt lat="44.98501" lon="6.50108">
        <ele>1724.26</ele>
        <time>2018-04-18T11:01:01Z</time>
      </trkpt>
      <trkpt lat="44.98502" lon="6.50108">
        <ele>1724.26</ele>
        <time>2018-04-18T11:01:16Z</time>
      </trkpt>
      <trkpt lat="44.98502" lon="6.50108">
        <ele>1724.26</ele>
        <time>2018-04-18T11:01:33Z</time>
      </trkpt>
      <trkpt lat="44.98503" lon="6.50109">
        <ele>1723.3</ele>
        <time>2018-04-18T11:01:48Z</time>
      </trkpt>
      <trkpt lat="44.98503" lon="6.5011">
        <ele>1722.82</ele>
        <time>2018-04-18T11:01:52Z</time>
      </trkpt>
      <trkpt lat="44.98498" lon="6.50119">
        <ele>1719.46</ele>
        <time>2018-04-18T11:01:57Z</time>
      </trkpt>
      <trkpt lat="44.98497" lon="6.50119">
        <ele>1718.49</ele>
        <time>2018-04-18T11:01:59Z</time>
      </trkpt>
      <trkpt lat="44.98496" lon="6.5012">
        <ele>1718.49</ele>
        <time>2018-04-18T11:02:02Z</time>
      </trkpt>
      <trkpt lat="44.98497" lon="6.50135">
        <ele>1714.65</ele>
        <time>2018-04-18T11:02:08Z</time>
      </trkpt>
      <trkpt lat="44.98494" lon="6.50151">
        <ele>1713.21</ele>
        <time>2018-04-18T11:02:14Z</time>
      </trkpt>
      <trkpt lat="44.98491" lon="6.50161">
        <ele>1711.76</ele>
        <time>2018-04-18T11:02:25Z</time>
      </trkpt>
      <trkpt lat="44.98489" lon="6.50168">
        <ele>1709.84</ele>
        <time>2018-04-18T11:02:34Z</time>
      </trkpt>
      <trkpt lat="44.98489" lon="6.50175">
        <ele>1709.36</ele>
        <time>2018-04-18T11:02:51Z</time>
      </trkpt>
      <trkpt lat="44.98489" lon="6.50175">
        <ele>1708.88</ele>
        <time>2018-04-18T11:03:08Z</time>
      </trkpt>
      <trkpt lat="44.98489" lon="6.50177">
        <ele>1709.36</ele>
        <time>2018-04-18T11:03:28Z</time>
      </trkpt>
      <trkpt lat="44.98489" lon="6.50176">
        <ele>1708.88</ele>
        <time>2018-04-18T11:03:48Z</time>
      </trkpt>
      <trkpt lat="44.98489" lon="6.50175">
        <ele>1708.88</ele>
        <time>2018-04-18T11:04:01Z</time>
      </trkpt>
      <trkpt lat="44.98486" lon="6.50175">
        <ele>1708.88</ele>
        <time>2018-04-18T11:04:10Z</time>
      </trkpt>
      <trkpt lat="44.98484" lon="6.50182">
        <ele>1707.92</ele>
        <time>2018-04-18T11:04:21Z</time>
      </trkpt>
      <trkpt lat="44.98488" lon="6.50188">
        <ele>1707.44</ele>
        <time>2018-04-18T11:04:35Z</time>
      </trkpt>
      <trkpt lat="44.98489" lon="6.50187">
        <ele>1707.92</ele>
        <time>2018-04-18T11:04:51Z</time>
      </trkpt>
      <trkpt lat="44.98487" lon="6.50186">
        <ele>1706.48</ele>
        <time>2018-04-18T11:05:05Z</time>
      </trkpt>
      <trkpt lat="44.98486" lon="6.50182">
        <ele>1706.48</ele>
        <time>2018-04-18T11:05:36Z</time>
      </trkpt>
      <trkpt lat="44.98488" lon="6.50186">
        <ele>1706.48</ele>
        <time>2018-04-18T11:06:07Z</time>
      </trkpt>
      <trkpt lat="44.98485" lon="6.50184">
        <ele>1706</ele>
        <time>2018-04-18T11:06:36Z</time>
      </trkpt>
      <trkpt lat="44.98487" lon="6.50185">
        <ele>1706</ele>
        <time>2018-04-18T11:07:06Z</time>
      </trkpt>
      <trkpt lat="44.98489" lon="6.50183">
        <ele>1705.52</ele>
        <time>2018-04-18T11:07:43Z</time>
      </trkpt>
      <trkpt lat="44.98487" lon="6.50186">
        <ele>1705.52</ele>
        <time>2018-04-18T11:08:16Z</time>
      </trkpt>
      <trkpt lat="44.98487" lon="6.50185">
        <ele>1705.04</ele>
        <time>2018-04-18T11:08:51Z</time>
      </trkpt>
      <trkpt lat="44.98489" lon="6.50188">
        <ele>1705.52</ele>
        <time>2018-04-18T11:09:26Z</time>
      </trkpt>
      <trkpt lat="44.98489" lon="6.50186">
        <ele>1705.04</ele>
        <time>2018-04-18T11:10:04Z</time>
      </trkpt>
      <trkpt lat="44.98488" lon="6.50182">
        <ele>1705.04</ele>
        <time>2018-04-18T11:10:38Z</time>
      </trkpt>
      <trkpt lat="44.98485" lon="6.50182">
        <ele>1705.04</ele>
        <time>2018-04-18T11:11:11Z</time>
      </trkpt>
      <trkpt lat="44.98486" lon="6.50183">
        <ele>1705.04</ele>
        <time>2018-04-18T11:11:29Z</time>
      </trkpt>
      <trkpt lat="44.98485" lon="6.50186">
        <ele>1705.52</ele>
        <time>2018-04-18T11:11:41Z</time>
      </trkpt>
      <trkpt lat="44.98481" lon="6.50208">
        <ele>1703.59</ele>
        <time>2018-04-18T11:11:55Z</time>
      </trkpt>
      <trkpt lat="44.98483" lon="6.50226">
        <ele>1702.15</ele>
        <time>2018-04-18T11:12:09Z</time>
      </trkpt>
      <trkpt lat="44.98484" lon="6.50236">
        <ele>1700.23</ele>
        <time>2018-04-18T11:12:21Z</time>
      </trkpt>
      <trkpt lat="44.98484" lon="6.50242">
        <ele>1699.75</ele>
        <time>2018-04-18T11:12:27Z</time>
      </trkpt>
      <trkpt lat="44.98483" lon="6.50259">
        <ele>1698.31</ele>
        <time>2018-04-18T11:12:40Z</time>
      </trkpt>
      <trkpt lat="44.98485" lon="6.5026">
        <ele>1698.79</ele>
        <time>2018-04-18T11:12:51Z</time>
      </trkpt>
      <trkpt lat="44.98481" lon="6.50271">
        <ele>1697.34</ele>
        <time>2018-04-18T11:12:58Z</time>
      </trkpt>
      <trkpt lat="44.98479" lon="6.50274">
        <ele>1696.38</ele>
        <time>2018-04-18T11:13:00Z</time>
      </trkpt>
      <trkpt lat="44.98479" lon="6.50281">
        <ele>1693.98</ele>
        <time>2018-04-18T11:13:05Z</time>
      </trkpt>
      <trkpt lat="44.98479" lon="6.50297">
        <ele>1691.58</ele>
        <time>2018-04-18T11:13:18Z</time>
      </trkpt>
      <trkpt lat="44.98482" lon="6.50309">
        <ele>1690.62</ele>
        <time>2018-04-18T11:13:31Z</time>
      </trkpt>
      <trkpt lat="44.98486" lon="6.50318">
        <ele>1689.65</ele>
        <time>2018-04-18T11:13:43Z</time>
      </trkpt>
      <trkpt lat="44.98489" lon="6.50323">
        <ele>1689.65</ele>
        <time>2018-04-18T11:13:47Z</time>
      </trkpt>
      <trkpt lat="44.98491" lon="6.50324">
        <ele>1689.65</ele>
        <time>2018-04-18T11:13:49Z</time>
      </trkpt>
      <trkpt lat="44.9849" lon="6.50334">
        <ele>1689.65</ele>
        <time>2018-04-18T11:14:01Z</time>
      </trkpt>
      <trkpt lat="44.98488" lon="6.50338">
        <ele>1689.65</ele>
        <time>2018-04-18T11:14:05Z</time>
      </trkpt>
      <trkpt lat="44.98484" lon="6.50345">
        <ele>1688.69</ele>
        <time>2018-04-18T11:14:11Z</time>
      </trkpt>
      <trkpt lat="44.98488" lon="6.50351">
        <ele>1688.69</ele>
        <time>2018-04-18T11:14:23Z</time>
      </trkpt>
      <trkpt lat="44.98485" lon="6.50353">
        <ele>1687.73</ele>
        <time>2018-04-18T11:14:30Z</time>
      </trkpt>
      <trkpt lat="44.98479" lon="6.50363">
        <ele>1685.81</ele>
        <time>2018-04-18T11:14:41Z</time>
      </trkpt>
      <trkpt lat="44.98473" lon="6.5037">
        <ele>1684.37</ele>
        <time>2018-04-18T11:14:50Z</time>
      </trkpt>
      <trkpt lat="44.98468" lon="6.50378">
        <ele>1681.96</ele>
        <time>2018-04-18T11:15:01Z</time>
      </trkpt>
      <trkpt lat="44.98466" lon="6.50383">
        <ele>1681.48</ele>
        <time>2018-04-18T11:15:05Z</time>
      </trkpt>
      <trkpt lat="44.98467" lon="6.50397">
        <ele>1680.52</ele>
        <time>2018-04-18T11:15:17Z</time>
      </trkpt>
      <trkpt lat="44.98469" lon="6.50403">
        <ele>1678.6</ele>
        <time>2018-04-18T11:15:29Z</time>
      </trkpt>
      <trkpt lat="44.98471" lon="6.50413">
        <ele>1675.72</ele>
        <time>2018-04-18T11:15:39Z</time>
      </trkpt>
      <trkpt lat="44.98472" lon="6.50418">
        <ele>1674.27</ele>
        <time>2018-04-18T11:15:45Z</time>
      </trkpt>
      <trkpt lat="44.98477" lon="6.50433">
        <ele>1671.87</ele>
        <time>2018-04-18T11:15:59Z</time>
      </trkpt>
      <trkpt lat="44.9848" lon="6.50434">
        <ele>1671.39</ele>
        <time>2018-04-18T11:16:02Z</time>
      </trkpt>
      <trkpt lat="44.98486" lon="6.50443">
        <ele>1668.02</ele>
        <time>2018-04-18T11:16:17Z</time>
      </trkpt>
      <trkpt lat="44.98486" lon="6.50447">
        <ele>1667.06</ele>
        <time>2018-04-18T11:16:24Z</time>
      </trkpt>
      <trkpt lat="44.98481" lon="6.50449">
        <ele>1665.62</ele>
        <time>2018-04-18T11:16:30Z</time>
      </trkpt>
      <trkpt lat="44.98476" lon="6.5045">
        <ele>1664.18</ele>
        <time>2018-04-18T11:16:43Z</time>
      </trkpt>
      <trkpt lat="44.98469" lon="6.50451">
        <ele>1661.78</ele>
        <time>2018-04-18T11:16:55Z</time>
      </trkpt>
      <trkpt lat="44.98467" lon="6.50454">
        <ele>1658.41</ele>
        <time>2018-04-18T11:17:04Z</time>
      </trkpt>
      <trkpt lat="44.98471" lon="6.50464">
        <ele>1656.01</ele>
        <time>2018-04-18T11:17:17Z</time>
      </trkpt>
      <trkpt lat="44.98476" lon="6.50472">
        <ele>1653.6</ele>
        <time>2018-04-18T11:17:26Z</time>
      </trkpt>
      <trkpt lat="44.98478" lon="6.50481">
        <ele>1651.2</ele>
        <time>2018-04-18T11:17:38Z</time>
      </trkpt>
      <trkpt lat="44.98477" lon="6.50481">
        <ele>1650.72</ele>
        <time>2018-04-18T11:17:39Z</time>
      </trkpt>
      <trkpt lat="44.98472" lon="6.50482">
        <ele>1648.8</ele>
        <time>2018-04-18T11:17:47Z</time>
      </trkpt>
      <trkpt lat="44.98472" lon="6.50489">
        <ele>1647.84</ele>
        <time>2018-04-18T11:17:53Z</time>
      </trkpt>
      <trkpt lat="44.98473" lon="6.50496">
        <ele>1646.4</ele>
        <time>2018-04-18T11:18:00Z</time>
      </trkpt>
      <trkpt lat="44.98472" lon="6.505">
        <ele>1645.43</ele>
        <time>2018-04-18T11:18:03Z</time>
      </trkpt>
      <trkpt lat="44.9847" lon="6.50523">
        <ele>1642.55</ele>
        <time>2018-04-18T11:18:19Z</time>
      </trkpt>
      <trkpt lat="44.98466" lon="6.50537">
        <ele>1639.67</ele>
        <time>2018-04-18T11:18:33Z</time>
      </trkpt>
      <trkpt lat="44.98462" lon="6.50533">
        <ele>1636.78</ele>
        <time>2018-04-18T11:18:45Z</time>
      </trkpt>
      <trkpt lat="44.98456" lon="6.50523">
        <ele>1634.38</ele>
        <time>2018-04-18T11:19:00Z</time>
      </trkpt>
      <trkpt lat="44.98445" lon="6.5051">
        <ele>1632.46</ele>
        <time>2018-04-18T11:19:18Z</time>
      </trkpt>
      <trkpt lat="44.98443" lon="6.50511">
        <ele>1631.49</ele>
        <time>2018-04-18T11:19:23Z</time>
      </trkpt>
      <trkpt lat="44.98435" lon="6.50506">
        <ele>1631.49</ele>
        <time>2018-04-18T11:19:38Z</time>
      </trkpt>
      <trkpt lat="44.98428" lon="6.50493">
        <ele>1630.53</ele>
        <time>2018-04-18T11:19:53Z</time>
      </trkpt>
      <trkpt lat="44.98415" lon="6.50488">
        <ele>1630.05</ele>
        <time>2018-04-18T11:20:07Z</time>
      </trkpt>
      <trkpt lat="44.98406" lon="6.50487">
        <ele>1629.57</ele>
        <time>2018-04-18T11:20:20Z</time>
      </trkpt>
      <trkpt lat="44.98391" lon="6.50495">
        <ele>1629.09</ele>
        <time>2018-04-18T11:20:36Z</time>
      </trkpt>
      <trkpt lat="44.98376" lon="6.50497">
        <ele>1627.17</ele>
        <time>2018-04-18T11:20:50Z</time>
      </trkpt>
      <trkpt lat="44.98365" lon="6.50506">
        <ele>1626.69</ele>
        <time>2018-04-18T11:21:06Z</time>
      </trkpt>
      <trkpt lat="44.98364" lon="6.50506">
        <ele>1626.69</ele>
        <time>2018-04-18T11:21:07Z</time>
      </trkpt>
      <trkpt lat="44.98359" lon="6.5051">
        <ele>1626.21</ele>
        <time>2018-04-18T11:21:21Z</time>
      </trkpt>
      <trkpt lat="44.98353" lon="6.50506">
        <ele>1625.25</ele>
        <time>2018-04-18T11:21:36Z</time>
      </trkpt>
      <trkpt lat="44.98345" lon="6.50501">
        <ele>1622.84</ele>
        <time>2018-04-18T11:21:50Z</time>
      </trkpt>
      <trkpt lat="44.98334" lon="6.50497">
        <ele>1619.96</ele>
        <time>2018-04-18T11:22:05Z</time>
      </trkpt>
      <trkpt lat="44.98324" lon="6.50501">
        <ele>1617.56</ele>
        <time>2018-04-18T11:22:19Z</time>
      </trkpt>
      <trkpt lat="44.98314" lon="6.50503">
        <ele>1616.11</ele>
        <time>2018-04-18T11:22:33Z</time>
      </trkpt>
      <trkpt lat="44.98307" lon="6.50507">
        <ele>1614.67</ele>
        <time>2018-04-18T11:22:42Z</time>
      </trkpt>
      <trkpt lat="44.98305" lon="6.50509">
        <ele>1613.71</ele>
        <time>2018-04-18T11:22:45Z</time>
      </trkpt>
      <trkpt lat="44.98292" lon="6.50516">
        <ele>1611.31</ele>
        <time>2018-04-18T11:23:02Z</time>
      </trkpt>
      <trkpt lat="44.98282" lon="6.50517">
        <ele>1609.86</ele>
        <time>2018-04-18T11:23:16Z</time>
      </trkpt>
      <trkpt lat="44.98268" lon="6.50518">
        <ele>1606.5</ele>
        <time>2018-04-18T11:23:33Z</time>
      </trkpt>
      <trkpt lat="44.98267" lon="6.50518">
        <ele>1606.02</ele>
        <time>2018-04-18T11:23:35Z</time>
      </trkpt>
      <trkpt lat="44.98255" lon="6.50524">
        <ele>1603.62</ele>
        <time>2018-04-18T11:23:49Z</time>
      </trkpt>
      <trkpt lat="44.98254" lon="6.50525">
        <ele>1603.62</ele>
        <time>2018-04-18T11:23:51Z</time>
      </trkpt>
      <trkpt lat="44.98242" lon="6.50535">
        <ele>1600.73</ele>
        <time>2018-04-18T11:24:07Z</time>
      </trkpt>
      <trkpt lat="44.9823" lon="6.50537">
        <ele>1598.33</ele>
        <time>2018-04-18T11:24:24Z</time>
      </trkpt>
      <trkpt lat="44.98218" lon="6.50537">
        <ele>1594.96</ele>
        <time>2018-04-18T11:24:39Z</time>
      </trkpt>
      <trkpt lat="44.98213" lon="6.50535">
        <ele>1593.52</ele>
        <time>2018-04-18T11:24:46Z</time>
      </trkpt>
      <trkpt lat="44.98209" lon="6.50534">
        <ele>1592.56</ele>
        <time>2018-04-18T11:24:50Z</time>
      </trkpt>
      <trkpt lat="44.98198" lon="6.50537">
        <ele>1590.64</ele>
        <time>2018-04-18T11:25:05Z</time>
      </trkpt>
      <trkpt lat="44.98188" lon="6.5054">
        <ele>1587.75</ele>
        <time>2018-04-18T11:25:18Z</time>
      </trkpt>
      <trkpt lat="44.98178" lon="6.50551">
        <ele>1585.35</ele>
        <time>2018-04-18T11:25:35Z</time>
      </trkpt>
      <trkpt lat="44.98173" lon="6.50555">
        <ele>1584.39</ele>
        <time>2018-04-18T11:25:52Z</time>
      </trkpt>
      <trkpt lat="44.98164" lon="6.5056">
        <ele>1582.47</ele>
        <time>2018-04-18T11:26:08Z</time>
      </trkpt>
      <trkpt lat="44.98155" lon="6.50558">
        <ele>1580.54</ele>
        <time>2018-04-18T11:26:22Z</time>
      </trkpt>
      <trkpt lat="44.98148" lon="6.50554">
        <ele>1578.62</ele>
        <time>2018-04-18T11:26:38Z</time>
      </trkpt>
      <trkpt lat="44.98137" lon="6.50553">
        <ele>1576.22</ele>
        <time>2018-04-18T11:26:53Z</time>
      </trkpt>
      <trkpt lat="44.98124" lon="6.50556">
        <ele>1573.82</ele>
        <time>2018-04-18T11:27:09Z</time>
      </trkpt>
      <trkpt lat="44.98112" lon="6.50558">
        <ele>1570.93</ele>
        <time>2018-04-18T11:27:25Z</time>
      </trkpt>
      <trkpt lat="44.98101" lon="6.50561">
        <ele>1568.53</ele>
        <time>2018-04-18T11:27:41Z</time>
      </trkpt>
      <trkpt lat="44.98095" lon="6.50564">
        <ele>1567.09</ele>
        <time>2018-04-18T11:27:47Z</time>
      </trkpt>
      <trkpt lat="44.98092" lon="6.50567">
        <ele>1566.61</ele>
        <time>2018-04-18T11:27:51Z</time>
      </trkpt>
      <trkpt lat="44.9809" lon="6.50574">
        <ele>1565.16</ele>
        <time>2018-04-18T11:27:55Z</time>
      </trkpt>
      <trkpt lat="44.98092" lon="6.50596">
        <ele>1565.16</ele>
        <time>2018-04-18T11:28:11Z</time>
      </trkpt>
      <trkpt lat="44.98093" lon="6.506">
        <ele>1565.64</ele>
        <time>2018-04-18T11:28:24Z</time>
      </trkpt>
      <trkpt lat="44.98094" lon="6.50597">
        <ele>1563.72</ele>
        <time>2018-04-18T11:28:32Z</time>
      </trkpt>
      <trkpt lat="44.98093" lon="6.50596">
        <ele>1564.68</ele>
        <time>2018-04-18T11:28:34Z</time>
      </trkpt>
      <trkpt lat="44.98093" lon="6.50596">
        <ele>1565.16</ele>
        <time>2018-04-18T11:28:45Z</time>
      </trkpt>
      <trkpt lat="44.98093" lon="6.50596">
        <ele>1564.2</ele>
        <time>2018-04-18T11:28:47Z</time>
      </trkpt>
      <trkpt lat="44.98093" lon="6.50593">
        <ele>1564.2</ele>
        <time>2018-04-18T11:29:21Z</time>
      </trkpt>
      <trkpt lat="44.98094" lon="6.50594">
        <ele>1564.2</ele>
        <time>2018-04-18T11:29:50Z</time>
      </trkpt>
      <trkpt lat="44.98095" lon="6.50595">
        <ele>1563.72</ele>
        <time>2018-04-18T11:30:16Z</time>
      </trkpt>
      <trkpt lat="44.98095" lon="6.50595">
        <ele>1563.24</ele>
        <time>2018-04-18T11:30:40Z</time>
      </trkpt>
      <trkpt lat="44.98095" lon="6.50594">
        <ele>1563.24</ele>
        <time>2018-04-18T11:31:04Z</time>
      </trkpt>
      <trkpt lat="44.98095" lon="6.50592">
        <ele>1563.72</ele>
        <time>2018-04-18T11:31:32Z</time>
      </trkpt>
      <trkpt lat="44.98096" lon="6.50593">
        <ele>1563.72</ele>
        <time>2018-04-18T11:32:02Z</time>
      </trkpt>
      <trkpt lat="44.98095" lon="6.50595">
        <ele>1563.72</ele>
        <time>2018-04-18T11:32:32Z</time>
      </trkpt>
      <trkpt lat="44.98093" lon="6.50597">
        <ele>1563.72</ele>
        <time>2018-04-18T11:32:57Z</time>
      </trkpt>
      <trkpt lat="44.98092" lon="6.50597">
        <ele>1563.24</ele>
        <time>2018-04-18T11:33:25Z</time>
      </trkpt>
      <trkpt lat="44.98092" lon="6.50596">
        <ele>1563.24</ele>
        <time>2018-04-18T11:33:57Z</time>
      </trkpt>
      <trkpt lat="44.98093" lon="6.50599">
        <ele>1563.24</ele>
        <time>2018-04-18T11:34:23Z</time>
      </trkpt>
      <trkpt lat="44.98092" lon="6.50598">
        <ele>1564.2</ele>
        <time>2018-04-18T11:34:43Z</time>
      </trkpt>
      <trkpt lat="44.98093" lon="6.50597">
        <ele>1563.72</ele>
        <time>2018-04-18T11:34:52Z</time>
      </trkpt>
    </trkseg>
  </trk>
</gpx>